<?xml version="1.0" encoding="UTF-8" standalone="no" ?>
<gpx xmlns="http://www.topografix.com/GPX/1/1" xmlns:xsi="http://www.w3.org/2001/XMLSchema-instance" xsi:schemaLocation="http://www.topografix.com/GPX/1/1 http://www.topografix.com/GPX/1/1/gpx.xsd" version="1.1" creator="VisuGPX - https://www.visugpx.com">
  <metadata>
    <name>83-Me-Callas</name>
    <desc><![CDATA[83-Me-Callas : Saint-Auxile
2023-10-04]]></desc>
  </metadata>
  <trk>
    <name><![CDATA[2023-10-04-Me-Callas]]></name>
    <extensions>
      <line xmlns="http://www.topografix.com/GPX/gpx_style/0/2">
        <width>4</width>
      </line>
    </extensions>
    <trkseg>
      <trkpt lat="43.5934" lon="6.53984">
        <ele>378</ele>
        <time>2023-10-04T12:17:07.000Z</time>
      </trkpt>
      <trkpt lat="43.5934" lon="6.53984">
        <ele>378</ele>
        <time>2023-10-04T12:17:08.000Z</time>
      </trkpt>
      <trkpt lat="43.59336" lon="6.53988">
        <ele>377.9</ele>
        <time>2023-10-04T12:21:58.000Z</time>
      </trkpt>
      <trkpt lat="43.59331" lon="6.5399">
        <ele>378.4</ele>
        <time>2023-10-04T12:24:19.000Z</time>
      </trkpt>
      <trkpt lat="43.59327" lon="6.5399">
        <ele>378</ele>
        <time>2023-10-04T12:24:30.000Z</time>
      </trkpt>
      <trkpt lat="43.59322" lon="6.53988">
        <ele>377.8</ele>
        <time>2023-10-04T12:24:38.000Z</time>
      </trkpt>
      <trkpt lat="43.59317" lon="6.53985">
        <ele>377.7</ele>
        <time>2023-10-04T12:24:44.000Z</time>
      </trkpt>
      <trkpt lat="43.59313" lon="6.53981">
        <ele>377.5</ele>
        <time>2023-10-04T12:24:59.000Z</time>
      </trkpt>
      <trkpt lat="43.59308" lon="6.53984">
        <ele>377.7</ele>
        <time>2023-10-04T12:25:34.000Z</time>
      </trkpt>
      <trkpt lat="43.59304" lon="6.53983">
        <ele>377.8</ele>
        <time>2023-10-04T12:25:40.000Z</time>
      </trkpt>
      <trkpt lat="43.59299" lon="6.53982">
        <ele>377.7</ele>
        <time>2023-10-04T12:25:46.000Z</time>
      </trkpt>
      <trkpt lat="43.59294" lon="6.53982">
        <ele>377.6</ele>
        <time>2023-10-04T12:25:51.000Z</time>
      </trkpt>
      <trkpt lat="43.59288" lon="6.53982">
        <ele>377.5</ele>
        <time>2023-10-04T12:25:55.000Z</time>
      </trkpt>
      <trkpt lat="43.59283" lon="6.5398">
        <ele>377.3</ele>
        <time>2023-10-04T12:25:58.000Z</time>
      </trkpt>
      <trkpt lat="43.59278" lon="6.53979">
        <ele>377.2</ele>
        <time>2023-10-04T12:26:02.000Z</time>
      </trkpt>
      <trkpt lat="43.59274" lon="6.53975">
        <ele>376.4</ele>
        <time>2023-10-04T12:26:27.000Z</time>
      </trkpt>
      <trkpt lat="43.59278" lon="6.53979">
        <ele>375.9</ele>
        <time>2023-10-04T12:26:39.000Z</time>
      </trkpt>
      <trkpt lat="43.59282" lon="6.53982">
        <ele>375.4</ele>
        <time>2023-10-04T12:26:44.000Z</time>
      </trkpt>
      <trkpt lat="43.59286" lon="6.53986">
        <ele>374.3</ele>
        <time>2023-10-04T12:26:51.000Z</time>
      </trkpt>
      <trkpt lat="43.5929" lon="6.53991">
        <ele>373.1</ele>
        <time>2023-10-04T12:26:57.000Z</time>
      </trkpt>
      <trkpt lat="43.59293" lon="6.53996">
        <ele>372.2</ele>
        <time>2023-10-04T12:27:03.000Z</time>
      </trkpt>
      <trkpt lat="43.59295" lon="6.54002">
        <ele>371.4</ele>
        <time>2023-10-04T12:27:08.000Z</time>
      </trkpt>
      <trkpt lat="43.59298" lon="6.54008">
        <ele>370.6</ele>
        <time>2023-10-04T12:27:13.000Z</time>
      </trkpt>
      <trkpt lat="43.59302" lon="6.54011">
        <ele>369.7</ele>
        <time>2023-10-04T12:27:18.000Z</time>
      </trkpt>
      <trkpt lat="43.59305" lon="6.54017">
        <ele>368.9</ele>
        <time>2023-10-04T12:27:24.000Z</time>
      </trkpt>
      <trkpt lat="43.59306" lon="6.54024">
        <ele>368.2</ele>
        <time>2023-10-04T12:27:29.000Z</time>
      </trkpt>
      <trkpt lat="43.59303" lon="6.5403">
        <ele>367.5</ele>
        <time>2023-10-04T12:27:37.000Z</time>
      </trkpt>
      <trkpt lat="43.59303" lon="6.54036">
        <ele>367.1</ele>
        <time>2023-10-04T12:27:44.000Z</time>
      </trkpt>
      <trkpt lat="43.59302" lon="6.54043">
        <ele>366.9</ele>
        <time>2023-10-04T12:27:50.000Z</time>
      </trkpt>
      <trkpt lat="43.59303" lon="6.54049">
        <ele>366.6</ele>
        <time>2023-10-04T12:27:59.000Z</time>
      </trkpt>
      <trkpt lat="43.59302" lon="6.54056">
        <ele>366.5</ele>
        <time>2023-10-04T12:28:06.000Z</time>
      </trkpt>
      <trkpt lat="43.59303" lon="6.54064">
        <ele>366.5</ele>
        <time>2023-10-04T12:28:11.000Z</time>
      </trkpt>
      <trkpt lat="43.59304" lon="6.54071">
        <ele>366.4</ele>
        <time>2023-10-04T12:28:14.000Z</time>
      </trkpt>
      <trkpt lat="43.59304" lon="6.54078">
        <ele>366.3</ele>
        <time>2023-10-04T12:28:17.000Z</time>
      </trkpt>
      <trkpt lat="43.59304" lon="6.54086">
        <ele>366.2</ele>
        <time>2023-10-04T12:28:21.000Z</time>
      </trkpt>
      <trkpt lat="43.59303" lon="6.54093">
        <ele>366.1</ele>
        <time>2023-10-04T12:28:25.000Z</time>
      </trkpt>
      <trkpt lat="43.59302" lon="6.541">
        <ele>365.9</ele>
        <time>2023-10-04T12:28:29.000Z</time>
      </trkpt>
      <trkpt lat="43.59301" lon="6.54107">
        <ele>365.6</ele>
        <time>2023-10-04T12:28:33.000Z</time>
      </trkpt>
      <trkpt lat="43.59302" lon="6.54114">
        <ele>365.3</ele>
        <time>2023-10-04T12:28:37.000Z</time>
      </trkpt>
      <trkpt lat="43.59303" lon="6.54121">
        <ele>365</ele>
        <time>2023-10-04T12:28:41.000Z</time>
      </trkpt>
      <trkpt lat="43.59304" lon="6.54129">
        <ele>364.7</ele>
        <time>2023-10-04T12:28:45.000Z</time>
      </trkpt>
      <trkpt lat="43.59305" lon="6.54135">
        <ele>364.4</ele>
        <time>2023-10-04T12:28:49.000Z</time>
      </trkpt>
      <trkpt lat="43.59307" lon="6.54142">
        <ele>363.9</ele>
        <time>2023-10-04T12:28:53.000Z</time>
      </trkpt>
      <trkpt lat="43.59309" lon="6.54148">
        <ele>363.3</ele>
        <time>2023-10-04T12:28:57.000Z</time>
      </trkpt>
      <trkpt lat="43.59311" lon="6.54154">
        <ele>362.6</ele>
        <time>2023-10-04T12:29:02.000Z</time>
      </trkpt>
      <trkpt lat="43.59315" lon="6.54159">
        <ele>361.9</ele>
        <time>2023-10-04T12:29:07.000Z</time>
      </trkpt>
      <trkpt lat="43.59319" lon="6.54163">
        <ele>361.1</ele>
        <time>2023-10-04T12:29:12.000Z</time>
      </trkpt>
      <trkpt lat="43.59323" lon="6.54168">
        <ele>360.3</ele>
        <time>2023-10-04T12:29:17.000Z</time>
      </trkpt>
      <trkpt lat="43.59323" lon="6.54175">
        <ele>359.7</ele>
        <time>2023-10-04T12:29:22.000Z</time>
      </trkpt>
      <trkpt lat="43.5932" lon="6.54171">
        <ele>357.4</ele>
        <time>2023-10-04T12:31:09.000Z</time>
      </trkpt>
      <trkpt lat="43.59316" lon="6.54174">
        <ele>357.2</ele>
        <time>2023-10-04T12:31:20.000Z</time>
      </trkpt>
      <trkpt lat="43.5932" lon="6.54175">
        <ele>357.1</ele>
        <time>2023-10-04T12:31:58.000Z</time>
      </trkpt>
      <trkpt lat="43.59317" lon="6.54178">
        <ele>357.4</ele>
        <time>2023-10-04T12:32:24.000Z</time>
      </trkpt>
      <trkpt lat="43.59312" lon="6.54179">
        <ele>357.4</ele>
        <time>2023-10-04T12:32:34.000Z</time>
      </trkpt>
      <trkpt lat="43.59307" lon="6.54177">
        <ele>357.2</ele>
        <time>2023-10-04T12:32:40.000Z</time>
      </trkpt>
      <trkpt lat="43.59302" lon="6.54178">
        <ele>357</ele>
        <time>2023-10-04T12:32:45.000Z</time>
      </trkpt>
      <trkpt lat="43.59297" lon="6.54179">
        <ele>356.9</ele>
        <time>2023-10-04T12:32:50.000Z</time>
      </trkpt>
      <trkpt lat="43.59293" lon="6.54181">
        <ele>356.8</ele>
        <time>2023-10-04T12:32:55.000Z</time>
      </trkpt>
      <trkpt lat="43.59289" lon="6.54183">
        <ele>356.7</ele>
        <time>2023-10-04T12:33:02.000Z</time>
      </trkpt>
      <trkpt lat="43.59284" lon="6.54183">
        <ele>356.6</ele>
        <time>2023-10-04T12:33:07.000Z</time>
      </trkpt>
      <trkpt lat="43.59279" lon="6.54184">
        <ele>356.6</ele>
        <time>2023-10-04T12:33:11.000Z</time>
      </trkpt>
      <trkpt lat="43.59274" lon="6.54185">
        <ele>356.5</ele>
        <time>2023-10-04T12:33:15.000Z</time>
      </trkpt>
      <trkpt lat="43.59269" lon="6.54187">
        <ele>356.5</ele>
        <time>2023-10-04T12:33:19.000Z</time>
      </trkpt>
      <trkpt lat="43.59264" lon="6.54188">
        <ele>356.5</ele>
        <time>2023-10-04T12:33:23.000Z</time>
      </trkpt>
      <trkpt lat="43.59259" lon="6.5419">
        <ele>356.5</ele>
        <time>2023-10-04T12:33:27.000Z</time>
      </trkpt>
      <trkpt lat="43.59254" lon="6.54192">
        <ele>356.5</ele>
        <time>2023-10-04T12:33:31.000Z</time>
      </trkpt>
      <trkpt lat="43.59249" lon="6.54194">
        <ele>356.5</ele>
        <time>2023-10-04T12:33:35.000Z</time>
      </trkpt>
      <trkpt lat="43.59245" lon="6.54198">
        <ele>356.4</ele>
        <time>2023-10-04T12:33:39.000Z</time>
      </trkpt>
      <trkpt lat="43.59241" lon="6.54203">
        <ele>356.4</ele>
        <time>2023-10-04T12:33:44.000Z</time>
      </trkpt>
      <trkpt lat="43.59238" lon="6.54208">
        <ele>356.3</ele>
        <time>2023-10-04T12:33:49.000Z</time>
      </trkpt>
      <trkpt lat="43.59234" lon="6.54213">
        <ele>356.3</ele>
        <time>2023-10-04T12:33:54.000Z</time>
      </trkpt>
      <trkpt lat="43.59232" lon="6.5422">
        <ele>356.3</ele>
        <time>2023-10-04T12:33:59.000Z</time>
      </trkpt>
      <trkpt lat="43.5923" lon="6.54225">
        <ele>356.2</ele>
        <time>2023-10-04T12:34:03.000Z</time>
      </trkpt>
      <trkpt lat="43.59228" lon="6.54232">
        <ele>356.2</ele>
        <time>2023-10-04T12:34:07.000Z</time>
      </trkpt>
      <trkpt lat="43.59226" lon="6.54238">
        <ele>356.2</ele>
        <time>2023-10-04T12:34:11.000Z</time>
      </trkpt>
      <trkpt lat="43.59224" lon="6.54244">
        <ele>356.2</ele>
        <time>2023-10-04T12:34:15.000Z</time>
      </trkpt>
      <trkpt lat="43.59223" lon="6.5425">
        <ele>356.2</ele>
        <time>2023-10-04T12:34:19.000Z</time>
      </trkpt>
      <trkpt lat="43.59221" lon="6.54256">
        <ele>356.2</ele>
        <time>2023-10-04T12:34:23.000Z</time>
      </trkpt>
      <trkpt lat="43.59219" lon="6.54262">
        <ele>356.2</ele>
        <time>2023-10-04T12:34:27.000Z</time>
      </trkpt>
      <trkpt lat="43.59216" lon="6.54268">
        <ele>356.3</ele>
        <time>2023-10-04T12:34:31.000Z</time>
      </trkpt>
      <trkpt lat="43.59213" lon="6.54275">
        <ele>356.5</ele>
        <time>2023-10-04T12:34:36.000Z</time>
      </trkpt>
      <trkpt lat="43.5921" lon="6.54281">
        <ele>356.6</ele>
        <time>2023-10-04T12:34:41.000Z</time>
      </trkpt>
      <trkpt lat="43.59207" lon="6.54286">
        <ele>356.6</ele>
        <time>2023-10-04T12:34:46.000Z</time>
      </trkpt>
      <trkpt lat="43.59203" lon="6.54291">
        <ele>356.7</ele>
        <time>2023-10-04T12:34:51.000Z</time>
      </trkpt>
      <trkpt lat="43.592" lon="6.54297">
        <ele>356.7</ele>
        <time>2023-10-04T12:34:55.000Z</time>
      </trkpt>
      <trkpt lat="43.59197" lon="6.54302">
        <ele>356.8</ele>
        <time>2023-10-04T12:34:59.000Z</time>
      </trkpt>
      <trkpt lat="43.59195" lon="6.54307">
        <ele>356.7</ele>
        <time>2023-10-04T12:35:03.000Z</time>
      </trkpt>
      <trkpt lat="43.59192" lon="6.54312">
        <ele>356.7</ele>
        <time>2023-10-04T12:35:07.000Z</time>
      </trkpt>
      <trkpt lat="43.59189" lon="6.54318">
        <ele>356.7</ele>
        <time>2023-10-04T12:35:11.000Z</time>
      </trkpt>
      <trkpt lat="43.59187" lon="6.54323">
        <ele>356.7</ele>
        <time>2023-10-04T12:35:15.000Z</time>
      </trkpt>
      <trkpt lat="43.59184" lon="6.54328">
        <ele>356.7</ele>
        <time>2023-10-04T12:35:19.000Z</time>
      </trkpt>
      <trkpt lat="43.59182" lon="6.54334">
        <ele>356.7</ele>
        <time>2023-10-04T12:35:23.000Z</time>
      </trkpt>
      <trkpt lat="43.5918" lon="6.5434">
        <ele>356.7</ele>
        <time>2023-10-04T12:35:27.000Z</time>
      </trkpt>
      <trkpt lat="43.59178" lon="6.54346">
        <ele>356.7</ele>
        <time>2023-10-04T12:35:31.000Z</time>
      </trkpt>
      <trkpt lat="43.59176" lon="6.54352">
        <ele>356.8</ele>
        <time>2023-10-04T12:35:35.000Z</time>
      </trkpt>
      <trkpt lat="43.59174" lon="6.54359">
        <ele>356.8</ele>
        <time>2023-10-04T12:35:39.000Z</time>
      </trkpt>
      <trkpt lat="43.59172" lon="6.54364">
        <ele>356.9</ele>
        <time>2023-10-04T12:35:43.000Z</time>
      </trkpt>
      <trkpt lat="43.59169" lon="6.5437">
        <ele>357.1</ele>
        <time>2023-10-04T12:35:47.000Z</time>
      </trkpt>
      <trkpt lat="43.59167" lon="6.54376">
        <ele>357.3</ele>
        <time>2023-10-04T12:35:51.000Z</time>
      </trkpt>
      <trkpt lat="43.59164" lon="6.54382">
        <ele>357.4</ele>
        <time>2023-10-04T12:35:55.000Z</time>
      </trkpt>
      <trkpt lat="43.59161" lon="6.54388">
        <ele>357.5</ele>
        <time>2023-10-04T12:35:59.000Z</time>
      </trkpt>
      <trkpt lat="43.59159" lon="6.54393">
        <ele>357.6</ele>
        <time>2023-10-04T12:36:03.000Z</time>
      </trkpt>
      <trkpt lat="43.59157" lon="6.54401">
        <ele>357.7</ele>
        <time>2023-10-04T12:36:08.000Z</time>
      </trkpt>
      <trkpt lat="43.59155" lon="6.54407">
        <ele>358</ele>
        <time>2023-10-04T12:36:12.000Z</time>
      </trkpt>
      <trkpt lat="43.59153" lon="6.54413">
        <ele>358.3</ele>
        <time>2023-10-04T12:36:16.000Z</time>
      </trkpt>
      <trkpt lat="43.59151" lon="6.54418">
        <ele>358.5</ele>
        <time>2023-10-04T12:36:20.000Z</time>
      </trkpt>
      <trkpt lat="43.59148" lon="6.54423">
        <ele>358.8</ele>
        <time>2023-10-04T12:36:24.000Z</time>
      </trkpt>
      <trkpt lat="43.59145" lon="6.54428">
        <ele>359.1</ele>
        <time>2023-10-04T12:36:28.000Z</time>
      </trkpt>
      <trkpt lat="43.59141" lon="6.54432">
        <ele>359.5</ele>
        <time>2023-10-04T12:36:32.000Z</time>
      </trkpt>
      <trkpt lat="43.59138" lon="6.54437">
        <ele>360</ele>
        <time>2023-10-04T12:36:36.000Z</time>
      </trkpt>
      <trkpt lat="43.59135" lon="6.54442">
        <ele>360.4</ele>
        <time>2023-10-04T12:36:40.000Z</time>
      </trkpt>
      <trkpt lat="43.59132" lon="6.54447">
        <ele>360.7</ele>
        <time>2023-10-04T12:36:44.000Z</time>
      </trkpt>
      <trkpt lat="43.59129" lon="6.54452">
        <ele>361.1</ele>
        <time>2023-10-04T12:36:48.000Z</time>
      </trkpt>
      <trkpt lat="43.59127" lon="6.54458">
        <ele>361.4</ele>
        <time>2023-10-04T12:36:52.000Z</time>
      </trkpt>
      <trkpt lat="43.59124" lon="6.54464">
        <ele>361.7</ele>
        <time>2023-10-04T12:36:57.000Z</time>
      </trkpt>
      <trkpt lat="43.59122" lon="6.54469">
        <ele>362.2</ele>
        <time>2023-10-04T12:37:02.000Z</time>
      </trkpt>
      <trkpt lat="43.59118" lon="6.54475">
        <ele>362.9</ele>
        <time>2023-10-04T12:37:08.000Z</time>
      </trkpt>
      <trkpt lat="43.59115" lon="6.5448">
        <ele>363.7</ele>
        <time>2023-10-04T12:37:14.000Z</time>
      </trkpt>
      <trkpt lat="43.59112" lon="6.54487">
        <ele>364.3</ele>
        <time>2023-10-04T12:37:19.000Z</time>
      </trkpt>
      <trkpt lat="43.59109" lon="6.54493">
        <ele>364.8</ele>
        <time>2023-10-04T12:37:24.000Z</time>
      </trkpt>
      <trkpt lat="43.59106" lon="6.54499">
        <ele>365.2</ele>
        <time>2023-10-04T12:37:28.000Z</time>
      </trkpt>
      <trkpt lat="43.59103" lon="6.54504">
        <ele>365.5</ele>
        <time>2023-10-04T12:37:32.000Z</time>
      </trkpt>
      <trkpt lat="43.59099" lon="6.54508">
        <ele>366.1</ele>
        <time>2023-10-04T12:37:36.000Z</time>
      </trkpt>
      <trkpt lat="43.59095" lon="6.54512">
        <ele>366.5</ele>
        <time>2023-10-04T12:37:41.000Z</time>
      </trkpt>
      <trkpt lat="43.59091" lon="6.54516">
        <ele>366.7</ele>
        <time>2023-10-04T12:37:45.000Z</time>
      </trkpt>
      <trkpt lat="43.59087" lon="6.54522">
        <ele>366.7</ele>
        <time>2023-10-04T12:37:50.000Z</time>
      </trkpt>
      <trkpt lat="43.59082" lon="6.54526">
        <ele>366.5</ele>
        <time>2023-10-04T12:37:55.000Z</time>
      </trkpt>
      <trkpt lat="43.59078" lon="6.5453">
        <ele>366.4</ele>
        <time>2023-10-04T12:37:59.000Z</time>
      </trkpt>
      <trkpt lat="43.59074" lon="6.54533">
        <ele>366.1</ele>
        <time>2023-10-04T12:38:04.000Z</time>
      </trkpt>
      <trkpt lat="43.5907" lon="6.54536">
        <ele>365.7</ele>
        <time>2023-10-04T12:38:09.000Z</time>
      </trkpt>
      <trkpt lat="43.59066" lon="6.54541">
        <ele>365.1</ele>
        <time>2023-10-04T12:38:14.000Z</time>
      </trkpt>
      <trkpt lat="43.59063" lon="6.54546">
        <ele>364.7</ele>
        <time>2023-10-04T12:38:18.000Z</time>
      </trkpt>
      <trkpt lat="43.59061" lon="6.54553">
        <ele>364.5</ele>
        <time>2023-10-04T12:38:22.000Z</time>
      </trkpt>
      <trkpt lat="43.59058" lon="6.54559">
        <ele>364.2</ele>
        <time>2023-10-04T12:38:26.000Z</time>
      </trkpt>
      <trkpt lat="43.59055" lon="6.54565">
        <ele>364</ele>
        <time>2023-10-04T12:38:30.000Z</time>
      </trkpt>
      <trkpt lat="43.59053" lon="6.54571">
        <ele>363.7</ele>
        <time>2023-10-04T12:38:34.000Z</time>
      </trkpt>
      <trkpt lat="43.59054" lon="6.54579">
        <ele>363.2</ele>
        <time>2023-10-04T12:38:39.000Z</time>
      </trkpt>
      <trkpt lat="43.59055" lon="6.54585">
        <ele>362.9</ele>
        <time>2023-10-04T12:38:43.000Z</time>
      </trkpt>
      <trkpt lat="43.59056" lon="6.54593">
        <ele>362.6</ele>
        <time>2023-10-04T12:38:48.000Z</time>
      </trkpt>
      <trkpt lat="43.59057" lon="6.54599">
        <ele>362.4</ele>
        <time>2023-10-04T12:38:52.000Z</time>
      </trkpt>
      <trkpt lat="43.59057" lon="6.54606">
        <ele>362.2</ele>
        <time>2023-10-04T12:38:56.000Z</time>
      </trkpt>
      <trkpt lat="43.59057" lon="6.54612">
        <ele>362.1</ele>
        <time>2023-10-04T12:39:00.000Z</time>
      </trkpt>
      <trkpt lat="43.59056" lon="6.54618">
        <ele>362.1</ele>
        <time>2023-10-04T12:39:04.000Z</time>
      </trkpt>
      <trkpt lat="43.59054" lon="6.54625">
        <ele>362.1</ele>
        <time>2023-10-04T12:39:08.000Z</time>
      </trkpt>
      <trkpt lat="43.59052" lon="6.54632">
        <ele>362.2</ele>
        <time>2023-10-04T12:39:12.000Z</time>
      </trkpt>
      <trkpt lat="43.59051" lon="6.54638">
        <ele>362.3</ele>
        <time>2023-10-04T12:39:16.000Z</time>
      </trkpt>
      <trkpt lat="43.59049" lon="6.54644">
        <ele>362.3</ele>
        <time>2023-10-04T12:39:20.000Z</time>
      </trkpt>
      <trkpt lat="43.59047" lon="6.54651">
        <ele>362.4</ele>
        <time>2023-10-04T12:39:24.000Z</time>
      </trkpt>
      <trkpt lat="43.59045" lon="6.54657">
        <ele>362.6</ele>
        <time>2023-10-04T12:39:28.000Z</time>
      </trkpt>
      <trkpt lat="43.59044" lon="6.54663">
        <ele>362.8</ele>
        <time>2023-10-04T12:39:32.000Z</time>
      </trkpt>
      <trkpt lat="43.59042" lon="6.5467">
        <ele>363.2</ele>
        <time>2023-10-04T12:39:36.000Z</time>
      </trkpt>
      <trkpt lat="43.59042" lon="6.54676">
        <ele>363.6</ele>
        <time>2023-10-04T12:39:40.000Z</time>
      </trkpt>
      <trkpt lat="43.59042" lon="6.54683">
        <ele>364.1</ele>
        <time>2023-10-04T12:39:44.000Z</time>
      </trkpt>
      <trkpt lat="43.59042" lon="6.5469">
        <ele>364.5</ele>
        <time>2023-10-04T12:39:48.000Z</time>
      </trkpt>
      <trkpt lat="43.59043" lon="6.54696">
        <ele>364.7</ele>
        <time>2023-10-04T12:39:52.000Z</time>
      </trkpt>
      <trkpt lat="43.59044" lon="6.54703">
        <ele>365</ele>
        <time>2023-10-04T12:39:56.000Z</time>
      </trkpt>
      <trkpt lat="43.59045" lon="6.54709">
        <ele>365.2</ele>
        <time>2023-10-04T12:40:00.000Z</time>
      </trkpt>
      <trkpt lat="43.59046" lon="6.54715">
        <ele>365.5</ele>
        <time>2023-10-04T12:40:04.000Z</time>
      </trkpt>
      <trkpt lat="43.59048" lon="6.54722">
        <ele>366</ele>
        <time>2023-10-04T12:40:08.000Z</time>
      </trkpt>
      <trkpt lat="43.5905" lon="6.54728">
        <ele>366.3</ele>
        <time>2023-10-04T12:40:12.000Z</time>
      </trkpt>
      <trkpt lat="43.59052" lon="6.54734">
        <ele>366.7</ele>
        <time>2023-10-04T12:40:16.000Z</time>
      </trkpt>
      <trkpt lat="43.59052" lon="6.54741">
        <ele>366.9</ele>
        <time>2023-10-04T12:40:20.000Z</time>
      </trkpt>
      <trkpt lat="43.59052" lon="6.54749">
        <ele>367.1</ele>
        <time>2023-10-04T12:40:24.000Z</time>
      </trkpt>
      <trkpt lat="43.59052" lon="6.54756">
        <ele>367.4</ele>
        <time>2023-10-04T12:40:28.000Z</time>
      </trkpt>
      <trkpt lat="43.59051" lon="6.54763">
        <ele>367.7</ele>
        <time>2023-10-04T12:40:32.000Z</time>
      </trkpt>
      <trkpt lat="43.59051" lon="6.5477">
        <ele>368</ele>
        <time>2023-10-04T12:40:36.000Z</time>
      </trkpt>
      <trkpt lat="43.5905" lon="6.54777">
        <ele>368.2</ele>
        <time>2023-10-04T12:40:40.000Z</time>
      </trkpt>
      <trkpt lat="43.59049" lon="6.54784">
        <ele>368.4</ele>
        <time>2023-10-04T12:40:44.000Z</time>
      </trkpt>
      <trkpt lat="43.59048" lon="6.54791">
        <ele>368.8</ele>
        <time>2023-10-04T12:40:48.000Z</time>
      </trkpt>
      <trkpt lat="43.59047" lon="6.54797">
        <ele>369.1</ele>
        <time>2023-10-04T12:40:52.000Z</time>
      </trkpt>
      <trkpt lat="43.59045" lon="6.54804">
        <ele>369.4</ele>
        <time>2023-10-04T12:40:56.000Z</time>
      </trkpt>
      <trkpt lat="43.59044" lon="6.54811">
        <ele>369.6</ele>
        <time>2023-10-04T12:41:00.000Z</time>
      </trkpt>
      <trkpt lat="43.59043" lon="6.54817">
        <ele>369.9</ele>
        <time>2023-10-04T12:41:04.000Z</time>
      </trkpt>
      <trkpt lat="43.59041" lon="6.54823">
        <ele>370.1</ele>
        <time>2023-10-04T12:41:08.000Z</time>
      </trkpt>
      <trkpt lat="43.59038" lon="6.54829">
        <ele>370.2</ele>
        <time>2023-10-04T12:41:12.000Z</time>
      </trkpt>
      <trkpt lat="43.59037" lon="6.54835">
        <ele>370.4</ele>
        <time>2023-10-04T12:41:16.000Z</time>
      </trkpt>
      <trkpt lat="43.59035" lon="6.54841">
        <ele>370.6</ele>
        <time>2023-10-04T12:41:20.000Z</time>
      </trkpt>
      <trkpt lat="43.59033" lon="6.54846">
        <ele>370.9</ele>
        <time>2023-10-04T12:41:24.000Z</time>
      </trkpt>
      <trkpt lat="43.5903" lon="6.54851">
        <ele>371.2</ele>
        <time>2023-10-04T12:41:28.000Z</time>
      </trkpt>
      <trkpt lat="43.59028" lon="6.54857">
        <ele>371.5</ele>
        <time>2023-10-04T12:41:32.000Z</time>
      </trkpt>
      <trkpt lat="43.59025" lon="6.54864">
        <ele>372</ele>
        <time>2023-10-04T12:41:37.000Z</time>
      </trkpt>
      <trkpt lat="43.59022" lon="6.5487">
        <ele>372.5</ele>
        <time>2023-10-04T12:41:42.000Z</time>
      </trkpt>
      <trkpt lat="43.5902" lon="6.54875">
        <ele>372.8</ele>
        <time>2023-10-04T12:41:46.000Z</time>
      </trkpt>
      <trkpt lat="43.59018" lon="6.54881">
        <ele>373</ele>
        <time>2023-10-04T12:41:50.000Z</time>
      </trkpt>
      <trkpt lat="43.59015" lon="6.54888">
        <ele>373.3</ele>
        <time>2023-10-04T12:41:55.000Z</time>
      </trkpt>
      <trkpt lat="43.59014" lon="6.54893">
        <ele>373.6</ele>
        <time>2023-10-04T12:41:59.000Z</time>
      </trkpt>
      <trkpt lat="43.59011" lon="6.549">
        <ele>374</ele>
        <time>2023-10-04T12:42:04.000Z</time>
      </trkpt>
      <trkpt lat="43.59009" lon="6.54906">
        <ele>374.4</ele>
        <time>2023-10-04T12:42:08.000Z</time>
      </trkpt>
      <trkpt lat="43.59006" lon="6.54912">
        <ele>374.8</ele>
        <time>2023-10-04T12:42:13.000Z</time>
      </trkpt>
      <trkpt lat="43.59003" lon="6.54917">
        <ele>375.2</ele>
        <time>2023-10-04T12:42:17.000Z</time>
      </trkpt>
      <trkpt lat="43.58999" lon="6.54921">
        <ele>375.6</ele>
        <time>2023-10-04T12:42:21.000Z</time>
      </trkpt>
      <trkpt lat="43.58996" lon="6.54925">
        <ele>376.1</ele>
        <time>2023-10-04T12:42:25.000Z</time>
      </trkpt>
      <trkpt lat="43.58993" lon="6.5493">
        <ele>376.6</ele>
        <time>2023-10-04T12:42:29.000Z</time>
      </trkpt>
      <trkpt lat="43.58991" lon="6.54936">
        <ele>376.9</ele>
        <time>2023-10-04T12:42:33.000Z</time>
      </trkpt>
      <trkpt lat="43.58988" lon="6.54943">
        <ele>377.6</ele>
        <time>2023-10-04T12:42:38.000Z</time>
      </trkpt>
      <trkpt lat="43.58988" lon="6.54949">
        <ele>378.1</ele>
        <time>2023-10-04T12:42:42.000Z</time>
      </trkpt>
      <trkpt lat="43.58989" lon="6.54956">
        <ele>378.6</ele>
        <time>2023-10-04T12:42:47.000Z</time>
      </trkpt>
      <trkpt lat="43.58989" lon="6.54964">
        <ele>379</ele>
        <time>2023-10-04T12:42:52.000Z</time>
      </trkpt>
      <trkpt lat="43.58989" lon="6.54971">
        <ele>379.2</ele>
        <time>2023-10-04T12:42:57.000Z</time>
      </trkpt>
      <trkpt lat="43.58989" lon="6.54978">
        <ele>379.4</ele>
        <time>2023-10-04T12:43:01.000Z</time>
      </trkpt>
      <trkpt lat="43.5899" lon="6.54985">
        <ele>379.5</ele>
        <time>2023-10-04T12:43:05.000Z</time>
      </trkpt>
      <trkpt lat="43.58989" lon="6.54992">
        <ele>379.6</ele>
        <time>2023-10-04T12:43:09.000Z</time>
      </trkpt>
      <trkpt lat="43.5899" lon="6.54998">
        <ele>379.7</ele>
        <time>2023-10-04T12:43:13.000Z</time>
      </trkpt>
      <trkpt lat="43.5899" lon="6.55005">
        <ele>379.8</ele>
        <time>2023-10-04T12:43:17.000Z</time>
      </trkpt>
      <trkpt lat="43.5899" lon="6.55012">
        <ele>379.8</ele>
        <time>2023-10-04T12:43:21.000Z</time>
      </trkpt>
      <trkpt lat="43.5899" lon="6.55019">
        <ele>379.8</ele>
        <time>2023-10-04T12:43:25.000Z</time>
      </trkpt>
      <trkpt lat="43.5899" lon="6.55027">
        <ele>379.8</ele>
        <time>2023-10-04T12:43:29.000Z</time>
      </trkpt>
      <trkpt lat="43.58989" lon="6.55034">
        <ele>379.5</ele>
        <time>2023-10-04T12:43:33.000Z</time>
      </trkpt>
      <trkpt lat="43.58987" lon="6.55041">
        <ele>379.4</ele>
        <time>2023-10-04T12:43:37.000Z</time>
      </trkpt>
      <trkpt lat="43.58984" lon="6.55048">
        <ele>379.3</ele>
        <time>2023-10-04T12:43:41.000Z</time>
      </trkpt>
      <trkpt lat="43.58981" lon="6.55054">
        <ele>379.2</ele>
        <time>2023-10-04T12:43:45.000Z</time>
      </trkpt>
      <trkpt lat="43.58978" lon="6.55061">
        <ele>379.1</ele>
        <time>2023-10-04T12:43:49.000Z</time>
      </trkpt>
      <trkpt lat="43.58976" lon="6.55068">
        <ele>378.8</ele>
        <time>2023-10-04T12:43:53.000Z</time>
      </trkpt>
      <trkpt lat="43.58973" lon="6.55074">
        <ele>378.2</ele>
        <time>2023-10-04T12:43:57.000Z</time>
      </trkpt>
      <trkpt lat="43.58971" lon="6.5508">
        <ele>377.6</ele>
        <time>2023-10-04T12:44:01.000Z</time>
      </trkpt>
      <trkpt lat="43.58967" lon="6.55085">
        <ele>377.1</ele>
        <time>2023-10-04T12:44:05.000Z</time>
      </trkpt>
      <trkpt lat="43.58963" lon="6.55091">
        <ele>376.6</ele>
        <time>2023-10-04T12:44:09.000Z</time>
      </trkpt>
      <trkpt lat="43.5896" lon="6.55097">
        <ele>376.1</ele>
        <time>2023-10-04T12:44:13.000Z</time>
      </trkpt>
      <trkpt lat="43.58956" lon="6.55103">
        <ele>375.6</ele>
        <time>2023-10-04T12:44:17.000Z</time>
      </trkpt>
      <trkpt lat="43.58953" lon="6.55109">
        <ele>374.9</ele>
        <time>2023-10-04T12:44:21.000Z</time>
      </trkpt>
      <trkpt lat="43.58949" lon="6.55114">
        <ele>374.3</ele>
        <time>2023-10-04T12:44:25.000Z</time>
      </trkpt>
      <trkpt lat="43.58944" lon="6.55119">
        <ele>373.8</ele>
        <time>2023-10-04T12:44:29.000Z</time>
      </trkpt>
      <trkpt lat="43.5894" lon="6.55123">
        <ele>373.2</ele>
        <time>2023-10-04T12:44:33.000Z</time>
      </trkpt>
      <trkpt lat="43.58936" lon="6.55126">
        <ele>372.6</ele>
        <time>2023-10-04T12:44:37.000Z</time>
      </trkpt>
      <trkpt lat="43.58931" lon="6.55129">
        <ele>371.9</ele>
        <time>2023-10-04T12:44:41.000Z</time>
      </trkpt>
      <trkpt lat="43.58928" lon="6.55133">
        <ele>371.2</ele>
        <time>2023-10-04T12:44:45.000Z</time>
      </trkpt>
      <trkpt lat="43.58924" lon="6.55138">
        <ele>370.6</ele>
        <time>2023-10-04T12:44:49.000Z</time>
      </trkpt>
      <trkpt lat="43.58919" lon="6.55143">
        <ele>370</ele>
        <time>2023-10-04T12:44:54.000Z</time>
      </trkpt>
      <trkpt lat="43.58915" lon="6.55148">
        <ele>369.5</ele>
        <time>2023-10-04T12:44:59.000Z</time>
      </trkpt>
      <trkpt lat="43.5891" lon="6.5515">
        <ele>369.1</ele>
        <time>2023-10-04T12:45:03.000Z</time>
      </trkpt>
      <trkpt lat="43.58905" lon="6.55153">
        <ele>368.2</ele>
        <time>2023-10-04T12:45:15.000Z</time>
      </trkpt>
      <trkpt lat="43.58901" lon="6.55156">
        <ele>367.2</ele>
        <time>2023-10-04T12:45:52.000Z</time>
      </trkpt>
      <trkpt lat="43.58897" lon="6.55152">
        <ele>367.3</ele>
        <time>2023-10-04T12:46:16.000Z</time>
      </trkpt>
      <trkpt lat="43.58894" lon="6.55148">
        <ele>367.3</ele>
        <time>2023-10-04T12:46:30.000Z</time>
      </trkpt>
      <trkpt lat="43.5889" lon="6.55143">
        <ele>367.3</ele>
        <time>2023-10-04T12:46:36.000Z</time>
      </trkpt>
      <trkpt lat="43.58886" lon="6.55139">
        <ele>367.3</ele>
        <time>2023-10-04T12:46:41.000Z</time>
      </trkpt>
      <trkpt lat="43.58882" lon="6.55139">
        <ele>368.1</ele>
        <time>2023-10-04T12:47:04.000Z</time>
      </trkpt>
      <trkpt lat="43.58877" lon="6.55136">
        <ele>368.9</ele>
        <time>2023-10-04T12:47:16.000Z</time>
      </trkpt>
      <trkpt lat="43.58872" lon="6.55137">
        <ele>369.4</ele>
        <time>2023-10-04T12:47:21.000Z</time>
      </trkpt>
      <trkpt lat="43.58867" lon="6.55137">
        <ele>370.1</ele>
        <time>2023-10-04T12:47:27.000Z</time>
      </trkpt>
      <trkpt lat="43.58862" lon="6.55138">
        <ele>370.7</ele>
        <time>2023-10-04T12:47:32.000Z</time>
      </trkpt>
      <trkpt lat="43.58858" lon="6.55138">
        <ele>371.4</ele>
        <time>2023-10-04T12:47:37.000Z</time>
      </trkpt>
      <trkpt lat="43.58853" lon="6.55138">
        <ele>372.5</ele>
        <time>2023-10-04T12:47:44.000Z</time>
      </trkpt>
      <trkpt lat="43.58858" lon="6.55141">
        <ele>374.6</ele>
        <time>2023-10-04T12:47:56.000Z</time>
      </trkpt>
      <trkpt lat="43.58861" lon="6.55144">
        <ele>375.7</ele>
        <time>2023-10-04T12:48:03.000Z</time>
      </trkpt>
      <trkpt lat="43.58866" lon="6.55148">
        <ele>376.9</ele>
        <time>2023-10-04T12:48:12.000Z</time>
      </trkpt>
      <trkpt lat="43.58868" lon="6.55154">
        <ele>377.8</ele>
        <time>2023-10-04T12:48:19.000Z</time>
      </trkpt>
      <trkpt lat="43.5887" lon="6.5516">
        <ele>378.9</ele>
        <time>2023-10-04T12:48:25.000Z</time>
      </trkpt>
      <trkpt lat="43.58871" lon="6.55167">
        <ele>379.8</ele>
        <time>2023-10-04T12:48:31.000Z</time>
      </trkpt>
      <trkpt lat="43.58873" lon="6.55174">
        <ele>380.6</ele>
        <time>2023-10-04T12:48:37.000Z</time>
      </trkpt>
      <trkpt lat="43.58874" lon="6.5518">
        <ele>381.4</ele>
        <time>2023-10-04T12:48:42.000Z</time>
      </trkpt>
      <trkpt lat="43.58876" lon="6.55187">
        <ele>382.5</ele>
        <time>2023-10-04T12:48:49.000Z</time>
      </trkpt>
      <trkpt lat="43.58877" lon="6.55194">
        <ele>383.4</ele>
        <time>2023-10-04T12:48:55.000Z</time>
      </trkpt>
      <trkpt lat="43.58878" lon="6.55201">
        <ele>384.2</ele>
        <time>2023-10-04T12:49:00.000Z</time>
      </trkpt>
      <trkpt lat="43.58879" lon="6.55207">
        <ele>384.8</ele>
        <time>2023-10-04T12:49:05.000Z</time>
      </trkpt>
      <trkpt lat="43.5888" lon="6.55213">
        <ele>385.7</ele>
        <time>2023-10-04T12:49:12.000Z</time>
      </trkpt>
      <trkpt lat="43.5888" lon="6.5522">
        <ele>386.5</ele>
        <time>2023-10-04T12:49:18.000Z</time>
      </trkpt>
      <trkpt lat="43.58881" lon="6.55227">
        <ele>387.5</ele>
        <time>2023-10-04T12:49:24.000Z</time>
      </trkpt>
      <trkpt lat="43.58882" lon="6.55233">
        <ele>388.8</ele>
        <time>2023-10-04T12:49:32.000Z</time>
      </trkpt>
      <trkpt lat="43.58882" lon="6.5524">
        <ele>390</ele>
        <time>2023-10-04T12:49:39.000Z</time>
      </trkpt>
      <trkpt lat="43.58883" lon="6.55248">
        <ele>391.5</ele>
        <time>2023-10-04T12:49:47.000Z</time>
      </trkpt>
      <trkpt lat="43.58882" lon="6.55254">
        <ele>392.6</ele>
        <time>2023-10-04T12:49:53.000Z</time>
      </trkpt>
      <trkpt lat="43.58883" lon="6.5526">
        <ele>393.7</ele>
        <time>2023-10-04T12:49:59.000Z</time>
      </trkpt>
      <trkpt lat="43.58882" lon="6.55267">
        <ele>394.9</ele>
        <time>2023-10-04T12:50:07.000Z</time>
      </trkpt>
      <trkpt lat="43.5888" lon="6.55273">
        <ele>395.6</ele>
        <time>2023-10-04T12:50:12.000Z</time>
      </trkpt>
      <trkpt lat="43.58877" lon="6.55279">
        <ele>396.7</ele>
        <time>2023-10-04T12:50:19.000Z</time>
      </trkpt>
      <trkpt lat="43.58877" lon="6.55285">
        <ele>397.9</ele>
        <time>2023-10-04T12:50:26.000Z</time>
      </trkpt>
      <trkpt lat="43.58877" lon="6.55292">
        <ele>398.9</ele>
        <time>2023-10-04T12:50:32.000Z</time>
      </trkpt>
      <trkpt lat="43.5888" lon="6.55298">
        <ele>399.9</ele>
        <time>2023-10-04T12:50:38.000Z</time>
      </trkpt>
      <trkpt lat="43.58879" lon="6.55304">
        <ele>400.9</ele>
        <time>2023-10-04T12:50:45.000Z</time>
      </trkpt>
      <trkpt lat="43.58877" lon="6.55311">
        <ele>402.1</ele>
        <time>2023-10-04T12:50:52.000Z</time>
      </trkpt>
      <trkpt lat="43.58877" lon="6.55318">
        <ele>403.2</ele>
        <time>2023-10-04T12:50:58.000Z</time>
      </trkpt>
      <trkpt lat="43.58877" lon="6.55324">
        <ele>404.1</ele>
        <time>2023-10-04T12:51:04.000Z</time>
      </trkpt>
      <trkpt lat="43.58876" lon="6.55331">
        <ele>405.1</ele>
        <time>2023-10-04T12:51:11.000Z</time>
      </trkpt>
      <trkpt lat="43.58876" lon="6.55338">
        <ele>406.2</ele>
        <time>2023-10-04T12:51:19.000Z</time>
      </trkpt>
      <trkpt lat="43.58876" lon="6.55345">
        <ele>406.9</ele>
        <time>2023-10-04T12:51:24.000Z</time>
      </trkpt>
      <trkpt lat="43.58878" lon="6.5535">
        <ele>407.4</ele>
        <time>2023-10-04T12:51:30.000Z</time>
      </trkpt>
      <trkpt lat="43.58873" lon="6.55349">
        <ele>408.6</ele>
        <time>2023-10-04T12:51:44.000Z</time>
      </trkpt>
      <trkpt lat="43.58869" lon="6.55346">
        <ele>409.2</ele>
        <time>2023-10-04T12:51:50.000Z</time>
      </trkpt>
      <trkpt lat="43.58865" lon="6.55343">
        <ele>409.8</ele>
        <time>2023-10-04T12:51:54.000Z</time>
      </trkpt>
      <trkpt lat="43.5886" lon="6.5534">
        <ele>410.4</ele>
        <time>2023-10-04T12:51:59.000Z</time>
      </trkpt>
      <trkpt lat="43.5886" lon="6.55334">
        <ele>411.6</ele>
        <time>2023-10-04T12:52:08.000Z</time>
      </trkpt>
      <trkpt lat="43.58858" lon="6.55328">
        <ele>412.6</ele>
        <time>2023-10-04T12:52:15.000Z</time>
      </trkpt>
      <trkpt lat="43.58857" lon="6.55322">
        <ele>413.7</ele>
        <time>2023-10-04T12:52:22.000Z</time>
      </trkpt>
      <trkpt lat="43.58854" lon="6.55315">
        <ele>414.7</ele>
        <time>2023-10-04T12:52:30.000Z</time>
      </trkpt>
      <trkpt lat="43.58853" lon="6.55309">
        <ele>415.6</ele>
        <time>2023-10-04T12:52:36.000Z</time>
      </trkpt>
      <trkpt lat="43.58851" lon="6.55302">
        <ele>416.4</ele>
        <time>2023-10-04T12:52:41.000Z</time>
      </trkpt>
      <trkpt lat="43.58848" lon="6.55297">
        <ele>417.3</ele>
        <time>2023-10-04T12:52:46.000Z</time>
      </trkpt>
      <trkpt lat="43.58845" lon="6.55293">
        <ele>418.3</ele>
        <time>2023-10-04T12:52:52.000Z</time>
      </trkpt>
      <trkpt lat="43.5884" lon="6.55289">
        <ele>419</ele>
        <time>2023-10-04T12:52:57.000Z</time>
      </trkpt>
      <trkpt lat="43.58837" lon="6.55284">
        <ele>420</ele>
        <time>2023-10-04T12:53:03.000Z</time>
      </trkpt>
      <trkpt lat="43.58834" lon="6.55278">
        <ele>420.5</ele>
        <time>2023-10-04T12:53:08.000Z</time>
      </trkpt>
      <trkpt lat="43.58831" lon="6.55273">
        <ele>421.2</ele>
        <time>2023-10-04T12:53:13.000Z</time>
      </trkpt>
      <trkpt lat="43.58828" lon="6.55268">
        <ele>421.9</ele>
        <time>2023-10-04T12:53:19.000Z</time>
      </trkpt>
      <trkpt lat="43.58824" lon="6.55263">
        <ele>423.3</ele>
        <time>2023-10-04T12:53:27.000Z</time>
      </trkpt>
      <trkpt lat="43.5882" lon="6.55258">
        <ele>424</ele>
        <time>2023-10-04T12:53:32.000Z</time>
      </trkpt>
      <trkpt lat="43.58816" lon="6.55254">
        <ele>424.6</ele>
        <time>2023-10-04T12:53:37.000Z</time>
      </trkpt>
      <trkpt lat="43.58812" lon="6.5525">
        <ele>425.4</ele>
        <time>2023-10-04T12:53:45.000Z</time>
      </trkpt>
      <trkpt lat="43.58808" lon="6.55247">
        <ele>427.4</ele>
        <time>2023-10-04T12:54:43.000Z</time>
      </trkpt>
      <trkpt lat="43.58804" lon="6.55245">
        <ele>428.1</ele>
        <time>2023-10-04T12:57:30.000Z</time>
      </trkpt>
      <trkpt lat="43.58799" lon="6.55247">
        <ele>428.4</ele>
        <time>2023-10-04T12:57:37.000Z</time>
      </trkpt>
      <trkpt lat="43.58802" lon="6.55252">
        <ele>429.5</ele>
        <time>2023-10-04T12:57:51.000Z</time>
      </trkpt>
      <trkpt lat="43.58803" lon="6.55258">
        <ele>430.3</ele>
        <time>2023-10-04T12:57:59.000Z</time>
      </trkpt>
      <trkpt lat="43.58804" lon="6.55265">
        <ele>431.1</ele>
        <time>2023-10-04T12:58:06.000Z</time>
      </trkpt>
      <trkpt lat="43.58804" lon="6.55272">
        <ele>431.7</ele>
        <time>2023-10-04T12:58:11.000Z</time>
      </trkpt>
      <trkpt lat="43.58806" lon="6.55278">
        <ele>432.5</ele>
        <time>2023-10-04T12:58:17.000Z</time>
      </trkpt>
      <trkpt lat="43.58807" lon="6.55285">
        <ele>433.1</ele>
        <time>2023-10-04T12:58:22.000Z</time>
      </trkpt>
      <trkpt lat="43.58807" lon="6.55292">
        <ele>433.9</ele>
        <time>2023-10-04T12:58:28.000Z</time>
      </trkpt>
      <trkpt lat="43.58808" lon="6.55298">
        <ele>434.6</ele>
        <time>2023-10-04T12:58:33.000Z</time>
      </trkpt>
      <trkpt lat="43.58809" lon="6.55305">
        <ele>435.3</ele>
        <time>2023-10-04T12:58:38.000Z</time>
      </trkpt>
      <trkpt lat="43.58809" lon="6.55313">
        <ele>435.8</ele>
        <time>2023-10-04T12:58:43.000Z</time>
      </trkpt>
      <trkpt lat="43.58809" lon="6.5532">
        <ele>436.3</ele>
        <time>2023-10-04T12:58:48.000Z</time>
      </trkpt>
      <trkpt lat="43.58808" lon="6.55327">
        <ele>437</ele>
        <time>2023-10-04T12:58:54.000Z</time>
      </trkpt>
      <trkpt lat="43.58808" lon="6.55333">
        <ele>437.5</ele>
        <time>2023-10-04T12:59:00.000Z</time>
      </trkpt>
      <trkpt lat="43.58807" lon="6.5534">
        <ele>438.3</ele>
        <time>2023-10-04T12:59:07.000Z</time>
      </trkpt>
      <trkpt lat="43.58806" lon="6.55347">
        <ele>438.9</ele>
        <time>2023-10-04T12:59:13.000Z</time>
      </trkpt>
      <trkpt lat="43.58805" lon="6.55353">
        <ele>439.4</ele>
        <time>2023-10-04T12:59:19.000Z</time>
      </trkpt>
      <trkpt lat="43.58803" lon="6.55358">
        <ele>439.9</ele>
        <time>2023-10-04T12:59:24.000Z</time>
      </trkpt>
      <trkpt lat="43.58802" lon="6.55365">
        <ele>440.7</ele>
        <time>2023-10-04T12:59:31.000Z</time>
      </trkpt>
      <trkpt lat="43.588" lon="6.55371">
        <ele>441.6</ele>
        <time>2023-10-04T12:59:37.000Z</time>
      </trkpt>
      <trkpt lat="43.58796" lon="6.55367">
        <ele>443.2</ele>
        <time>2023-10-04T12:59:49.000Z</time>
      </trkpt>
      <trkpt lat="43.58794" lon="6.55361">
        <ele>444.2</ele>
        <time>2023-10-04T12:59:57.000Z</time>
      </trkpt>
      <trkpt lat="43.58793" lon="6.55355">
        <ele>445.5</ele>
        <time>2023-10-04T13:00:06.000Z</time>
      </trkpt>
      <trkpt lat="43.58789" lon="6.55358">
        <ele>446.8</ele>
        <time>2023-10-04T13:00:15.000Z</time>
      </trkpt>
      <trkpt lat="43.58786" lon="6.55363">
        <ele>447.9</ele>
        <time>2023-10-04T13:00:23.000Z</time>
      </trkpt>
      <trkpt lat="43.58782" lon="6.55367">
        <ele>449.2</ele>
        <time>2023-10-04T13:00:31.000Z</time>
      </trkpt>
      <trkpt lat="43.58778" lon="6.5537">
        <ele>450</ele>
        <time>2023-10-04T13:00:37.000Z</time>
      </trkpt>
      <trkpt lat="43.58774" lon="6.55374">
        <ele>450.7</ele>
        <time>2023-10-04T13:00:43.000Z</time>
      </trkpt>
      <trkpt lat="43.58771" lon="6.55378">
        <ele>451.4</ele>
        <time>2023-10-04T13:00:50.000Z</time>
      </trkpt>
      <trkpt lat="43.58767" lon="6.55382">
        <ele>452.4</ele>
        <time>2023-10-04T13:00:57.000Z</time>
      </trkpt>
      <trkpt lat="43.58762" lon="6.55384">
        <ele>453.1</ele>
        <time>2023-10-04T13:01:04.000Z</time>
      </trkpt>
      <trkpt lat="43.58758" lon="6.55387">
        <ele>453.6</ele>
        <time>2023-10-04T13:01:10.000Z</time>
      </trkpt>
      <trkpt lat="43.58755" lon="6.55393">
        <ele>454.1</ele>
        <time>2023-10-04T13:01:18.000Z</time>
      </trkpt>
      <trkpt lat="43.58753" lon="6.55398">
        <ele>454.2</ele>
        <time>2023-10-04T13:01:25.000Z</time>
      </trkpt>
      <trkpt lat="43.5875" lon="6.55404">
        <ele>454.4</ele>
        <time>2023-10-04T13:01:31.000Z</time>
      </trkpt>
      <trkpt lat="43.58749" lon="6.55411">
        <ele>454.7</ele>
        <time>2023-10-04T13:01:42.000Z</time>
      </trkpt>
      <trkpt lat="43.58745" lon="6.55412">
        <ele>455.3</ele>
        <time>2023-10-04T13:01:53.000Z</time>
      </trkpt>
      <trkpt lat="43.5874" lon="6.55408">
        <ele>455.6</ele>
        <time>2023-10-04T13:02:03.000Z</time>
      </trkpt>
      <trkpt lat="43.58736" lon="6.55406">
        <ele>455.7</ele>
        <time>2023-10-04T13:02:06.000Z</time>
      </trkpt>
      <trkpt lat="43.58731" lon="6.55409">
        <ele>455.7</ele>
        <time>2023-10-04T13:02:12.000Z</time>
      </trkpt>
      <trkpt lat="43.58727" lon="6.55413">
        <ele>455.6</ele>
        <time>2023-10-04T13:02:16.000Z</time>
      </trkpt>
      <trkpt lat="43.58725" lon="6.55419">
        <ele>455.3</ele>
        <time>2023-10-04T13:02:30.000Z</time>
      </trkpt>
      <trkpt lat="43.58723" lon="6.55424">
        <ele>454.7</ele>
        <time>2023-10-04T13:02:47.000Z</time>
      </trkpt>
      <trkpt lat="43.58718" lon="6.55427">
        <ele>453.9</ele>
        <time>2023-10-04T13:03:32.000Z</time>
      </trkpt>
      <trkpt lat="43.58722" lon="6.55424">
        <ele>454.4</ele>
        <time>2023-10-04T13:04:22.000Z</time>
      </trkpt>
      <trkpt lat="43.58727" lon="6.55421">
        <ele>454.6</ele>
        <time>2023-10-04T13:05:37.000Z</time>
      </trkpt>
      <trkpt lat="43.58724" lon="6.55427">
        <ele>454.8</ele>
        <time>2023-10-04T13:07:19.000Z</time>
      </trkpt>
      <trkpt lat="43.58728" lon="6.55422">
        <ele>454.9</ele>
        <time>2023-10-04T13:09:09.000Z</time>
      </trkpt>
      <trkpt lat="43.58727" lon="6.55416">
        <ele>455</ele>
        <time>2023-10-04T13:09:27.000Z</time>
      </trkpt>
      <trkpt lat="43.58732" lon="6.55419">
        <ele>455.3</ele>
        <time>2023-10-04T13:10:03.000Z</time>
      </trkpt>
      <trkpt lat="43.58727" lon="6.55416">
        <ele>455.4</ele>
        <time>2023-10-04T13:10:50.000Z</time>
      </trkpt>
      <trkpt lat="43.58727" lon="6.55422">
        <ele>455.4</ele>
        <time>2023-10-04T13:11:06.000Z</time>
      </trkpt>
      <trkpt lat="43.58725" lon="6.55417">
        <ele>455.7</ele>
        <time>2023-10-04T13:12:05.000Z</time>
      </trkpt>
      <trkpt lat="43.58727" lon="6.55412">
        <ele>456</ele>
        <time>2023-10-04T13:13:54.000Z</time>
      </trkpt>
      <trkpt lat="43.58732" lon="6.55408">
        <ele>456</ele>
        <time>2023-10-04T13:14:00.000Z</time>
      </trkpt>
      <trkpt lat="43.58737" lon="6.55406">
        <ele>456</ele>
        <time>2023-10-04T13:14:04.000Z</time>
      </trkpt>
      <trkpt lat="43.58742" lon="6.55407">
        <ele>456</ele>
        <time>2023-10-04T13:14:09.000Z</time>
      </trkpt>
      <trkpt lat="43.58747" lon="6.55405">
        <ele>456.1</ele>
        <time>2023-10-04T13:14:13.000Z</time>
      </trkpt>
      <trkpt lat="43.58751" lon="6.55402">
        <ele>456.3</ele>
        <time>2023-10-04T13:14:18.000Z</time>
      </trkpt>
      <trkpt lat="43.58752" lon="6.55395">
        <ele>456.4</ele>
        <time>2023-10-04T13:14:24.000Z</time>
      </trkpt>
      <trkpt lat="43.58747" lon="6.5539">
        <ele>456.3</ele>
        <time>2023-10-04T13:14:29.000Z</time>
      </trkpt>
      <trkpt lat="43.58743" lon="6.5539">
        <ele>456</ele>
        <time>2023-10-04T13:14:34.000Z</time>
      </trkpt>
      <trkpt lat="43.58738" lon="6.55393">
        <ele>455.6</ele>
        <time>2023-10-04T13:14:39.000Z</time>
      </trkpt>
      <trkpt lat="43.58732" lon="6.55395">
        <ele>455.2</ele>
        <time>2023-10-04T13:14:44.000Z</time>
      </trkpt>
      <trkpt lat="43.58727" lon="6.55397">
        <ele>454.7</ele>
        <time>2023-10-04T13:14:49.000Z</time>
      </trkpt>
      <trkpt lat="43.58723" lon="6.55401">
        <ele>454.4</ele>
        <time>2023-10-04T13:14:53.000Z</time>
      </trkpt>
      <trkpt lat="43.5872" lon="6.55407">
        <ele>454</ele>
        <time>2023-10-04T13:14:58.000Z</time>
      </trkpt>
      <trkpt lat="43.58716" lon="6.5541">
        <ele>453.7</ele>
        <time>2023-10-04T13:15:03.000Z</time>
      </trkpt>
      <trkpt lat="43.58712" lon="6.55415">
        <ele>453.2</ele>
        <time>2023-10-04T13:15:08.000Z</time>
      </trkpt>
      <trkpt lat="43.58709" lon="6.55421">
        <ele>452.7</ele>
        <time>2023-10-04T13:15:13.000Z</time>
      </trkpt>
      <trkpt lat="43.58706" lon="6.55426">
        <ele>452.3</ele>
        <time>2023-10-04T13:15:17.000Z</time>
      </trkpt>
      <trkpt lat="43.58702" lon="6.55432">
        <ele>451.8</ele>
        <time>2023-10-04T13:15:22.000Z</time>
      </trkpt>
      <trkpt lat="43.58699" lon="6.55437">
        <ele>451.4</ele>
        <time>2023-10-04T13:15:26.000Z</time>
      </trkpt>
      <trkpt lat="43.58695" lon="6.55443">
        <ele>450.9</ele>
        <time>2023-10-04T13:15:31.000Z</time>
      </trkpt>
      <trkpt lat="43.58692" lon="6.55448">
        <ele>450.4</ele>
        <time>2023-10-04T13:15:35.000Z</time>
      </trkpt>
      <trkpt lat="43.58691" lon="6.55454">
        <ele>449.7</ele>
        <time>2023-10-04T13:15:39.000Z</time>
      </trkpt>
      <trkpt lat="43.58689" lon="6.55461">
        <ele>449</ele>
        <time>2023-10-04T13:15:44.000Z</time>
      </trkpt>
      <trkpt lat="43.58688" lon="6.55467">
        <ele>448.4</ele>
        <time>2023-10-04T13:15:49.000Z</time>
      </trkpt>
      <trkpt lat="43.58688" lon="6.55475">
        <ele>447.5</ele>
        <time>2023-10-04T13:15:54.000Z</time>
      </trkpt>
      <trkpt lat="43.58689" lon="6.55481">
        <ele>446.9</ele>
        <time>2023-10-04T13:15:58.000Z</time>
      </trkpt>
      <trkpt lat="43.58691" lon="6.55488">
        <ele>446.3</ele>
        <time>2023-10-04T13:16:02.000Z</time>
      </trkpt>
      <trkpt lat="43.58692" lon="6.55494">
        <ele>445.8</ele>
        <time>2023-10-04T13:16:06.000Z</time>
      </trkpt>
      <trkpt lat="43.58692" lon="6.55501">
        <ele>445.1</ele>
        <time>2023-10-04T13:16:11.000Z</time>
      </trkpt>
      <trkpt lat="43.58694" lon="6.55507">
        <ele>444.5</ele>
        <time>2023-10-04T13:16:16.000Z</time>
      </trkpt>
      <trkpt lat="43.58696" lon="6.55513">
        <ele>444</ele>
        <time>2023-10-04T13:16:21.000Z</time>
      </trkpt>
      <trkpt lat="43.58699" lon="6.55519">
        <ele>443.6</ele>
        <time>2023-10-04T13:16:25.000Z</time>
      </trkpt>
      <trkpt lat="43.587" lon="6.55524">
        <ele>443.1</ele>
        <time>2023-10-04T13:16:29.000Z</time>
      </trkpt>
      <trkpt lat="43.58703" lon="6.55529">
        <ele>442.7</ele>
        <time>2023-10-04T13:16:33.000Z</time>
      </trkpt>
      <trkpt lat="43.58705" lon="6.55536">
        <ele>442.1</ele>
        <time>2023-10-04T13:16:37.000Z</time>
      </trkpt>
      <trkpt lat="43.58709" lon="6.55543">
        <ele>441.4</ele>
        <time>2023-10-04T13:16:42.000Z</time>
      </trkpt>
      <trkpt lat="43.58712" lon="6.55548">
        <ele>440.9</ele>
        <time>2023-10-04T13:16:46.000Z</time>
      </trkpt>
      <trkpt lat="43.58715" lon="6.55553">
        <ele>440.6</ele>
        <time>2023-10-04T13:16:49.000Z</time>
      </trkpt>
      <trkpt lat="43.58718" lon="6.55559">
        <ele>440.2</ele>
        <time>2023-10-04T13:16:53.000Z</time>
      </trkpt>
      <trkpt lat="43.58721" lon="6.55565">
        <ele>439.6</ele>
        <time>2023-10-04T13:16:57.000Z</time>
      </trkpt>
      <trkpt lat="43.58725" lon="6.55571">
        <ele>439.1</ele>
        <time>2023-10-04T13:17:01.000Z</time>
      </trkpt>
      <trkpt lat="43.58727" lon="6.55576">
        <ele>438.7</ele>
        <time>2023-10-04T13:17:05.000Z</time>
      </trkpt>
      <trkpt lat="43.58729" lon="6.55582">
        <ele>438.1</ele>
        <time>2023-10-04T13:17:09.000Z</time>
      </trkpt>
      <trkpt lat="43.58731" lon="6.55589">
        <ele>437.3</ele>
        <time>2023-10-04T13:17:14.000Z</time>
      </trkpt>
      <trkpt lat="43.58733" lon="6.55596">
        <ele>436.4</ele>
        <time>2023-10-04T13:17:19.000Z</time>
      </trkpt>
      <trkpt lat="43.58735" lon="6.55603">
        <ele>435.6</ele>
        <time>2023-10-04T13:17:24.000Z</time>
      </trkpt>
      <trkpt lat="43.58738" lon="6.5561">
        <ele>435</ele>
        <time>2023-10-04T13:17:29.000Z</time>
      </trkpt>
      <trkpt lat="43.58738" lon="6.55617">
        <ele>434.4</ele>
        <time>2023-10-04T13:17:34.000Z</time>
      </trkpt>
      <trkpt lat="43.5874" lon="6.55624">
        <ele>433.7</ele>
        <time>2023-10-04T13:17:38.000Z</time>
      </trkpt>
      <trkpt lat="43.58744" lon="6.55629">
        <ele>433.1</ele>
        <time>2023-10-04T13:17:42.000Z</time>
      </trkpt>
      <trkpt lat="43.58748" lon="6.55633">
        <ele>432.5</ele>
        <time>2023-10-04T13:17:48.000Z</time>
      </trkpt>
      <trkpt lat="43.58752" lon="6.55636">
        <ele>432</ele>
        <time>2023-10-04T13:17:52.000Z</time>
      </trkpt>
      <trkpt lat="43.58757" lon="6.55638">
        <ele>431.7</ele>
        <time>2023-10-04T13:17:56.000Z</time>
      </trkpt>
      <trkpt lat="43.58762" lon="6.55639">
        <ele>431.3</ele>
        <time>2023-10-04T13:18:00.000Z</time>
      </trkpt>
      <trkpt lat="43.58767" lon="6.55641">
        <ele>430.8</ele>
        <time>2023-10-04T13:18:05.000Z</time>
      </trkpt>
      <trkpt lat="43.58772" lon="6.55642">
        <ele>430.4</ele>
        <time>2023-10-04T13:18:09.000Z</time>
      </trkpt>
      <trkpt lat="43.58777" lon="6.55643">
        <ele>429.6</ele>
        <time>2023-10-04T13:18:14.000Z</time>
      </trkpt>
      <trkpt lat="43.58782" lon="6.55645">
        <ele>428.9</ele>
        <time>2023-10-04T13:18:18.000Z</time>
      </trkpt>
      <trkpt lat="43.58786" lon="6.55647">
        <ele>428</ele>
        <time>2023-10-04T13:18:23.000Z</time>
      </trkpt>
      <trkpt lat="43.58791" lon="6.55649">
        <ele>427</ele>
        <time>2023-10-04T13:18:28.000Z</time>
      </trkpt>
      <trkpt lat="43.58796" lon="6.55652">
        <ele>426.1</ele>
        <time>2023-10-04T13:18:33.000Z</time>
      </trkpt>
      <trkpt lat="43.58801" lon="6.55654">
        <ele>425.1</ele>
        <time>2023-10-04T13:18:38.000Z</time>
      </trkpt>
      <trkpt lat="43.58806" lon="6.55656">
        <ele>424</ele>
        <time>2023-10-04T13:18:43.000Z</time>
      </trkpt>
      <trkpt lat="43.5881" lon="6.55659">
        <ele>423.3</ele>
        <time>2023-10-04T13:18:47.000Z</time>
      </trkpt>
      <trkpt lat="43.58813" lon="6.55663">
        <ele>422.6</ele>
        <time>2023-10-04T13:18:51.000Z</time>
      </trkpt>
      <trkpt lat="43.58818" lon="6.55667">
        <ele>422</ele>
        <time>2023-10-04T13:18:55.000Z</time>
      </trkpt>
      <trkpt lat="43.58821" lon="6.55673">
        <ele>421.2</ele>
        <time>2023-10-04T13:19:00.000Z</time>
      </trkpt>
      <trkpt lat="43.58825" lon="6.55679">
        <ele>420.5</ele>
        <time>2023-10-04T13:19:04.000Z</time>
      </trkpt>
      <trkpt lat="43.58828" lon="6.55684">
        <ele>419.7</ele>
        <time>2023-10-04T13:19:09.000Z</time>
      </trkpt>
      <trkpt lat="43.58832" lon="6.55688">
        <ele>419.2</ele>
        <time>2023-10-04T13:19:13.000Z</time>
      </trkpt>
      <trkpt lat="43.58835" lon="6.55692">
        <ele>418.4</ele>
        <time>2023-10-04T13:19:18.000Z</time>
      </trkpt>
      <trkpt lat="43.58837" lon="6.55698">
        <ele>417.5</ele>
        <time>2023-10-04T13:19:23.000Z</time>
      </trkpt>
      <trkpt lat="43.5884" lon="6.55703">
        <ele>416.6</ele>
        <time>2023-10-04T13:19:28.000Z</time>
      </trkpt>
      <trkpt lat="43.58843" lon="6.5571">
        <ele>415.9</ele>
        <time>2023-10-04T13:19:33.000Z</time>
      </trkpt>
      <trkpt lat="43.58845" lon="6.55716">
        <ele>415.4</ele>
        <time>2023-10-04T13:19:37.000Z</time>
      </trkpt>
      <trkpt lat="43.58847" lon="6.55723">
        <ele>414.8</ele>
        <time>2023-10-04T13:19:42.000Z</time>
      </trkpt>
      <trkpt lat="43.58848" lon="6.55729">
        <ele>414.1</ele>
        <time>2023-10-04T13:19:46.000Z</time>
      </trkpt>
      <trkpt lat="43.58851" lon="6.55736">
        <ele>413.4</ele>
        <time>2023-10-04T13:19:50.000Z</time>
      </trkpt>
      <trkpt lat="43.58854" lon="6.55741">
        <ele>412.7</ele>
        <time>2023-10-04T13:19:54.000Z</time>
      </trkpt>
      <trkpt lat="43.58857" lon="6.55747">
        <ele>412.1</ele>
        <time>2023-10-04T13:19:58.000Z</time>
      </trkpt>
      <trkpt lat="43.5886" lon="6.55751">
        <ele>411.5</ele>
        <time>2023-10-04T13:20:01.000Z</time>
      </trkpt>
      <trkpt lat="43.58863" lon="6.55759">
        <ele>410.8</ele>
        <time>2023-10-04T13:20:05.000Z</time>
      </trkpt>
      <trkpt lat="43.58865" lon="6.55765">
        <ele>410.3</ele>
        <time>2023-10-04T13:20:09.000Z</time>
      </trkpt>
      <trkpt lat="43.58866" lon="6.55772">
        <ele>410</ele>
        <time>2023-10-04T13:20:13.000Z</time>
      </trkpt>
      <trkpt lat="43.58867" lon="6.55778">
        <ele>409.8</ele>
        <time>2023-10-04T13:20:17.000Z</time>
      </trkpt>
      <trkpt lat="43.58868" lon="6.55785">
        <ele>409.7</ele>
        <time>2023-10-04T13:20:22.000Z</time>
      </trkpt>
      <trkpt lat="43.58868" lon="6.55793">
        <ele>409.9</ele>
        <time>2023-10-04T13:20:27.000Z</time>
      </trkpt>
      <trkpt lat="43.58868" lon="6.55801">
        <ele>410</ele>
        <time>2023-10-04T13:20:32.000Z</time>
      </trkpt>
      <trkpt lat="43.58865" lon="6.55808">
        <ele>410</ele>
        <time>2023-10-04T13:20:37.000Z</time>
      </trkpt>
      <trkpt lat="43.58863" lon="6.55815">
        <ele>410.1</ele>
        <time>2023-10-04T13:20:41.000Z</time>
      </trkpt>
      <trkpt lat="43.58861" lon="6.5582">
        <ele>410.1</ele>
        <time>2023-10-04T13:20:44.000Z</time>
      </trkpt>
      <trkpt lat="43.58859" lon="6.55827">
        <ele>410.1</ele>
        <time>2023-10-04T13:20:47.000Z</time>
      </trkpt>
      <trkpt lat="43.58855" lon="6.55834">
        <ele>410.2</ele>
        <time>2023-10-04T13:20:51.000Z</time>
      </trkpt>
      <trkpt lat="43.58853" lon="6.5584">
        <ele>410.2</ele>
        <time>2023-10-04T13:20:55.000Z</time>
      </trkpt>
      <trkpt lat="43.5885" lon="6.55846">
        <ele>410.2</ele>
        <time>2023-10-04T13:20:59.000Z</time>
      </trkpt>
      <trkpt lat="43.58848" lon="6.55852">
        <ele>410.3</ele>
        <time>2023-10-04T13:21:03.000Z</time>
      </trkpt>
      <trkpt lat="43.58846" lon="6.55858">
        <ele>410.4</ele>
        <time>2023-10-04T13:21:07.000Z</time>
      </trkpt>
      <trkpt lat="43.58844" lon="6.55865">
        <ele>410.7</ele>
        <time>2023-10-04T13:21:12.000Z</time>
      </trkpt>
      <trkpt lat="43.58842" lon="6.55873">
        <ele>411</ele>
        <time>2023-10-04T13:21:17.000Z</time>
      </trkpt>
      <trkpt lat="43.58841" lon="6.55879">
        <ele>411.2</ele>
        <time>2023-10-04T13:21:21.000Z</time>
      </trkpt>
      <trkpt lat="43.5884" lon="6.55885">
        <ele>411.5</ele>
        <time>2023-10-04T13:21:25.000Z</time>
      </trkpt>
      <trkpt lat="43.58839" lon="6.55891">
        <ele>411.7</ele>
        <time>2023-10-04T13:21:29.000Z</time>
      </trkpt>
      <trkpt lat="43.58838" lon="6.55898">
        <ele>411.9</ele>
        <time>2023-10-04T13:21:34.000Z</time>
      </trkpt>
      <trkpt lat="43.58836" lon="6.55906">
        <ele>412.1</ele>
        <time>2023-10-04T13:21:39.000Z</time>
      </trkpt>
      <trkpt lat="43.58837" lon="6.55912">
        <ele>412.4</ele>
        <time>2023-10-04T13:21:43.000Z</time>
      </trkpt>
      <trkpt lat="43.58835" lon="6.5592">
        <ele>412.7</ele>
        <time>2023-10-04T13:21:48.000Z</time>
      </trkpt>
      <trkpt lat="43.58835" lon="6.55926">
        <ele>412.8</ele>
        <time>2023-10-04T13:21:52.000Z</time>
      </trkpt>
      <trkpt lat="43.58834" lon="6.55933">
        <ele>413</ele>
        <time>2023-10-04T13:21:56.000Z</time>
      </trkpt>
      <trkpt lat="43.58832" lon="6.55939">
        <ele>413.2</ele>
        <time>2023-10-04T13:22:00.000Z</time>
      </trkpt>
      <trkpt lat="43.58832" lon="6.55946">
        <ele>413.4</ele>
        <time>2023-10-04T13:22:04.000Z</time>
      </trkpt>
      <trkpt lat="43.58831" lon="6.55953">
        <ele>413.5</ele>
        <time>2023-10-04T13:22:08.000Z</time>
      </trkpt>
      <trkpt lat="43.58831" lon="6.5596">
        <ele>413.7</ele>
        <time>2023-10-04T13:22:13.000Z</time>
      </trkpt>
      <trkpt lat="43.58829" lon="6.55967">
        <ele>413.8</ele>
        <time>2023-10-04T13:22:18.000Z</time>
      </trkpt>
      <trkpt lat="43.58828" lon="6.55973">
        <ele>413.8</ele>
        <time>2023-10-04T13:22:22.000Z</time>
      </trkpt>
      <trkpt lat="43.58827" lon="6.55979">
        <ele>413.9</ele>
        <time>2023-10-04T13:22:26.000Z</time>
      </trkpt>
      <trkpt lat="43.58826" lon="6.55986">
        <ele>414.1</ele>
        <time>2023-10-04T13:22:30.000Z</time>
      </trkpt>
      <trkpt lat="43.58825" lon="6.55993">
        <ele>414.2</ele>
        <time>2023-10-04T13:22:34.000Z</time>
      </trkpt>
      <trkpt lat="43.58824" lon="6.55999">
        <ele>414.4</ele>
        <time>2023-10-04T13:22:38.000Z</time>
      </trkpt>
      <trkpt lat="43.58823" lon="6.56007">
        <ele>414.7</ele>
        <time>2023-10-04T13:22:43.000Z</time>
      </trkpt>
      <trkpt lat="43.58822" lon="6.56014">
        <ele>415.1</ele>
        <time>2023-10-04T13:22:48.000Z</time>
      </trkpt>
      <trkpt lat="43.58821" lon="6.5602">
        <ele>415.3</ele>
        <time>2023-10-04T13:22:52.000Z</time>
      </trkpt>
      <trkpt lat="43.58819" lon="6.56026">
        <ele>415.6</ele>
        <time>2023-10-04T13:22:56.000Z</time>
      </trkpt>
      <trkpt lat="43.58817" lon="6.56032">
        <ele>415.9</ele>
        <time>2023-10-04T13:23:01.000Z</time>
      </trkpt>
      <trkpt lat="43.58816" lon="6.56038">
        <ele>416.3</ele>
        <time>2023-10-04T13:23:06.000Z</time>
      </trkpt>
      <trkpt lat="43.58814" lon="6.56044">
        <ele>416.6</ele>
        <time>2023-10-04T13:23:10.000Z</time>
      </trkpt>
      <trkpt lat="43.58814" lon="6.56051">
        <ele>416.8</ele>
        <time>2023-10-04T13:23:14.000Z</time>
      </trkpt>
      <trkpt lat="43.58812" lon="6.56057">
        <ele>417</ele>
        <time>2023-10-04T13:23:18.000Z</time>
      </trkpt>
      <trkpt lat="43.5881" lon="6.56064">
        <ele>417.3</ele>
        <time>2023-10-04T13:23:23.000Z</time>
      </trkpt>
      <trkpt lat="43.58809" lon="6.5607">
        <ele>417.6</ele>
        <time>2023-10-04T13:23:27.000Z</time>
      </trkpt>
      <trkpt lat="43.58807" lon="6.56077">
        <ele>417.9</ele>
        <time>2023-10-04T13:23:32.000Z</time>
      </trkpt>
      <trkpt lat="43.58807" lon="6.56083">
        <ele>418.1</ele>
        <time>2023-10-04T13:23:36.000Z</time>
      </trkpt>
      <trkpt lat="43.58804" lon="6.56089">
        <ele>418.5</ele>
        <time>2023-10-04T13:23:40.000Z</time>
      </trkpt>
      <trkpt lat="43.588" lon="6.56094">
        <ele>418.9</ele>
        <time>2023-10-04T13:23:44.000Z</time>
      </trkpt>
      <trkpt lat="43.58796" lon="6.56097">
        <ele>419.2</ele>
        <time>2023-10-04T13:23:48.000Z</time>
      </trkpt>
      <trkpt lat="43.58792" lon="6.56102">
        <ele>419.4</ele>
        <time>2023-10-04T13:23:52.000Z</time>
      </trkpt>
      <trkpt lat="43.58789" lon="6.56107">
        <ele>419.5</ele>
        <time>2023-10-04T13:23:56.000Z</time>
      </trkpt>
      <trkpt lat="43.58785" lon="6.56112">
        <ele>419.7</ele>
        <time>2023-10-04T13:24:00.000Z</time>
      </trkpt>
      <trkpt lat="43.58781" lon="6.56116">
        <ele>419.9</ele>
        <time>2023-10-04T13:24:04.000Z</time>
      </trkpt>
      <trkpt lat="43.58778" lon="6.56121">
        <ele>420.1</ele>
        <time>2023-10-04T13:24:08.000Z</time>
      </trkpt>
      <trkpt lat="43.58774" lon="6.56126">
        <ele>420.2</ele>
        <time>2023-10-04T13:24:12.000Z</time>
      </trkpt>
      <trkpt lat="43.5877" lon="6.56131">
        <ele>420.4</ele>
        <time>2023-10-04T13:24:16.000Z</time>
      </trkpt>
      <trkpt lat="43.58767" lon="6.56135">
        <ele>420.6</ele>
        <time>2023-10-04T13:24:20.000Z</time>
      </trkpt>
      <trkpt lat="43.58764" lon="6.5614">
        <ele>420.8</ele>
        <time>2023-10-04T13:24:24.000Z</time>
      </trkpt>
      <trkpt lat="43.58761" lon="6.56146">
        <ele>421</ele>
        <time>2023-10-04T13:24:28.000Z</time>
      </trkpt>
      <trkpt lat="43.58761" lon="6.56153">
        <ele>421.2</ele>
        <time>2023-10-04T13:24:33.000Z</time>
      </trkpt>
      <trkpt lat="43.58761" lon="6.5616">
        <ele>421.3</ele>
        <time>2023-10-04T13:24:37.000Z</time>
      </trkpt>
      <trkpt lat="43.58761" lon="6.56168">
        <ele>421.4</ele>
        <time>2023-10-04T13:24:41.000Z</time>
      </trkpt>
      <trkpt lat="43.58762" lon="6.56174">
        <ele>421.6</ele>
        <time>2023-10-04T13:24:45.000Z</time>
      </trkpt>
      <trkpt lat="43.58762" lon="6.56181">
        <ele>421.9</ele>
        <time>2023-10-04T13:24:50.000Z</time>
      </trkpt>
      <trkpt lat="43.58762" lon="6.56188">
        <ele>422.1</ele>
        <time>2023-10-04T13:24:57.000Z</time>
      </trkpt>
      <trkpt lat="43.58765" lon="6.56192">
        <ele>423.3</ele>
        <time>2023-10-04T13:25:42.000Z</time>
      </trkpt>
      <trkpt lat="43.58761" lon="6.5619">
        <ele>423.1</ele>
        <time>2023-10-04T13:26:23.000Z</time>
      </trkpt>
      <trkpt lat="43.58765" lon="6.56192">
        <ele>423</ele>
        <time>2023-10-04T13:26:57.000Z</time>
      </trkpt>
      <trkpt lat="43.58761" lon="6.56188">
        <ele>423.1</ele>
        <time>2023-10-04T13:27:12.000Z</time>
      </trkpt>
      <trkpt lat="43.58757" lon="6.56185">
        <ele>423.2</ele>
        <time>2023-10-04T13:27:18.000Z</time>
      </trkpt>
      <trkpt lat="43.58753" lon="6.56182">
        <ele>423.6</ele>
        <time>2023-10-04T13:27:24.000Z</time>
      </trkpt>
      <trkpt lat="43.58749" lon="6.56179">
        <ele>424.2</ele>
        <time>2023-10-04T13:27:30.000Z</time>
      </trkpt>
      <trkpt lat="43.58745" lon="6.56175">
        <ele>424.9</ele>
        <time>2023-10-04T13:27:36.000Z</time>
      </trkpt>
      <trkpt lat="43.5874" lon="6.56171">
        <ele>425.8</ele>
        <time>2023-10-04T13:27:42.000Z</time>
      </trkpt>
      <trkpt lat="43.58736" lon="6.56169">
        <ele>426.6</ele>
        <time>2023-10-04T13:27:48.000Z</time>
      </trkpt>
      <trkpt lat="43.58731" lon="6.56167">
        <ele>427.3</ele>
        <time>2023-10-04T13:27:53.000Z</time>
      </trkpt>
      <trkpt lat="43.58727" lon="6.56166">
        <ele>427.9</ele>
        <time>2023-10-04T13:27:59.000Z</time>
      </trkpt>
      <trkpt lat="43.58722" lon="6.56166">
        <ele>428.5</ele>
        <time>2023-10-04T13:28:05.000Z</time>
      </trkpt>
      <trkpt lat="43.58716" lon="6.56165">
        <ele>429.1</ele>
        <time>2023-10-04T13:28:10.000Z</time>
      </trkpt>
      <trkpt lat="43.58712" lon="6.56165">
        <ele>429.5</ele>
        <time>2023-10-04T13:28:14.000Z</time>
      </trkpt>
      <trkpt lat="43.58707" lon="6.56165">
        <ele>429.8</ele>
        <time>2023-10-04T13:28:18.000Z</time>
      </trkpt>
      <trkpt lat="43.58702" lon="6.56164">
        <ele>430.1</ele>
        <time>2023-10-04T13:28:22.000Z</time>
      </trkpt>
      <trkpt lat="43.58697" lon="6.56163">
        <ele>430.3</ele>
        <time>2023-10-04T13:28:26.000Z</time>
      </trkpt>
      <trkpt lat="43.58692" lon="6.56162">
        <ele>430.5</ele>
        <time>2023-10-04T13:28:30.000Z</time>
      </trkpt>
      <trkpt lat="43.58687" lon="6.56162">
        <ele>430.5</ele>
        <time>2023-10-04T13:28:34.000Z</time>
      </trkpt>
      <trkpt lat="43.58682" lon="6.56163">
        <ele>430.4</ele>
        <time>2023-10-04T13:28:39.000Z</time>
      </trkpt>
      <trkpt lat="43.58677" lon="6.56164">
        <ele>430.3</ele>
        <time>2023-10-04T13:28:44.000Z</time>
      </trkpt>
      <trkpt lat="43.58672" lon="6.56166">
        <ele>430.2</ele>
        <time>2023-10-04T13:28:49.000Z</time>
      </trkpt>
      <trkpt lat="43.58666" lon="6.56166">
        <ele>429.7</ele>
        <time>2023-10-04T13:28:55.000Z</time>
      </trkpt>
      <trkpt lat="43.58662" lon="6.56166">
        <ele>429.2</ele>
        <time>2023-10-04T13:29:00.000Z</time>
      </trkpt>
      <trkpt lat="43.58657" lon="6.56167">
        <ele>428.6</ele>
        <time>2023-10-04T13:29:04.000Z</time>
      </trkpt>
      <trkpt lat="43.58652" lon="6.56166">
        <ele>428</ele>
        <time>2023-10-04T13:29:09.000Z</time>
      </trkpt>
      <trkpt lat="43.58647" lon="6.56167">
        <ele>427.2</ele>
        <time>2023-10-04T13:29:15.000Z</time>
      </trkpt>
      <trkpt lat="43.58642" lon="6.56167">
        <ele>426.6</ele>
        <time>2023-10-04T13:29:20.000Z</time>
      </trkpt>
      <trkpt lat="43.58638" lon="6.56167">
        <ele>425.6</ele>
        <time>2023-10-04T13:29:27.000Z</time>
      </trkpt>
      <trkpt lat="43.58633" lon="6.56166">
        <ele>424</ele>
        <time>2023-10-04T13:29:35.000Z</time>
      </trkpt>
      <trkpt lat="43.58628" lon="6.56164">
        <ele>423</ele>
        <time>2023-10-04T13:29:42.000Z</time>
      </trkpt>
      <trkpt lat="43.58624" lon="6.56161">
        <ele>421.8</ele>
        <time>2023-10-04T13:29:51.000Z</time>
      </trkpt>
      <trkpt lat="43.5862" lon="6.56159">
        <ele>420.8</ele>
        <time>2023-10-04T13:29:59.000Z</time>
      </trkpt>
      <trkpt lat="43.58615" lon="6.56158">
        <ele>420</ele>
        <time>2023-10-04T13:30:06.000Z</time>
      </trkpt>
      <trkpt lat="43.5861" lon="6.56156">
        <ele>418.4</ele>
        <time>2023-10-04T13:30:16.000Z</time>
      </trkpt>
      <trkpt lat="43.58605" lon="6.56155">
        <ele>417.1</ele>
        <time>2023-10-04T13:30:25.000Z</time>
      </trkpt>
      <trkpt lat="43.586" lon="6.56155">
        <ele>415.5</ele>
        <time>2023-10-04T13:30:35.000Z</time>
      </trkpt>
      <trkpt lat="43.58596" lon="6.56154">
        <ele>414.4</ele>
        <time>2023-10-04T13:30:41.000Z</time>
      </trkpt>
      <trkpt lat="43.58591" lon="6.56153">
        <ele>413.5</ele>
        <time>2023-10-04T13:30:47.000Z</time>
      </trkpt>
      <trkpt lat="43.58586" lon="6.56152">
        <ele>412.3</ele>
        <time>2023-10-04T13:30:55.000Z</time>
      </trkpt>
      <trkpt lat="43.58581" lon="6.56154">
        <ele>410.9</ele>
        <time>2023-10-04T13:31:04.000Z</time>
      </trkpt>
      <trkpt lat="43.58576" lon="6.56157">
        <ele>410</ele>
        <time>2023-10-04T13:31:10.000Z</time>
      </trkpt>
      <trkpt lat="43.58571" lon="6.56159">
        <ele>409</ele>
        <time>2023-10-04T13:31:16.000Z</time>
      </trkpt>
      <trkpt lat="43.58567" lon="6.5616">
        <ele>407.7</ele>
        <time>2023-10-04T13:31:24.000Z</time>
      </trkpt>
      <trkpt lat="43.58562" lon="6.56162">
        <ele>406.4</ele>
        <time>2023-10-04T13:31:31.000Z</time>
      </trkpt>
      <trkpt lat="43.58558" lon="6.56165">
        <ele>404.9</ele>
        <time>2023-10-04T13:31:40.000Z</time>
      </trkpt>
      <trkpt lat="43.58553" lon="6.56166">
        <ele>403.6</ele>
        <time>2023-10-04T13:31:48.000Z</time>
      </trkpt>
      <trkpt lat="43.58547" lon="6.56166">
        <ele>402.5</ele>
        <time>2023-10-04T13:31:54.000Z</time>
      </trkpt>
      <trkpt lat="43.58543" lon="6.56169">
        <ele>401.2</ele>
        <time>2023-10-04T13:32:01.000Z</time>
      </trkpt>
      <trkpt lat="43.58538" lon="6.56171">
        <ele>400.3</ele>
        <time>2023-10-04T13:32:07.000Z</time>
      </trkpt>
      <trkpt lat="43.58533" lon="6.56173">
        <ele>399.4</ele>
        <time>2023-10-04T13:32:14.000Z</time>
      </trkpt>
      <trkpt lat="43.58529" lon="6.56174">
        <ele>398.3</ele>
        <time>2023-10-04T13:32:21.000Z</time>
      </trkpt>
      <trkpt lat="43.58524" lon="6.56178">
        <ele>397.2</ele>
        <time>2023-10-04T13:32:28.000Z</time>
      </trkpt>
      <trkpt lat="43.5852" lon="6.56179">
        <ele>395.6</ele>
        <time>2023-10-04T13:32:37.000Z</time>
      </trkpt>
      <trkpt lat="43.58516" lon="6.56183">
        <ele>394.2</ele>
        <time>2023-10-04T13:32:45.000Z</time>
      </trkpt>
      <trkpt lat="43.58511" lon="6.56182">
        <ele>392.8</ele>
        <time>2023-10-04T13:32:52.000Z</time>
      </trkpt>
      <trkpt lat="43.58506" lon="6.56183">
        <ele>391.5</ele>
        <time>2023-10-04T13:32:59.000Z</time>
      </trkpt>
      <trkpt lat="43.58501" lon="6.56183">
        <ele>390.5</ele>
        <time>2023-10-04T13:33:05.000Z</time>
      </trkpt>
      <trkpt lat="43.58497" lon="6.56186">
        <ele>389.6</ele>
        <time>2023-10-04T13:33:11.000Z</time>
      </trkpt>
      <trkpt lat="43.58492" lon="6.56188">
        <ele>388.5</ele>
        <time>2023-10-04T13:33:20.000Z</time>
      </trkpt>
      <trkpt lat="43.58487" lon="6.56189">
        <ele>387.9</ele>
        <time>2023-10-04T13:33:27.000Z</time>
      </trkpt>
      <trkpt lat="43.58482" lon="6.5619">
        <ele>387.5</ele>
        <time>2023-10-04T13:33:32.000Z</time>
      </trkpt>
      <trkpt lat="43.58477" lon="6.56192">
        <ele>387</ele>
        <time>2023-10-04T13:33:37.000Z</time>
      </trkpt>
      <trkpt lat="43.58473" lon="6.56195">
        <ele>386.5</ele>
        <time>2023-10-04T13:33:43.000Z</time>
      </trkpt>
      <trkpt lat="43.58468" lon="6.56197">
        <ele>385.8</ele>
        <time>2023-10-04T13:33:49.000Z</time>
      </trkpt>
      <trkpt lat="43.58463" lon="6.56197">
        <ele>385.1</ele>
        <time>2023-10-04T13:33:55.000Z</time>
      </trkpt>
      <trkpt lat="43.58458" lon="6.56196">
        <ele>384.4</ele>
        <time>2023-10-04T13:34:00.000Z</time>
      </trkpt>
      <trkpt lat="43.58454" lon="6.56196">
        <ele>383.5</ele>
        <time>2023-10-04T13:34:06.000Z</time>
      </trkpt>
      <trkpt lat="43.58448" lon="6.56196">
        <ele>382.5</ele>
        <time>2023-10-04T13:34:13.000Z</time>
      </trkpt>
      <trkpt lat="43.58443" lon="6.56193">
        <ele>381.5</ele>
        <time>2023-10-04T13:34:20.000Z</time>
      </trkpt>
      <trkpt lat="43.58438" lon="6.5619">
        <ele>380.7</ele>
        <time>2023-10-04T13:34:25.000Z</time>
      </trkpt>
      <trkpt lat="43.58434" lon="6.56188">
        <ele>380.1</ele>
        <time>2023-10-04T13:34:29.000Z</time>
      </trkpt>
      <trkpt lat="43.58428" lon="6.56186">
        <ele>379.2</ele>
        <time>2023-10-04T13:34:34.000Z</time>
      </trkpt>
      <trkpt lat="43.58423" lon="6.56184">
        <ele>378.5</ele>
        <time>2023-10-04T13:34:39.000Z</time>
      </trkpt>
      <trkpt lat="43.58419" lon="6.56182">
        <ele>377.6</ele>
        <time>2023-10-04T13:34:44.000Z</time>
      </trkpt>
      <trkpt lat="43.58413" lon="6.56181">
        <ele>376.9</ele>
        <time>2023-10-04T13:34:49.000Z</time>
      </trkpt>
      <trkpt lat="43.58409" lon="6.5618">
        <ele>376.5</ele>
        <time>2023-10-04T13:34:53.000Z</time>
      </trkpt>
      <trkpt lat="43.58404" lon="6.5618">
        <ele>375.9</ele>
        <time>2023-10-04T13:34:57.000Z</time>
      </trkpt>
      <trkpt lat="43.58399" lon="6.5618">
        <ele>375.3</ele>
        <time>2023-10-04T13:35:02.000Z</time>
      </trkpt>
      <trkpt lat="43.58394" lon="6.56179">
        <ele>374.6</ele>
        <time>2023-10-04T13:35:06.000Z</time>
      </trkpt>
      <trkpt lat="43.58389" lon="6.5618">
        <ele>374</ele>
        <time>2023-10-04T13:35:10.000Z</time>
      </trkpt>
      <trkpt lat="43.58384" lon="6.56181">
        <ele>373.5</ele>
        <time>2023-10-04T13:35:14.000Z</time>
      </trkpt>
      <trkpt lat="43.58379" lon="6.56183">
        <ele>373.1</ele>
        <time>2023-10-04T13:35:18.000Z</time>
      </trkpt>
      <trkpt lat="43.58375" lon="6.56185">
        <ele>372.7</ele>
        <time>2023-10-04T13:35:22.000Z</time>
      </trkpt>
      <trkpt lat="43.5837" lon="6.56186">
        <ele>372.2</ele>
        <time>2023-10-04T13:35:26.000Z</time>
      </trkpt>
      <trkpt lat="43.58364" lon="6.56188">
        <ele>371.8</ele>
        <time>2023-10-04T13:35:30.000Z</time>
      </trkpt>
      <trkpt lat="43.58359" lon="6.56188">
        <ele>371.4</ele>
        <time>2023-10-04T13:35:34.000Z</time>
      </trkpt>
      <trkpt lat="43.58353" lon="6.56189">
        <ele>370.8</ele>
        <time>2023-10-04T13:35:38.000Z</time>
      </trkpt>
      <trkpt lat="43.58348" lon="6.56188">
        <ele>370.2</ele>
        <time>2023-10-04T13:35:42.000Z</time>
      </trkpt>
      <trkpt lat="43.58343" lon="6.56188">
        <ele>369.7</ele>
        <time>2023-10-04T13:35:46.000Z</time>
      </trkpt>
      <trkpt lat="43.58338" lon="6.56187">
        <ele>369</ele>
        <time>2023-10-04T13:35:51.000Z</time>
      </trkpt>
      <trkpt lat="43.58333" lon="6.56188">
        <ele>368.4</ele>
        <time>2023-10-04T13:35:55.000Z</time>
      </trkpt>
      <trkpt lat="43.58328" lon="6.56189">
        <ele>367.8</ele>
        <time>2023-10-04T13:35:59.000Z</time>
      </trkpt>
      <trkpt lat="43.58324" lon="6.56189">
        <ele>367.3</ele>
        <time>2023-10-04T13:36:03.000Z</time>
      </trkpt>
      <trkpt lat="43.58319" lon="6.5619">
        <ele>366.8</ele>
        <time>2023-10-04T13:36:07.000Z</time>
      </trkpt>
      <trkpt lat="43.58314" lon="6.56192">
        <ele>366.3</ele>
        <time>2023-10-04T13:36:11.000Z</time>
      </trkpt>
      <trkpt lat="43.58309" lon="6.56195">
        <ele>365.8</ele>
        <time>2023-10-04T13:36:15.000Z</time>
      </trkpt>
      <trkpt lat="43.58305" lon="6.56197">
        <ele>365.2</ele>
        <time>2023-10-04T13:36:19.000Z</time>
      </trkpt>
      <trkpt lat="43.58301" lon="6.562">
        <ele>364.3</ele>
        <time>2023-10-04T13:36:25.000Z</time>
      </trkpt>
      <trkpt lat="43.58297" lon="6.56203">
        <ele>362.5</ele>
        <time>2023-10-04T13:37:07.000Z</time>
      </trkpt>
      <trkpt lat="43.58293" lon="6.562">
        <ele>362</ele>
        <time>2023-10-04T13:40:44.000Z</time>
      </trkpt>
      <trkpt lat="43.58288" lon="6.562">
        <ele>361.9</ele>
        <time>2023-10-04T13:40:53.000Z</time>
      </trkpt>
      <trkpt lat="43.58283" lon="6.56203">
        <ele>361.7</ele>
        <time>2023-10-04T13:40:58.000Z</time>
      </trkpt>
      <trkpt lat="43.58279" lon="6.56205">
        <ele>361.5</ele>
        <time>2023-10-04T13:41:03.000Z</time>
      </trkpt>
      <trkpt lat="43.58274" lon="6.56206">
        <ele>361</ele>
        <time>2023-10-04T13:41:09.000Z</time>
      </trkpt>
      <trkpt lat="43.58269" lon="6.56207">
        <ele>360.4</ele>
        <time>2023-10-04T13:41:15.000Z</time>
      </trkpt>
      <trkpt lat="43.58264" lon="6.56208">
        <ele>359.7</ele>
        <time>2023-10-04T13:41:20.000Z</time>
      </trkpt>
      <trkpt lat="43.58259" lon="6.56209">
        <ele>358.9</ele>
        <time>2023-10-04T13:41:25.000Z</time>
      </trkpt>
      <trkpt lat="43.58254" lon="6.56208">
        <ele>358.3</ele>
        <time>2023-10-04T13:41:29.000Z</time>
      </trkpt>
      <trkpt lat="43.5825" lon="6.56209">
        <ele>357.8</ele>
        <time>2023-10-04T13:41:33.000Z</time>
      </trkpt>
      <trkpt lat="43.58245" lon="6.56208">
        <ele>357.3</ele>
        <time>2023-10-04T13:41:37.000Z</time>
      </trkpt>
      <trkpt lat="43.5824" lon="6.56209">
        <ele>356.8</ele>
        <time>2023-10-04T13:41:41.000Z</time>
      </trkpt>
      <trkpt lat="43.58235" lon="6.5621">
        <ele>356.1</ele>
        <time>2023-10-04T13:41:45.000Z</time>
      </trkpt>
      <trkpt lat="43.58231" lon="6.56212">
        <ele>355.4</ele>
        <time>2023-10-04T13:41:49.000Z</time>
      </trkpt>
      <trkpt lat="43.58226" lon="6.56214">
        <ele>354.9</ele>
        <time>2023-10-04T13:41:53.000Z</time>
      </trkpt>
      <trkpt lat="43.58221" lon="6.56217">
        <ele>354.4</ele>
        <time>2023-10-04T13:41:57.000Z</time>
      </trkpt>
      <trkpt lat="43.58217" lon="6.56221">
        <ele>353.8</ele>
        <time>2023-10-04T13:42:01.000Z</time>
      </trkpt>
      <trkpt lat="43.58213" lon="6.56225">
        <ele>353.3</ele>
        <time>2023-10-04T13:42:06.000Z</time>
      </trkpt>
      <trkpt lat="43.58209" lon="6.5623">
        <ele>353</ele>
        <time>2023-10-04T13:42:09.000Z</time>
      </trkpt>
      <trkpt lat="43.58206" lon="6.56235">
        <ele>352.7</ele>
        <time>2023-10-04T13:42:13.000Z</time>
      </trkpt>
      <trkpt lat="43.58202" lon="6.5624">
        <ele>352.5</ele>
        <time>2023-10-04T13:42:17.000Z</time>
      </trkpt>
      <trkpt lat="43.58199" lon="6.56245">
        <ele>352.3</ele>
        <time>2023-10-04T13:42:21.000Z</time>
      </trkpt>
      <trkpt lat="43.58195" lon="6.56249">
        <ele>352.1</ele>
        <time>2023-10-04T13:42:25.000Z</time>
      </trkpt>
      <trkpt lat="43.58191" lon="6.56252">
        <ele>351.8</ele>
        <time>2023-10-04T13:42:30.000Z</time>
      </trkpt>
      <trkpt lat="43.58186" lon="6.56255">
        <ele>351.3</ele>
        <time>2023-10-04T13:42:35.000Z</time>
      </trkpt>
      <trkpt lat="43.58181" lon="6.56256">
        <ele>350.7</ele>
        <time>2023-10-04T13:42:42.000Z</time>
      </trkpt>
      <trkpt lat="43.58176" lon="6.56254">
        <ele>349.9</ele>
        <time>2023-10-04T13:42:49.000Z</time>
      </trkpt>
      <trkpt lat="43.58172" lon="6.56251">
        <ele>348.9</ele>
        <time>2023-10-04T13:42:55.000Z</time>
      </trkpt>
      <trkpt lat="43.58167" lon="6.56249">
        <ele>348</ele>
        <time>2023-10-04T13:43:00.000Z</time>
      </trkpt>
      <trkpt lat="43.58162" lon="6.56246">
        <ele>347.2</ele>
        <time>2023-10-04T13:43:05.000Z</time>
      </trkpt>
      <trkpt lat="43.58158" lon="6.56242">
        <ele>346.4</ele>
        <time>2023-10-04T13:43:10.000Z</time>
      </trkpt>
      <trkpt lat="43.58154" lon="6.56238">
        <ele>345.2</ele>
        <time>2023-10-04T13:43:16.000Z</time>
      </trkpt>
      <trkpt lat="43.58149" lon="6.56234">
        <ele>344.6</ele>
        <time>2023-10-04T13:43:20.000Z</time>
      </trkpt>
      <trkpt lat="43.58145" lon="6.56232">
        <ele>344.2</ele>
        <time>2023-10-04T13:43:23.000Z</time>
      </trkpt>
      <trkpt lat="43.58141" lon="6.56229">
        <ele>343.4</ele>
        <time>2023-10-04T13:43:27.000Z</time>
      </trkpt>
      <trkpt lat="43.58136" lon="6.56227">
        <ele>342.5</ele>
        <time>2023-10-04T13:43:33.000Z</time>
      </trkpt>
      <trkpt lat="43.58131" lon="6.56226">
        <ele>341.9</ele>
        <time>2023-10-04T13:43:37.000Z</time>
      </trkpt>
      <trkpt lat="43.58126" lon="6.56223">
        <ele>341</ele>
        <time>2023-10-04T13:43:42.000Z</time>
      </trkpt>
      <trkpt lat="43.58122" lon="6.5622">
        <ele>340.2</ele>
        <time>2023-10-04T13:43:46.000Z</time>
      </trkpt>
      <trkpt lat="43.58117" lon="6.56217">
        <ele>339.2</ele>
        <time>2023-10-04T13:43:51.000Z</time>
      </trkpt>
      <trkpt lat="43.58113" lon="6.56214">
        <ele>338.5</ele>
        <time>2023-10-04T13:43:55.000Z</time>
      </trkpt>
      <trkpt lat="43.58109" lon="6.5621">
        <ele>337.5</ele>
        <time>2023-10-04T13:44:00.000Z</time>
      </trkpt>
      <trkpt lat="43.58105" lon="6.56205">
        <ele>336.2</ele>
        <time>2023-10-04T13:44:06.000Z</time>
      </trkpt>
      <trkpt lat="43.58101" lon="6.56202">
        <ele>335.5</ele>
        <time>2023-10-04T13:44:10.000Z</time>
      </trkpt>
      <trkpt lat="43.58096" lon="6.56199">
        <ele>334.8</ele>
        <time>2023-10-04T13:44:14.000Z</time>
      </trkpt>
      <trkpt lat="43.58091" lon="6.56195">
        <ele>334</ele>
        <time>2023-10-04T13:44:19.000Z</time>
      </trkpt>
      <trkpt lat="43.58086" lon="6.56194">
        <ele>333.1</ele>
        <time>2023-10-04T13:44:24.000Z</time>
      </trkpt>
      <trkpt lat="43.58081" lon="6.56191">
        <ele>332.3</ele>
        <time>2023-10-04T13:44:29.000Z</time>
      </trkpt>
      <trkpt lat="43.58076" lon="6.56188">
        <ele>331.7</ele>
        <time>2023-10-04T13:44:33.000Z</time>
      </trkpt>
      <trkpt lat="43.58072" lon="6.56185">
        <ele>331.2</ele>
        <time>2023-10-04T13:44:37.000Z</time>
      </trkpt>
      <trkpt lat="43.58067" lon="6.56183">
        <ele>330.6</ele>
        <time>2023-10-04T13:44:41.000Z</time>
      </trkpt>
      <trkpt lat="43.58063" lon="6.56179">
        <ele>329.9</ele>
        <time>2023-10-04T13:44:46.000Z</time>
      </trkpt>
      <trkpt lat="43.58058" lon="6.56177">
        <ele>329.1</ele>
        <time>2023-10-04T13:44:51.000Z</time>
      </trkpt>
      <trkpt lat="43.58053" lon="6.56175">
        <ele>328.6</ele>
        <time>2023-10-04T13:44:55.000Z</time>
      </trkpt>
      <trkpt lat="43.58048" lon="6.56173">
        <ele>328.1</ele>
        <time>2023-10-04T13:44:59.000Z</time>
      </trkpt>
      <trkpt lat="43.58044" lon="6.56171">
        <ele>327.7</ele>
        <time>2023-10-04T13:45:02.000Z</time>
      </trkpt>
      <trkpt lat="43.58039" lon="6.56168">
        <ele>327.2</ele>
        <time>2023-10-04T13:45:07.000Z</time>
      </trkpt>
      <trkpt lat="43.58035" lon="6.56165">
        <ele>326</ele>
        <time>2023-10-04T13:45:23.000Z</time>
      </trkpt>
      <trkpt lat="43.58032" lon="6.5617">
        <ele>325.5</ele>
        <time>2023-10-04T13:45:34.000Z</time>
      </trkpt>
      <trkpt lat="43.58029" lon="6.56175">
        <ele>325.1</ele>
        <time>2023-10-04T13:45:54.000Z</time>
      </trkpt>
      <trkpt lat="43.58026" lon="6.56181">
        <ele>325.4</ele>
        <time>2023-10-04T13:46:43.000Z</time>
      </trkpt>
      <trkpt lat="43.58026" lon="6.56187">
        <ele>325.5</ele>
        <time>2023-10-04T13:46:48.000Z</time>
      </trkpt>
      <trkpt lat="43.58025" lon="6.56194">
        <ele>325.5</ele>
        <time>2023-10-04T13:46:53.000Z</time>
      </trkpt>
      <trkpt lat="43.58023" lon="6.56201">
        <ele>325.5</ele>
        <time>2023-10-04T13:46:58.000Z</time>
      </trkpt>
      <trkpt lat="43.58023" lon="6.56208">
        <ele>325.6</ele>
        <time>2023-10-04T13:47:02.000Z</time>
      </trkpt>
      <trkpt lat="43.58023" lon="6.56214">
        <ele>325.6</ele>
        <time>2023-10-04T13:47:06.000Z</time>
      </trkpt>
      <trkpt lat="43.58022" lon="6.5622">
        <ele>325.7</ele>
        <time>2023-10-04T13:47:10.000Z</time>
      </trkpt>
      <trkpt lat="43.58021" lon="6.56227">
        <ele>325.8</ele>
        <time>2023-10-04T13:47:14.000Z</time>
      </trkpt>
      <trkpt lat="43.58019" lon="6.56233">
        <ele>325.9</ele>
        <time>2023-10-04T13:47:18.000Z</time>
      </trkpt>
      <trkpt lat="43.58018" lon="6.56239">
        <ele>326.1</ele>
        <time>2023-10-04T13:47:22.000Z</time>
      </trkpt>
      <trkpt lat="43.58016" lon="6.56245">
        <ele>326.3</ele>
        <time>2023-10-04T13:47:27.000Z</time>
      </trkpt>
      <trkpt lat="43.58015" lon="6.56252">
        <ele>326.6</ele>
        <time>2023-10-04T13:47:32.000Z</time>
      </trkpt>
      <trkpt lat="43.58013" lon="6.56259">
        <ele>327</ele>
        <time>2023-10-04T13:47:37.000Z</time>
      </trkpt>
      <trkpt lat="43.58012" lon="6.56265">
        <ele>327.2</ele>
        <time>2023-10-04T13:47:41.000Z</time>
      </trkpt>
      <trkpt lat="43.58011" lon="6.56271">
        <ele>327.7</ele>
        <time>2023-10-04T13:47:45.000Z</time>
      </trkpt>
      <trkpt lat="43.5801" lon="6.56278">
        <ele>328.2</ele>
        <time>2023-10-04T13:47:49.000Z</time>
      </trkpt>
      <trkpt lat="43.58007" lon="6.56284">
        <ele>328.6</ele>
        <time>2023-10-04T13:47:53.000Z</time>
      </trkpt>
      <trkpt lat="43.58006" lon="6.56291">
        <ele>329.1</ele>
        <time>2023-10-04T13:47:58.000Z</time>
      </trkpt>
      <trkpt lat="43.58006" lon="6.56298">
        <ele>329.4</ele>
        <time>2023-10-04T13:48:02.000Z</time>
      </trkpt>
      <trkpt lat="43.58004" lon="6.56304">
        <ele>329.9</ele>
        <time>2023-10-04T13:48:06.000Z</time>
      </trkpt>
      <trkpt lat="43.58003" lon="6.5631">
        <ele>330.4</ele>
        <time>2023-10-04T13:48:11.000Z</time>
      </trkpt>
      <trkpt lat="43.58002" lon="6.56318">
        <ele>330.9</ele>
        <time>2023-10-04T13:48:16.000Z</time>
      </trkpt>
      <trkpt lat="43.58" lon="6.56324">
        <ele>331.4</ele>
        <time>2023-10-04T13:48:20.000Z</time>
      </trkpt>
      <trkpt lat="43.57999" lon="6.5633">
        <ele>331.8</ele>
        <time>2023-10-04T13:48:24.000Z</time>
      </trkpt>
      <trkpt lat="43.57997" lon="6.56336">
        <ele>332.2</ele>
        <time>2023-10-04T13:48:28.000Z</time>
      </trkpt>
      <trkpt lat="43.57994" lon="6.56341">
        <ele>332.5</ele>
        <time>2023-10-04T13:48:32.000Z</time>
      </trkpt>
      <trkpt lat="43.57993" lon="6.56348">
        <ele>333</ele>
        <time>2023-10-04T13:48:36.000Z</time>
      </trkpt>
      <trkpt lat="43.5799" lon="6.56354">
        <ele>333.5</ele>
        <time>2023-10-04T13:48:41.000Z</time>
      </trkpt>
      <trkpt lat="43.57988" lon="6.56361">
        <ele>334</ele>
        <time>2023-10-04T13:48:46.000Z</time>
      </trkpt>
      <trkpt lat="43.57985" lon="6.56367">
        <ele>334.5</ele>
        <time>2023-10-04T13:48:50.000Z</time>
      </trkpt>
      <trkpt lat="43.57983" lon="6.56374">
        <ele>335.1</ele>
        <time>2023-10-04T13:48:55.000Z</time>
      </trkpt>
      <trkpt lat="43.57982" lon="6.56381">
        <ele>335.6</ele>
        <time>2023-10-04T13:48:59.000Z</time>
      </trkpt>
      <trkpt lat="43.57979" lon="6.56387">
        <ele>336</ele>
        <time>2023-10-04T13:49:03.000Z</time>
      </trkpt>
      <trkpt lat="43.57978" lon="6.56393">
        <ele>336.4</ele>
        <time>2023-10-04T13:49:07.000Z</time>
      </trkpt>
      <trkpt lat="43.57976" lon="6.564">
        <ele>337.1</ele>
        <time>2023-10-04T13:49:12.000Z</time>
      </trkpt>
      <trkpt lat="43.57974" lon="6.56407">
        <ele>337.8</ele>
        <time>2023-10-04T13:49:17.000Z</time>
      </trkpt>
      <trkpt lat="43.57973" lon="6.56413">
        <ele>338.3</ele>
        <time>2023-10-04T13:49:21.000Z</time>
      </trkpt>
      <trkpt lat="43.57971" lon="6.56419">
        <ele>338.8</ele>
        <time>2023-10-04T13:49:25.000Z</time>
      </trkpt>
      <trkpt lat="43.57969" lon="6.56427">
        <ele>339.5</ele>
        <time>2023-10-04T13:49:30.000Z</time>
      </trkpt>
      <trkpt lat="43.57967" lon="6.56432">
        <ele>340.1</ele>
        <time>2023-10-04T13:49:34.000Z</time>
      </trkpt>
      <trkpt lat="43.57966" lon="6.56439">
        <ele>340.8</ele>
        <time>2023-10-04T13:49:38.000Z</time>
      </trkpt>
      <trkpt lat="43.57964" lon="6.56445">
        <ele>341.4</ele>
        <time>2023-10-04T13:49:42.000Z</time>
      </trkpt>
      <trkpt lat="43.57964" lon="6.56452">
        <ele>342</ele>
        <time>2023-10-04T13:49:46.000Z</time>
      </trkpt>
      <trkpt lat="43.57964" lon="6.5646">
        <ele>342.6</ele>
        <time>2023-10-04T13:49:51.000Z</time>
      </trkpt>
      <trkpt lat="43.57963" lon="6.56468">
        <ele>343.1</ele>
        <time>2023-10-04T13:49:56.000Z</time>
      </trkpt>
      <trkpt lat="43.57962" lon="6.56475">
        <ele>343.8</ele>
        <time>2023-10-04T13:50:01.000Z</time>
      </trkpt>
      <trkpt lat="43.57963" lon="6.56482">
        <ele>344.2</ele>
        <time>2023-10-04T13:50:05.000Z</time>
      </trkpt>
      <trkpt lat="43.57961" lon="6.56489">
        <ele>344.9</ele>
        <time>2023-10-04T13:50:11.000Z</time>
      </trkpt>
      <trkpt lat="43.57961" lon="6.56496">
        <ele>345.4</ele>
        <time>2023-10-04T13:50:16.000Z</time>
      </trkpt>
      <trkpt lat="43.5796" lon="6.56503">
        <ele>345.8</ele>
        <time>2023-10-04T13:50:21.000Z</time>
      </trkpt>
      <trkpt lat="43.57959" lon="6.56511">
        <ele>346.4</ele>
        <time>2023-10-04T13:50:26.000Z</time>
      </trkpt>
      <trkpt lat="43.57958" lon="6.56517">
        <ele>346.8</ele>
        <time>2023-10-04T13:50:30.000Z</time>
      </trkpt>
      <trkpt lat="43.57958" lon="6.56525">
        <ele>347.2</ele>
        <time>2023-10-04T13:50:35.000Z</time>
      </trkpt>
      <trkpt lat="43.57958" lon="6.56532">
        <ele>347.5</ele>
        <time>2023-10-04T13:50:39.000Z</time>
      </trkpt>
      <trkpt lat="43.57959" lon="6.56539">
        <ele>347.7</ele>
        <time>2023-10-04T13:50:43.000Z</time>
      </trkpt>
      <trkpt lat="43.5796" lon="6.56545">
        <ele>347.9</ele>
        <time>2023-10-04T13:50:47.000Z</time>
      </trkpt>
      <trkpt lat="43.5796" lon="6.56553">
        <ele>348.1</ele>
        <time>2023-10-04T13:50:52.000Z</time>
      </trkpt>
      <trkpt lat="43.5796" lon="6.56561">
        <ele>348.2</ele>
        <time>2023-10-04T13:50:56.000Z</time>
      </trkpt>
      <trkpt lat="43.57961" lon="6.56568">
        <ele>348.2</ele>
        <time>2023-10-04T13:51:00.000Z</time>
      </trkpt>
      <trkpt lat="43.57962" lon="6.56576">
        <ele>348.3</ele>
        <time>2023-10-04T13:51:05.000Z</time>
      </trkpt>
      <trkpt lat="43.57964" lon="6.56583">
        <ele>348.3</ele>
        <time>2023-10-04T13:51:09.000Z</time>
      </trkpt>
      <trkpt lat="43.57966" lon="6.5659">
        <ele>348.4</ele>
        <time>2023-10-04T13:51:13.000Z</time>
      </trkpt>
      <trkpt lat="43.57968" lon="6.56597">
        <ele>348.3</ele>
        <time>2023-10-04T13:51:17.000Z</time>
      </trkpt>
      <trkpt lat="43.5797" lon="6.56604">
        <ele>348.2</ele>
        <time>2023-10-04T13:51:21.000Z</time>
      </trkpt>
      <trkpt lat="43.57973" lon="6.56611">
        <ele>348.1</ele>
        <time>2023-10-04T13:51:25.000Z</time>
      </trkpt>
      <trkpt lat="43.57976" lon="6.56616">
        <ele>348.1</ele>
        <time>2023-10-04T13:51:29.000Z</time>
      </trkpt>
      <trkpt lat="43.57977" lon="6.56622">
        <ele>348</ele>
        <time>2023-10-04T13:51:33.000Z</time>
      </trkpt>
      <trkpt lat="43.5798" lon="6.5663">
        <ele>348</ele>
        <time>2023-10-04T13:51:37.000Z</time>
      </trkpt>
      <trkpt lat="43.57982" lon="6.56637">
        <ele>348</ele>
        <time>2023-10-04T13:51:41.000Z</time>
      </trkpt>
      <trkpt lat="43.57983" lon="6.56645">
        <ele>348</ele>
        <time>2023-10-04T13:51:45.000Z</time>
      </trkpt>
      <trkpt lat="43.57984" lon="6.56651">
        <ele>348</ele>
        <time>2023-10-04T13:51:48.000Z</time>
      </trkpt>
      <trkpt lat="43.57985" lon="6.56657">
        <ele>348</ele>
        <time>2023-10-04T13:51:51.000Z</time>
      </trkpt>
      <trkpt lat="43.57985" lon="6.56665">
        <ele>348</ele>
        <time>2023-10-04T13:51:55.000Z</time>
      </trkpt>
      <trkpt lat="43.57985" lon="6.56673">
        <ele>348</ele>
        <time>2023-10-04T13:51:59.000Z</time>
      </trkpt>
      <trkpt lat="43.57985" lon="6.5668">
        <ele>347.9</ele>
        <time>2023-10-04T13:52:03.000Z</time>
      </trkpt>
      <trkpt lat="43.57985" lon="6.56688">
        <ele>347.9</ele>
        <time>2023-10-04T13:52:07.000Z</time>
      </trkpt>
      <trkpt lat="43.57985" lon="6.56695">
        <ele>347.9</ele>
        <time>2023-10-04T13:52:11.000Z</time>
      </trkpt>
      <trkpt lat="43.57985" lon="6.56702">
        <ele>347.9</ele>
        <time>2023-10-04T13:52:15.000Z</time>
      </trkpt>
      <trkpt lat="43.57986" lon="6.56709">
        <ele>347.9</ele>
        <time>2023-10-04T13:52:19.000Z</time>
      </trkpt>
      <trkpt lat="43.57986" lon="6.56716">
        <ele>347.9</ele>
        <time>2023-10-04T13:52:23.000Z</time>
      </trkpt>
      <trkpt lat="43.57987" lon="6.56724">
        <ele>347.9</ele>
        <time>2023-10-04T13:52:27.000Z</time>
      </trkpt>
      <trkpt lat="43.57987" lon="6.56731">
        <ele>347.9</ele>
        <time>2023-10-04T13:52:31.000Z</time>
      </trkpt>
      <trkpt lat="43.57987" lon="6.56739">
        <ele>347.9</ele>
        <time>2023-10-04T13:52:35.000Z</time>
      </trkpt>
      <trkpt lat="43.57987" lon="6.56747">
        <ele>347.9</ele>
        <time>2023-10-04T13:52:39.000Z</time>
      </trkpt>
      <trkpt lat="43.57987" lon="6.56753">
        <ele>347.9</ele>
        <time>2023-10-04T13:52:43.000Z</time>
      </trkpt>
      <trkpt lat="43.57986" lon="6.56761">
        <ele>347.9</ele>
        <time>2023-10-04T13:52:47.000Z</time>
      </trkpt>
      <trkpt lat="43.57987" lon="6.56768">
        <ele>347.9</ele>
        <time>2023-10-04T13:52:51.000Z</time>
      </trkpt>
      <trkpt lat="43.57986" lon="6.56774">
        <ele>347.9</ele>
        <time>2023-10-04T13:52:55.000Z</time>
      </trkpt>
      <trkpt lat="43.57987" lon="6.56782">
        <ele>347.9</ele>
        <time>2023-10-04T13:52:59.000Z</time>
      </trkpt>
      <trkpt lat="43.57987" lon="6.56789">
        <ele>347.9</ele>
        <time>2023-10-04T13:53:03.000Z</time>
      </trkpt>
      <trkpt lat="43.57988" lon="6.56796">
        <ele>347.9</ele>
        <time>2023-10-04T13:53:07.000Z</time>
      </trkpt>
      <trkpt lat="43.57989" lon="6.56803">
        <ele>347.9</ele>
        <time>2023-10-04T13:53:11.000Z</time>
      </trkpt>
      <trkpt lat="43.57989" lon="6.5681">
        <ele>347.9</ele>
        <time>2023-10-04T13:53:15.000Z</time>
      </trkpt>
      <trkpt lat="43.57989" lon="6.56818">
        <ele>347.9</ele>
        <time>2023-10-04T13:53:19.000Z</time>
      </trkpt>
      <trkpt lat="43.5799" lon="6.56825">
        <ele>347.9</ele>
        <time>2023-10-04T13:53:23.000Z</time>
      </trkpt>
      <trkpt lat="43.5799" lon="6.56832">
        <ele>347.9</ele>
        <time>2023-10-04T13:53:27.000Z</time>
      </trkpt>
      <trkpt lat="43.57991" lon="6.56839">
        <ele>347.9</ele>
        <time>2023-10-04T13:53:31.000Z</time>
      </trkpt>
      <trkpt lat="43.57991" lon="6.56846">
        <ele>347.9</ele>
        <time>2023-10-04T13:53:35.000Z</time>
      </trkpt>
      <trkpt lat="43.57991" lon="6.56854">
        <ele>347.9</ele>
        <time>2023-10-04T13:53:39.000Z</time>
      </trkpt>
      <trkpt lat="43.57992" lon="6.56861">
        <ele>347.8</ele>
        <time>2023-10-04T13:53:43.000Z</time>
      </trkpt>
      <trkpt lat="43.57992" lon="6.56868">
        <ele>347.8</ele>
        <time>2023-10-04T13:53:47.000Z</time>
      </trkpt>
      <trkpt lat="43.57993" lon="6.56875">
        <ele>347.6</ele>
        <time>2023-10-04T13:53:51.000Z</time>
      </trkpt>
      <trkpt lat="43.57995" lon="6.56881">
        <ele>347.4</ele>
        <time>2023-10-04T13:53:54.000Z</time>
      </trkpt>
      <trkpt lat="43.57996" lon="6.56888">
        <ele>347.3</ele>
        <time>2023-10-04T13:53:58.000Z</time>
      </trkpt>
      <trkpt lat="43.57997" lon="6.56895">
        <ele>346.8</ele>
        <time>2023-10-04T13:54:02.000Z</time>
      </trkpt>
      <trkpt lat="43.57997" lon="6.56902">
        <ele>346.4</ele>
        <time>2023-10-04T13:54:06.000Z</time>
      </trkpt>
      <trkpt lat="43.57998" lon="6.56909">
        <ele>346.1</ele>
        <time>2023-10-04T13:54:10.000Z</time>
      </trkpt>
      <trkpt lat="43.57998" lon="6.56915">
        <ele>345.8</ele>
        <time>2023-10-04T13:54:14.000Z</time>
      </trkpt>
      <trkpt lat="43.57999" lon="6.56922">
        <ele>345.5</ele>
        <time>2023-10-04T13:54:17.000Z</time>
      </trkpt>
      <trkpt lat="43.57997" lon="6.56929">
        <ele>345.2</ele>
        <time>2023-10-04T13:54:21.000Z</time>
      </trkpt>
      <trkpt lat="43.57997" lon="6.56937">
        <ele>344.7</ele>
        <time>2023-10-04T13:54:25.000Z</time>
      </trkpt>
      <trkpt lat="43.57997" lon="6.56945">
        <ele>344.2</ele>
        <time>2023-10-04T13:54:29.000Z</time>
      </trkpt>
      <trkpt lat="43.57996" lon="6.56952">
        <ele>343.7</ele>
        <time>2023-10-04T13:54:33.000Z</time>
      </trkpt>
      <trkpt lat="43.57994" lon="6.5696">
        <ele>343.2</ele>
        <time>2023-10-04T13:54:37.000Z</time>
      </trkpt>
      <trkpt lat="43.57991" lon="6.56967">
        <ele>342.7</ele>
        <time>2023-10-04T13:54:41.000Z</time>
      </trkpt>
      <trkpt lat="43.5799" lon="6.56973">
        <ele>342.2</ele>
        <time>2023-10-04T13:54:44.000Z</time>
      </trkpt>
      <trkpt lat="43.5799" lon="6.56981">
        <ele>341.6</ele>
        <time>2023-10-04T13:54:48.000Z</time>
      </trkpt>
      <trkpt lat="43.57991" lon="6.56987">
        <ele>341.1</ele>
        <time>2023-10-04T13:54:52.000Z</time>
      </trkpt>
      <trkpt lat="43.57991" lon="6.56994">
        <ele>340.5</ele>
        <time>2023-10-04T13:54:56.000Z</time>
      </trkpt>
      <trkpt lat="43.57992" lon="6.57001">
        <ele>340</ele>
        <time>2023-10-04T13:55:00.000Z</time>
      </trkpt>
      <trkpt lat="43.57992" lon="6.57007">
        <ele>339.4</ele>
        <time>2023-10-04T13:55:04.000Z</time>
      </trkpt>
      <trkpt lat="43.57993" lon="6.57013">
        <ele>338.9</ele>
        <time>2023-10-04T13:55:08.000Z</time>
      </trkpt>
      <trkpt lat="43.57994" lon="6.5702">
        <ele>338.4</ele>
        <time>2023-10-04T13:55:12.000Z</time>
      </trkpt>
      <trkpt lat="43.57994" lon="6.57026">
        <ele>338</ele>
        <time>2023-10-04T13:55:16.000Z</time>
      </trkpt>
      <trkpt lat="43.57994" lon="6.57034">
        <ele>337.3</ele>
        <time>2023-10-04T13:55:21.000Z</time>
      </trkpt>
      <trkpt lat="43.57994" lon="6.5704">
        <ele>336.8</ele>
        <time>2023-10-04T13:55:25.000Z</time>
      </trkpt>
      <trkpt lat="43.57993" lon="6.57047">
        <ele>336.4</ele>
        <time>2023-10-04T13:55:29.000Z</time>
      </trkpt>
      <trkpt lat="43.57993" lon="6.57054">
        <ele>336</ele>
        <time>2023-10-04T13:55:33.000Z</time>
      </trkpt>
      <trkpt lat="43.57993" lon="6.57061">
        <ele>335.7</ele>
        <time>2023-10-04T13:55:36.000Z</time>
      </trkpt>
      <trkpt lat="43.57993" lon="6.57069">
        <ele>335.4</ele>
        <time>2023-10-04T13:55:40.000Z</time>
      </trkpt>
      <trkpt lat="43.57993" lon="6.57076">
        <ele>335.2</ele>
        <time>2023-10-04T13:55:44.000Z</time>
      </trkpt>
      <trkpt lat="43.57993" lon="6.57084">
        <ele>335</ele>
        <time>2023-10-04T13:55:48.000Z</time>
      </trkpt>
      <trkpt lat="43.57993" lon="6.5709">
        <ele>334.7</ele>
        <time>2023-10-04T13:55:52.000Z</time>
      </trkpt>
      <trkpt lat="43.57993" lon="6.57097">
        <ele>334.4</ele>
        <time>2023-10-04T13:55:56.000Z</time>
      </trkpt>
      <trkpt lat="43.57992" lon="6.57104">
        <ele>334.2</ele>
        <time>2023-10-04T13:56:00.000Z</time>
      </trkpt>
      <trkpt lat="43.57991" lon="6.5711">
        <ele>334</ele>
        <time>2023-10-04T13:56:04.000Z</time>
      </trkpt>
      <trkpt lat="43.57989" lon="6.57118">
        <ele>333.9</ele>
        <time>2023-10-04T13:56:08.000Z</time>
      </trkpt>
      <trkpt lat="43.57988" lon="6.57125">
        <ele>333.8</ele>
        <time>2023-10-04T13:56:12.000Z</time>
      </trkpt>
      <trkpt lat="43.57987" lon="6.57131">
        <ele>333.7</ele>
        <time>2023-10-04T13:56:16.000Z</time>
      </trkpt>
      <trkpt lat="43.57985" lon="6.57138">
        <ele>333.5</ele>
        <time>2023-10-04T13:56:20.000Z</time>
      </trkpt>
      <trkpt lat="43.57984" lon="6.57145">
        <ele>333.4</ele>
        <time>2023-10-04T13:56:24.000Z</time>
      </trkpt>
      <trkpt lat="43.57982" lon="6.57152">
        <ele>333.3</ele>
        <time>2023-10-04T13:56:28.000Z</time>
      </trkpt>
      <trkpt lat="43.5798" lon="6.57158">
        <ele>333.2</ele>
        <time>2023-10-04T13:56:32.000Z</time>
      </trkpt>
      <trkpt lat="43.57979" lon="6.57165">
        <ele>333.2</ele>
        <time>2023-10-04T13:56:36.000Z</time>
      </trkpt>
      <trkpt lat="43.57977" lon="6.57172">
        <ele>333.1</ele>
        <time>2023-10-04T13:56:41.000Z</time>
      </trkpt>
      <trkpt lat="43.57976" lon="6.57178">
        <ele>333.1</ele>
        <time>2023-10-04T13:56:45.000Z</time>
      </trkpt>
      <trkpt lat="43.57974" lon="6.57185">
        <ele>333.1</ele>
        <time>2023-10-04T13:56:50.000Z</time>
      </trkpt>
      <trkpt lat="43.57972" lon="6.57191">
        <ele>333</ele>
        <time>2023-10-04T13:56:55.000Z</time>
      </trkpt>
      <trkpt lat="43.5797" lon="6.57198">
        <ele>333</ele>
        <time>2023-10-04T13:56:59.000Z</time>
      </trkpt>
      <trkpt lat="43.57968" lon="6.57205">
        <ele>333</ele>
        <time>2023-10-04T13:57:03.000Z</time>
      </trkpt>
      <trkpt lat="43.57966" lon="6.57211">
        <ele>333</ele>
        <time>2023-10-04T13:57:07.000Z</time>
      </trkpt>
      <trkpt lat="43.57964" lon="6.57216">
        <ele>333</ele>
        <time>2023-10-04T13:57:11.000Z</time>
      </trkpt>
      <trkpt lat="43.57961" lon="6.57222">
        <ele>332.9</ele>
        <time>2023-10-04T13:57:15.000Z</time>
      </trkpt>
      <trkpt lat="43.57958" lon="6.57227">
        <ele>332.9</ele>
        <time>2023-10-04T13:57:19.000Z</time>
      </trkpt>
      <trkpt lat="43.57955" lon="6.57234">
        <ele>332.9</ele>
        <time>2023-10-04T13:57:24.000Z</time>
      </trkpt>
      <trkpt lat="43.57953" lon="6.5724">
        <ele>332.9</ele>
        <time>2023-10-04T13:57:28.000Z</time>
      </trkpt>
      <trkpt lat="43.5795" lon="6.57246">
        <ele>332.8</ele>
        <time>2023-10-04T13:57:32.000Z</time>
      </trkpt>
      <trkpt lat="43.57949" lon="6.57253">
        <ele>332.7</ele>
        <time>2023-10-04T13:57:38.000Z</time>
      </trkpt>
      <trkpt lat="43.57946" lon="6.57258">
        <ele>332</ele>
        <time>2023-10-04T13:59:31.000Z</time>
      </trkpt>
      <trkpt lat="43.57949" lon="6.57264">
        <ele>332.3</ele>
        <time>2023-10-04T14:00:56.000Z</time>
      </trkpt>
      <trkpt lat="43.57952" lon="6.5727">
        <ele>332.3</ele>
        <time>2023-10-04T14:01:02.000Z</time>
      </trkpt>
      <trkpt lat="43.57954" lon="6.57276">
        <ele>332.6</ele>
        <time>2023-10-04T14:01:08.000Z</time>
      </trkpt>
      <trkpt lat="43.57956" lon="6.57282">
        <ele>333.1</ele>
        <time>2023-10-04T14:01:13.000Z</time>
      </trkpt>
      <trkpt lat="43.57958" lon="6.57289">
        <ele>333.8</ele>
        <time>2023-10-04T14:01:19.000Z</time>
      </trkpt>
      <trkpt lat="43.57959" lon="6.57295">
        <ele>334.4</ele>
        <time>2023-10-04T14:01:24.000Z</time>
      </trkpt>
      <trkpt lat="43.57959" lon="6.57302">
        <ele>335</ele>
        <time>2023-10-04T14:01:29.000Z</time>
      </trkpt>
      <trkpt lat="43.5796" lon="6.57309">
        <ele>335.7</ele>
        <time>2023-10-04T14:01:34.000Z</time>
      </trkpt>
      <trkpt lat="43.57962" lon="6.57316">
        <ele>336.4</ele>
        <time>2023-10-04T14:01:38.000Z</time>
      </trkpt>
      <trkpt lat="43.57963" lon="6.57323">
        <ele>337</ele>
        <time>2023-10-04T14:01:43.000Z</time>
      </trkpt>
      <trkpt lat="43.57964" lon="6.5733">
        <ele>337.7</ele>
        <time>2023-10-04T14:01:47.000Z</time>
      </trkpt>
      <trkpt lat="43.57965" lon="6.57336">
        <ele>338.4</ele>
        <time>2023-10-04T14:01:51.000Z</time>
      </trkpt>
      <trkpt lat="43.57967" lon="6.57343">
        <ele>339</ele>
        <time>2023-10-04T14:01:55.000Z</time>
      </trkpt>
      <trkpt lat="43.57969" lon="6.57349">
        <ele>339.8</ele>
        <time>2023-10-04T14:02:00.000Z</time>
      </trkpt>
      <trkpt lat="43.57971" lon="6.57355">
        <ele>340.4</ele>
        <time>2023-10-04T14:02:04.000Z</time>
      </trkpt>
      <trkpt lat="43.57974" lon="6.57361">
        <ele>341</ele>
        <time>2023-10-04T14:02:08.000Z</time>
      </trkpt>
      <trkpt lat="43.57976" lon="6.57367">
        <ele>341.9</ele>
        <time>2023-10-04T14:02:15.000Z</time>
      </trkpt>
      <trkpt lat="43.57978" lon="6.57373">
        <ele>342.5</ele>
        <time>2023-10-04T14:02:21.000Z</time>
      </trkpt>
      <trkpt lat="43.5798" lon="6.5738">
        <ele>343</ele>
        <time>2023-10-04T14:02:26.000Z</time>
      </trkpt>
      <trkpt lat="43.57983" lon="6.57387">
        <ele>343.3</ele>
        <time>2023-10-04T14:02:30.000Z</time>
      </trkpt>
      <trkpt lat="43.57986" lon="6.57393">
        <ele>343.9</ele>
        <time>2023-10-04T14:02:34.000Z</time>
      </trkpt>
      <trkpt lat="43.57989" lon="6.57398">
        <ele>344.6</ele>
        <time>2023-10-04T14:02:39.000Z</time>
      </trkpt>
      <trkpt lat="43.57991" lon="6.57404">
        <ele>345.2</ele>
        <time>2023-10-04T14:02:43.000Z</time>
      </trkpt>
      <trkpt lat="43.57993" lon="6.57409">
        <ele>345.7</ele>
        <time>2023-10-04T14:02:48.000Z</time>
      </trkpt>
      <trkpt lat="43.57995" lon="6.57415">
        <ele>346.3</ele>
        <time>2023-10-04T14:02:53.000Z</time>
      </trkpt>
      <trkpt lat="43.57998" lon="6.57421">
        <ele>346.9</ele>
        <time>2023-10-04T14:02:57.000Z</time>
      </trkpt>
      <trkpt lat="43.58" lon="6.57427">
        <ele>347.4</ele>
        <time>2023-10-04T14:03:01.000Z</time>
      </trkpt>
      <trkpt lat="43.58003" lon="6.57434">
        <ele>347.7</ele>
        <time>2023-10-04T14:03:05.000Z</time>
      </trkpt>
      <trkpt lat="43.58005" lon="6.57439">
        <ele>348.1</ele>
        <time>2023-10-04T14:03:10.000Z</time>
      </trkpt>
      <trkpt lat="43.58006" lon="6.57445">
        <ele>348.5</ele>
        <time>2023-10-04T14:03:14.000Z</time>
      </trkpt>
      <trkpt lat="43.58008" lon="6.57453">
        <ele>348.8</ele>
        <time>2023-10-04T14:03:18.000Z</time>
      </trkpt>
      <trkpt lat="43.58008" lon="6.57459">
        <ele>349.2</ele>
        <time>2023-10-04T14:03:22.000Z</time>
      </trkpt>
      <trkpt lat="43.58008" lon="6.57467">
        <ele>349.5</ele>
        <time>2023-10-04T14:03:26.000Z</time>
      </trkpt>
      <trkpt lat="43.58009" lon="6.57474">
        <ele>349.8</ele>
        <time>2023-10-04T14:03:30.000Z</time>
      </trkpt>
      <trkpt lat="43.5801" lon="6.57481">
        <ele>350.2</ele>
        <time>2023-10-04T14:03:35.000Z</time>
      </trkpt>
      <trkpt lat="43.5801" lon="6.57488">
        <ele>350.6</ele>
        <time>2023-10-04T14:03:39.000Z</time>
      </trkpt>
      <trkpt lat="43.58011" lon="6.57495">
        <ele>351.2</ele>
        <time>2023-10-04T14:03:44.000Z</time>
      </trkpt>
      <trkpt lat="43.58013" lon="6.57501">
        <ele>351.8</ele>
        <time>2023-10-04T14:03:49.000Z</time>
      </trkpt>
      <trkpt lat="43.58016" lon="6.57507">
        <ele>352.2</ele>
        <time>2023-10-04T14:03:54.000Z</time>
      </trkpt>
      <trkpt lat="43.58018" lon="6.57512">
        <ele>352.6</ele>
        <time>2023-10-04T14:03:58.000Z</time>
      </trkpt>
      <trkpt lat="43.5802" lon="6.57518">
        <ele>353.2</ele>
        <time>2023-10-04T14:04:03.000Z</time>
      </trkpt>
      <trkpt lat="43.58022" lon="6.57525">
        <ele>353.8</ele>
        <time>2023-10-04T14:04:08.000Z</time>
      </trkpt>
      <trkpt lat="43.58024" lon="6.57532">
        <ele>354.2</ele>
        <time>2023-10-04T14:04:12.000Z</time>
      </trkpt>
      <trkpt lat="43.58028" lon="6.57537">
        <ele>355</ele>
        <time>2023-10-04T14:04:18.000Z</time>
      </trkpt>
      <trkpt lat="43.58031" lon="6.57543">
        <ele>355.6</ele>
        <time>2023-10-04T14:04:23.000Z</time>
      </trkpt>
      <trkpt lat="43.58035" lon="6.57547">
        <ele>355.9</ele>
        <time>2023-10-04T14:04:26.000Z</time>
      </trkpt>
      <trkpt lat="43.58039" lon="6.57551">
        <ele>356.4</ele>
        <time>2023-10-04T14:04:30.000Z</time>
      </trkpt>
      <trkpt lat="43.58044" lon="6.57555">
        <ele>356.9</ele>
        <time>2023-10-04T14:04:34.000Z</time>
      </trkpt>
      <trkpt lat="43.58047" lon="6.5756">
        <ele>357.5</ele>
        <time>2023-10-04T14:04:38.000Z</time>
      </trkpt>
      <trkpt lat="43.58051" lon="6.57565">
        <ele>358</ele>
        <time>2023-10-04T14:04:42.000Z</time>
      </trkpt>
      <trkpt lat="43.58055" lon="6.5757">
        <ele>358.5</ele>
        <time>2023-10-04T14:04:46.000Z</time>
      </trkpt>
      <trkpt lat="43.58059" lon="6.57574">
        <ele>359</ele>
        <time>2023-10-04T14:04:50.000Z</time>
      </trkpt>
      <trkpt lat="43.58062" lon="6.5758">
        <ele>359.5</ele>
        <time>2023-10-04T14:04:54.000Z</time>
      </trkpt>
      <trkpt lat="43.58066" lon="6.57584">
        <ele>360</ele>
        <time>2023-10-04T14:04:59.000Z</time>
      </trkpt>
      <trkpt lat="43.58069" lon="6.5759">
        <ele>360.6</ele>
        <time>2023-10-04T14:05:04.000Z</time>
      </trkpt>
      <trkpt lat="43.58072" lon="6.57595">
        <ele>361.4</ele>
        <time>2023-10-04T14:05:09.000Z</time>
      </trkpt>
      <trkpt lat="43.58075" lon="6.57601">
        <ele>362.1</ele>
        <time>2023-10-04T14:05:14.000Z</time>
      </trkpt>
      <trkpt lat="43.58078" lon="6.57606">
        <ele>362.6</ele>
        <time>2023-10-04T14:05:19.000Z</time>
      </trkpt>
      <trkpt lat="43.58081" lon="6.57612">
        <ele>363.1</ele>
        <time>2023-10-04T14:05:23.000Z</time>
      </trkpt>
      <trkpt lat="43.58084" lon="6.57618">
        <ele>363.7</ele>
        <time>2023-10-04T14:05:28.000Z</time>
      </trkpt>
      <trkpt lat="43.58087" lon="6.57623">
        <ele>364.3</ele>
        <time>2023-10-04T14:05:32.000Z</time>
      </trkpt>
      <trkpt lat="43.58089" lon="6.57629">
        <ele>364.9</ele>
        <time>2023-10-04T14:05:37.000Z</time>
      </trkpt>
      <trkpt lat="43.58092" lon="6.57634">
        <ele>365.2</ele>
        <time>2023-10-04T14:05:41.000Z</time>
      </trkpt>
      <trkpt lat="43.58095" lon="6.57639">
        <ele>365.6</ele>
        <time>2023-10-04T14:05:45.000Z</time>
      </trkpt>
      <trkpt lat="43.58098" lon="6.57645">
        <ele>366.4</ele>
        <time>2023-10-04T14:05:50.000Z</time>
      </trkpt>
      <trkpt lat="43.58102" lon="6.5765">
        <ele>367.1</ele>
        <time>2023-10-04T14:05:55.000Z</time>
      </trkpt>
      <trkpt lat="43.58104" lon="6.57655">
        <ele>367.8</ele>
        <time>2023-10-04T14:06:00.000Z</time>
      </trkpt>
      <trkpt lat="43.58108" lon="6.57659">
        <ele>368.6</ele>
        <time>2023-10-04T14:06:05.000Z</time>
      </trkpt>
      <trkpt lat="43.58112" lon="6.57664">
        <ele>369.4</ele>
        <time>2023-10-04T14:06:09.000Z</time>
      </trkpt>
      <trkpt lat="43.58115" lon="6.5767">
        <ele>370.4</ele>
        <time>2023-10-04T14:06:15.000Z</time>
      </trkpt>
      <trkpt lat="43.58118" lon="6.57677">
        <ele>371.2</ele>
        <time>2023-10-04T14:06:21.000Z</time>
      </trkpt>
      <trkpt lat="43.5812" lon="6.57682">
        <ele>371.9</ele>
        <time>2023-10-04T14:06:25.000Z</time>
      </trkpt>
      <trkpt lat="43.58123" lon="6.57688">
        <ele>372.8</ele>
        <time>2023-10-04T14:06:30.000Z</time>
      </trkpt>
      <trkpt lat="43.58125" lon="6.57694">
        <ele>373.6</ele>
        <time>2023-10-04T14:06:35.000Z</time>
      </trkpt>
      <trkpt lat="43.58128" lon="6.577">
        <ele>374.1</ele>
        <time>2023-10-04T14:06:39.000Z</time>
      </trkpt>
      <trkpt lat="43.58131" lon="6.57706">
        <ele>374.5</ele>
        <time>2023-10-04T14:06:43.000Z</time>
      </trkpt>
      <trkpt lat="43.58134" lon="6.57712">
        <ele>375</ele>
        <time>2023-10-04T14:06:48.000Z</time>
      </trkpt>
      <trkpt lat="43.58137" lon="6.57718">
        <ele>375.7</ele>
        <time>2023-10-04T14:06:53.000Z</time>
      </trkpt>
      <trkpt lat="43.5814" lon="6.57724">
        <ele>376.3</ele>
        <time>2023-10-04T14:06:58.000Z</time>
      </trkpt>
      <trkpt lat="43.58143" lon="6.57731">
        <ele>376.7</ele>
        <time>2023-10-04T14:07:02.000Z</time>
      </trkpt>
      <trkpt lat="43.58145" lon="6.57737">
        <ele>377.2</ele>
        <time>2023-10-04T14:07:06.000Z</time>
      </trkpt>
      <trkpt lat="43.58148" lon="6.57743">
        <ele>377.7</ele>
        <time>2023-10-04T14:07:10.000Z</time>
      </trkpt>
      <trkpt lat="43.5815" lon="6.5775">
        <ele>378.2</ele>
        <time>2023-10-04T14:07:15.000Z</time>
      </trkpt>
      <trkpt lat="43.58154" lon="6.57755">
        <ele>378.6</ele>
        <time>2023-10-04T14:07:20.000Z</time>
      </trkpt>
      <trkpt lat="43.58157" lon="6.57759">
        <ele>378.9</ele>
        <time>2023-10-04T14:07:24.000Z</time>
      </trkpt>
      <trkpt lat="43.58162" lon="6.57761">
        <ele>379.1</ele>
        <time>2023-10-04T14:07:28.000Z</time>
      </trkpt>
      <trkpt lat="43.58166" lon="6.57762">
        <ele>379.3</ele>
        <time>2023-10-04T14:07:32.000Z</time>
      </trkpt>
      <trkpt lat="43.58171" lon="6.57763">
        <ele>379.5</ele>
        <time>2023-10-04T14:07:38.000Z</time>
      </trkpt>
      <trkpt lat="43.58176" lon="6.57763">
        <ele>379.6</ele>
        <time>2023-10-04T14:07:46.000Z</time>
      </trkpt>
      <trkpt lat="43.58175" lon="6.5777">
        <ele>379.6</ele>
        <time>2023-10-04T14:08:40.000Z</time>
      </trkpt>
      <trkpt lat="43.58179" lon="6.57766">
        <ele>378.8</ele>
        <time>2023-10-04T14:09:52.000Z</time>
      </trkpt>
      <trkpt lat="43.58176" lon="6.5777">
        <ele>378.5</ele>
        <time>2023-10-04T14:10:39.000Z</time>
      </trkpt>
      <trkpt lat="43.58174" lon="6.57777">
        <ele>378.5</ele>
        <time>2023-10-04T14:10:46.000Z</time>
      </trkpt>
      <trkpt lat="43.58176" lon="6.57771">
        <ele>378.8</ele>
        <time>2023-10-04T14:11:06.000Z</time>
      </trkpt>
      <trkpt lat="43.58178" lon="6.57765">
        <ele>378.9</ele>
        <time>2023-10-04T14:11:16.000Z</time>
      </trkpt>
      <trkpt lat="43.58178" lon="6.57757">
        <ele>378.9</ele>
        <time>2023-10-04T14:11:22.000Z</time>
      </trkpt>
      <trkpt lat="43.58178" lon="6.5775">
        <ele>378.8</ele>
        <time>2023-10-04T14:11:26.000Z</time>
      </trkpt>
      <trkpt lat="43.58179" lon="6.57742">
        <ele>378.6</ele>
        <time>2023-10-04T14:11:30.000Z</time>
      </trkpt>
      <trkpt lat="43.58179" lon="6.57735">
        <ele>378.5</ele>
        <time>2023-10-04T14:11:34.000Z</time>
      </trkpt>
      <trkpt lat="43.58179" lon="6.57728">
        <ele>378.3</ele>
        <time>2023-10-04T14:11:38.000Z</time>
      </trkpt>
      <trkpt lat="43.5818" lon="6.57722">
        <ele>378.2</ele>
        <time>2023-10-04T14:11:42.000Z</time>
      </trkpt>
      <trkpt lat="43.5818" lon="6.57716">
        <ele>378.1</ele>
        <time>2023-10-04T14:11:46.000Z</time>
      </trkpt>
      <trkpt lat="43.58181" lon="6.5771">
        <ele>377.9</ele>
        <time>2023-10-04T14:11:50.000Z</time>
      </trkpt>
      <trkpt lat="43.58182" lon="6.57703">
        <ele>377.8</ele>
        <time>2023-10-04T14:11:54.000Z</time>
      </trkpt>
      <trkpt lat="43.58183" lon="6.57697">
        <ele>377.6</ele>
        <time>2023-10-04T14:11:58.000Z</time>
      </trkpt>
      <trkpt lat="43.58186" lon="6.5769">
        <ele>377.5</ele>
        <time>2023-10-04T14:12:02.000Z</time>
      </trkpt>
      <trkpt lat="43.58188" lon="6.57684">
        <ele>377.4</ele>
        <time>2023-10-04T14:12:06.000Z</time>
      </trkpt>
      <trkpt lat="43.58189" lon="6.57678">
        <ele>377.1</ele>
        <time>2023-10-04T14:12:10.000Z</time>
      </trkpt>
      <trkpt lat="43.58191" lon="6.57671">
        <ele>376.8</ele>
        <time>2023-10-04T14:12:14.000Z</time>
      </trkpt>
      <trkpt lat="43.58192" lon="6.57665">
        <ele>376.6</ele>
        <time>2023-10-04T14:12:18.000Z</time>
      </trkpt>
      <trkpt lat="43.58194" lon="6.57658">
        <ele>376.4</ele>
        <time>2023-10-04T14:12:22.000Z</time>
      </trkpt>
      <trkpt lat="43.58195" lon="6.57651">
        <ele>376.2</ele>
        <time>2023-10-04T14:12:26.000Z</time>
      </trkpt>
      <trkpt lat="43.58196" lon="6.57644">
        <ele>375.9</ele>
        <time>2023-10-04T14:12:30.000Z</time>
      </trkpt>
      <trkpt lat="43.58197" lon="6.57637">
        <ele>375.6</ele>
        <time>2023-10-04T14:12:34.000Z</time>
      </trkpt>
      <trkpt lat="43.58199" lon="6.57629">
        <ele>375.4</ele>
        <time>2023-10-04T14:12:38.000Z</time>
      </trkpt>
      <trkpt lat="43.582" lon="6.57622">
        <ele>375.2</ele>
        <time>2023-10-04T14:12:42.000Z</time>
      </trkpt>
      <trkpt lat="43.58202" lon="6.57615">
        <ele>375</ele>
        <time>2023-10-04T14:12:46.000Z</time>
      </trkpt>
      <trkpt lat="43.58203" lon="6.57608">
        <ele>374.9</ele>
        <time>2023-10-04T14:12:50.000Z</time>
      </trkpt>
      <trkpt lat="43.58203" lon="6.57601">
        <ele>374.8</ele>
        <time>2023-10-04T14:12:54.000Z</time>
      </trkpt>
      <trkpt lat="43.58204" lon="6.57594">
        <ele>374.8</ele>
        <time>2023-10-04T14:12:58.000Z</time>
      </trkpt>
      <trkpt lat="43.58206" lon="6.57588">
        <ele>374.8</ele>
        <time>2023-10-04T14:13:03.000Z</time>
      </trkpt>
      <trkpt lat="43.58208" lon="6.57581">
        <ele>375.1</ele>
        <time>2023-10-04T14:13:09.000Z</time>
      </trkpt>
      <trkpt lat="43.5821" lon="6.57576">
        <ele>375.3</ele>
        <time>2023-10-04T14:13:13.000Z</time>
      </trkpt>
      <trkpt lat="43.58213" lon="6.5757">
        <ele>375.7</ele>
        <time>2023-10-04T14:13:18.000Z</time>
      </trkpt>
      <trkpt lat="43.58215" lon="6.57564">
        <ele>376.4</ele>
        <time>2023-10-04T14:13:24.000Z</time>
      </trkpt>
      <trkpt lat="43.58217" lon="6.57557">
        <ele>377.1</ele>
        <time>2023-10-04T14:13:30.000Z</time>
      </trkpt>
      <trkpt lat="43.5822" lon="6.57552">
        <ele>377.8</ele>
        <time>2023-10-04T14:13:34.000Z</time>
      </trkpt>
      <trkpt lat="43.58221" lon="6.57545">
        <ele>378.4</ele>
        <time>2023-10-04T14:13:38.000Z</time>
      </trkpt>
      <trkpt lat="43.58222" lon="6.57539">
        <ele>379.2</ele>
        <time>2023-10-04T14:13:43.000Z</time>
      </trkpt>
      <trkpt lat="43.58222" lon="6.57532">
        <ele>380.2</ele>
        <time>2023-10-04T14:13:49.000Z</time>
      </trkpt>
      <trkpt lat="43.58221" lon="6.57525">
        <ele>381.1</ele>
        <time>2023-10-04T14:13:56.000Z</time>
      </trkpt>
      <trkpt lat="43.58223" lon="6.57519">
        <ele>381.9</ele>
        <time>2023-10-04T14:14:01.000Z</time>
      </trkpt>
      <trkpt lat="43.58223" lon="6.57511">
        <ele>383.1</ele>
        <time>2023-10-04T14:14:07.000Z</time>
      </trkpt>
      <trkpt lat="43.58223" lon="6.57504">
        <ele>384.1</ele>
        <time>2023-10-04T14:14:12.000Z</time>
      </trkpt>
      <trkpt lat="43.58225" lon="6.57498">
        <ele>384.9</ele>
        <time>2023-10-04T14:14:17.000Z</time>
      </trkpt>
      <trkpt lat="43.58226" lon="6.57491">
        <ele>385.8</ele>
        <time>2023-10-04T14:14:23.000Z</time>
      </trkpt>
      <trkpt lat="43.58229" lon="6.57486">
        <ele>386.9</ele>
        <time>2023-10-04T14:14:30.000Z</time>
      </trkpt>
      <trkpt lat="43.58232" lon="6.57481">
        <ele>387.8</ele>
        <time>2023-10-04T14:14:36.000Z</time>
      </trkpt>
      <trkpt lat="43.58234" lon="6.57475">
        <ele>388.7</ele>
        <time>2023-10-04T14:14:42.000Z</time>
      </trkpt>
      <trkpt lat="43.58237" lon="6.57468">
        <ele>389.6</ele>
        <time>2023-10-04T14:14:48.000Z</time>
      </trkpt>
      <trkpt lat="43.5824" lon="6.57462">
        <ele>390.4</ele>
        <time>2023-10-04T14:14:53.000Z</time>
      </trkpt>
      <trkpt lat="43.58243" lon="6.57457">
        <ele>391.2</ele>
        <time>2023-10-04T14:14:58.000Z</time>
      </trkpt>
      <trkpt lat="43.58246" lon="6.5745">
        <ele>392.1</ele>
        <time>2023-10-04T14:15:04.000Z</time>
      </trkpt>
      <trkpt lat="43.58249" lon="6.57444">
        <ele>393</ele>
        <time>2023-10-04T14:15:10.000Z</time>
      </trkpt>
      <trkpt lat="43.58252" lon="6.5744">
        <ele>393.7</ele>
        <time>2023-10-04T14:15:16.000Z</time>
      </trkpt>
      <trkpt lat="43.58256" lon="6.57435">
        <ele>394.5</ele>
        <time>2023-10-04T14:15:21.000Z</time>
      </trkpt>
      <trkpt lat="43.58259" lon="6.5743">
        <ele>395.2</ele>
        <time>2023-10-04T14:15:25.000Z</time>
      </trkpt>
      <trkpt lat="43.58262" lon="6.57424">
        <ele>395.9</ele>
        <time>2023-10-04T14:15:30.000Z</time>
      </trkpt>
      <trkpt lat="43.58266" lon="6.57418">
        <ele>396.3</ele>
        <time>2023-10-04T14:15:34.000Z</time>
      </trkpt>
      <trkpt lat="43.58269" lon="6.57413">
        <ele>396.7</ele>
        <time>2023-10-04T14:15:38.000Z</time>
      </trkpt>
      <trkpt lat="43.58273" lon="6.57408">
        <ele>397.2</ele>
        <time>2023-10-04T14:15:43.000Z</time>
      </trkpt>
      <trkpt lat="43.58277" lon="6.57403">
        <ele>397.8</ele>
        <time>2023-10-04T14:15:49.000Z</time>
      </trkpt>
      <trkpt lat="43.58281" lon="6.57399">
        <ele>398.4</ele>
        <time>2023-10-04T14:15:55.000Z</time>
      </trkpt>
      <trkpt lat="43.58286" lon="6.57395">
        <ele>399</ele>
        <time>2023-10-04T14:16:00.000Z</time>
      </trkpt>
      <trkpt lat="43.5829" lon="6.5739">
        <ele>399.3</ele>
        <time>2023-10-04T14:16:04.000Z</time>
      </trkpt>
      <trkpt lat="43.58294" lon="6.57386">
        <ele>399.6</ele>
        <time>2023-10-04T14:16:08.000Z</time>
      </trkpt>
      <trkpt lat="43.58298" lon="6.57381">
        <ele>399.8</ele>
        <time>2023-10-04T14:16:12.000Z</time>
      </trkpt>
      <trkpt lat="43.58302" lon="6.57376">
        <ele>400</ele>
        <time>2023-10-04T14:16:16.000Z</time>
      </trkpt>
      <trkpt lat="43.58306" lon="6.57372">
        <ele>400.3</ele>
        <time>2023-10-04T14:16:20.000Z</time>
      </trkpt>
      <trkpt lat="43.58309" lon="6.57367">
        <ele>400.5</ele>
        <time>2023-10-04T14:16:23.000Z</time>
      </trkpt>
      <trkpt lat="43.58313" lon="6.57362">
        <ele>400.7</ele>
        <time>2023-10-04T14:16:26.000Z</time>
      </trkpt>
      <trkpt lat="43.58317" lon="6.57357">
        <ele>401</ele>
        <time>2023-10-04T14:16:30.000Z</time>
      </trkpt>
      <trkpt lat="43.58321" lon="6.57351">
        <ele>401</ele>
        <time>2023-10-04T14:16:34.000Z</time>
      </trkpt>
      <trkpt lat="43.58323" lon="6.57346">
        <ele>401.1</ele>
        <time>2023-10-04T14:16:38.000Z</time>
      </trkpt>
      <trkpt lat="43.58325" lon="6.5734">
        <ele>401.2</ele>
        <time>2023-10-04T14:16:43.000Z</time>
      </trkpt>
      <trkpt lat="43.58327" lon="6.57334">
        <ele>401.2</ele>
        <time>2023-10-04T14:16:47.000Z</time>
      </trkpt>
      <trkpt lat="43.58329" lon="6.57328">
        <ele>401.2</ele>
        <time>2023-10-04T14:16:50.000Z</time>
      </trkpt>
      <trkpt lat="43.58331" lon="6.57321">
        <ele>401.2</ele>
        <time>2023-10-04T14:16:54.000Z</time>
      </trkpt>
      <trkpt lat="43.58332" lon="6.57315">
        <ele>401.2</ele>
        <time>2023-10-04T14:16:57.000Z</time>
      </trkpt>
      <trkpt lat="43.58333" lon="6.57307">
        <ele>401.2</ele>
        <time>2023-10-04T14:17:02.000Z</time>
      </trkpt>
      <trkpt lat="43.58335" lon="6.57301">
        <ele>401.2</ele>
        <time>2023-10-04T14:17:05.000Z</time>
      </trkpt>
      <trkpt lat="43.58337" lon="6.57294">
        <ele>401.1</ele>
        <time>2023-10-04T14:17:09.000Z</time>
      </trkpt>
      <trkpt lat="43.58338" lon="6.57286">
        <ele>401.1</ele>
        <time>2023-10-04T14:17:14.000Z</time>
      </trkpt>
      <trkpt lat="43.58337" lon="6.5728">
        <ele>401.1</ele>
        <time>2023-10-04T14:17:19.000Z</time>
      </trkpt>
      <trkpt lat="43.58337" lon="6.57274">
        <ele>400.8</ele>
        <time>2023-10-04T14:17:25.000Z</time>
      </trkpt>
      <trkpt lat="43.58338" lon="6.57267">
        <ele>400.6</ele>
        <time>2023-10-04T14:17:30.000Z</time>
      </trkpt>
      <trkpt lat="43.58338" lon="6.5726">
        <ele>400.6</ele>
        <time>2023-10-04T14:17:33.000Z</time>
      </trkpt>
      <trkpt lat="43.58338" lon="6.57253">
        <ele>400.3</ele>
        <time>2023-10-04T14:17:37.000Z</time>
      </trkpt>
      <trkpt lat="43.58338" lon="6.57245">
        <ele>400</ele>
        <time>2023-10-04T14:17:41.000Z</time>
      </trkpt>
      <trkpt lat="43.58337" lon="6.57238">
        <ele>399.8</ele>
        <time>2023-10-04T14:17:45.000Z</time>
      </trkpt>
      <trkpt lat="43.58335" lon="6.57231">
        <ele>399.6</ele>
        <time>2023-10-04T14:17:49.000Z</time>
      </trkpt>
      <trkpt lat="43.58334" lon="6.57224">
        <ele>399.4</ele>
        <time>2023-10-04T14:17:53.000Z</time>
      </trkpt>
      <trkpt lat="43.58334" lon="6.57216">
        <ele>399.2</ele>
        <time>2023-10-04T14:17:57.000Z</time>
      </trkpt>
      <trkpt lat="43.58336" lon="6.57209">
        <ele>399.1</ele>
        <time>2023-10-04T14:18:00.000Z</time>
      </trkpt>
      <trkpt lat="43.58336" lon="6.57202">
        <ele>399.1</ele>
        <time>2023-10-04T14:18:03.000Z</time>
      </trkpt>
      <trkpt lat="43.58337" lon="6.57195">
        <ele>399</ele>
        <time>2023-10-04T14:18:07.000Z</time>
      </trkpt>
      <trkpt lat="43.58338" lon="6.57188">
        <ele>399.1</ele>
        <time>2023-10-04T14:18:11.000Z</time>
      </trkpt>
      <trkpt lat="43.58338" lon="6.57181">
        <ele>399.1</ele>
        <time>2023-10-04T14:18:15.000Z</time>
      </trkpt>
      <trkpt lat="43.58339" lon="6.57174">
        <ele>399.3</ele>
        <time>2023-10-04T14:18:20.000Z</time>
      </trkpt>
      <trkpt lat="43.58341" lon="6.57167">
        <ele>399.4</ele>
        <time>2023-10-04T14:18:24.000Z</time>
      </trkpt>
      <trkpt lat="43.58343" lon="6.57162">
        <ele>399.7</ele>
        <time>2023-10-04T14:18:28.000Z</time>
      </trkpt>
      <trkpt lat="43.58345" lon="6.57154">
        <ele>400</ele>
        <time>2023-10-04T14:18:33.000Z</time>
      </trkpt>
      <trkpt lat="43.58347" lon="6.57148">
        <ele>400.2</ele>
        <time>2023-10-04T14:18:37.000Z</time>
      </trkpt>
      <trkpt lat="43.58349" lon="6.57142">
        <ele>400.6</ele>
        <time>2023-10-04T14:18:41.000Z</time>
      </trkpt>
      <trkpt lat="43.58351" lon="6.57135">
        <ele>401.1</ele>
        <time>2023-10-04T14:18:45.000Z</time>
      </trkpt>
      <trkpt lat="43.58353" lon="6.57128">
        <ele>401.6</ele>
        <time>2023-10-04T14:18:49.000Z</time>
      </trkpt>
      <trkpt lat="43.58355" lon="6.57122">
        <ele>401.9</ele>
        <time>2023-10-04T14:18:53.000Z</time>
      </trkpt>
      <trkpt lat="43.58359" lon="6.57117">
        <ele>402.2</ele>
        <time>2023-10-04T14:18:58.000Z</time>
      </trkpt>
      <trkpt lat="43.58363" lon="6.57112">
        <ele>402.5</ele>
        <time>2023-10-04T14:19:02.000Z</time>
      </trkpt>
      <trkpt lat="43.58367" lon="6.57107">
        <ele>402.8</ele>
        <time>2023-10-04T14:19:07.000Z</time>
      </trkpt>
      <trkpt lat="43.5837" lon="6.57102">
        <ele>403.3</ele>
        <time>2023-10-04T14:19:12.000Z</time>
      </trkpt>
      <trkpt lat="43.58373" lon="6.57096">
        <ele>403.8</ele>
        <time>2023-10-04T14:19:17.000Z</time>
      </trkpt>
      <trkpt lat="43.58377" lon="6.57093">
        <ele>404.2</ele>
        <time>2023-10-04T14:19:21.000Z</time>
      </trkpt>
      <trkpt lat="43.58382" lon="6.57089">
        <ele>404.7</ele>
        <time>2023-10-04T14:19:26.000Z</time>
      </trkpt>
      <trkpt lat="43.58387" lon="6.57087">
        <ele>405.1</ele>
        <time>2023-10-04T14:19:31.000Z</time>
      </trkpt>
      <trkpt lat="43.58391" lon="6.57084">
        <ele>405.6</ele>
        <time>2023-10-04T14:19:35.000Z</time>
      </trkpt>
      <trkpt lat="43.58396" lon="6.57082">
        <ele>406.2</ele>
        <time>2023-10-04T14:19:40.000Z</time>
      </trkpt>
      <trkpt lat="43.58401" lon="6.5708">
        <ele>406.7</ele>
        <time>2023-10-04T14:19:44.000Z</time>
      </trkpt>
      <trkpt lat="43.58406" lon="6.57077">
        <ele>407.1</ele>
        <time>2023-10-04T14:19:48.000Z</time>
      </trkpt>
      <trkpt lat="43.5841" lon="6.57075">
        <ele>407.5</ele>
        <time>2023-10-04T14:19:52.000Z</time>
      </trkpt>
      <trkpt lat="43.58415" lon="6.57072">
        <ele>407.8</ele>
        <time>2023-10-04T14:19:56.000Z</time>
      </trkpt>
      <trkpt lat="43.5842" lon="6.57071">
        <ele>408.1</ele>
        <time>2023-10-04T14:20:00.000Z</time>
      </trkpt>
      <trkpt lat="43.58425" lon="6.57071">
        <ele>408.3</ele>
        <time>2023-10-04T14:20:04.000Z</time>
      </trkpt>
      <trkpt lat="43.5843" lon="6.5707">
        <ele>408.6</ele>
        <time>2023-10-04T14:20:08.000Z</time>
      </trkpt>
      <trkpt lat="43.58435" lon="6.5707">
        <ele>408.9</ele>
        <time>2023-10-04T14:20:12.000Z</time>
      </trkpt>
      <trkpt lat="43.5844" lon="6.5707">
        <ele>409.2</ele>
        <time>2023-10-04T14:20:16.000Z</time>
      </trkpt>
      <trkpt lat="43.58446" lon="6.57069">
        <ele>409.3</ele>
        <time>2023-10-04T14:20:20.000Z</time>
      </trkpt>
      <trkpt lat="43.58451" lon="6.57069">
        <ele>409.5</ele>
        <time>2023-10-04T14:20:24.000Z</time>
      </trkpt>
      <trkpt lat="43.58455" lon="6.57068">
        <ele>409.6</ele>
        <time>2023-10-04T14:20:28.000Z</time>
      </trkpt>
      <trkpt lat="43.58461" lon="6.57067">
        <ele>409.7</ele>
        <time>2023-10-04T14:20:32.000Z</time>
      </trkpt>
      <trkpt lat="43.58466" lon="6.57066">
        <ele>409.9</ele>
        <time>2023-10-04T14:20:36.000Z</time>
      </trkpt>
      <trkpt lat="43.58471" lon="6.57064">
        <ele>410</ele>
        <time>2023-10-04T14:20:40.000Z</time>
      </trkpt>
      <trkpt lat="43.58476" lon="6.57063">
        <ele>410.1</ele>
        <time>2023-10-04T14:20:44.000Z</time>
      </trkpt>
      <trkpt lat="43.58482" lon="6.57062">
        <ele>410.3</ele>
        <time>2023-10-04T14:20:49.000Z</time>
      </trkpt>
      <trkpt lat="43.58486" lon="6.57059">
        <ele>410.3</ele>
        <time>2023-10-04T14:20:54.000Z</time>
      </trkpt>
      <trkpt lat="43.58491" lon="6.57056">
        <ele>410.3</ele>
        <time>2023-10-04T14:20:58.000Z</time>
      </trkpt>
      <trkpt lat="43.58496" lon="6.57053">
        <ele>410.3</ele>
        <time>2023-10-04T14:21:02.000Z</time>
      </trkpt>
      <trkpt lat="43.585" lon="6.5705">
        <ele>410.3</ele>
        <time>2023-10-04T14:21:06.000Z</time>
      </trkpt>
      <trkpt lat="43.58505" lon="6.57047">
        <ele>410.3</ele>
        <time>2023-10-04T14:21:10.000Z</time>
      </trkpt>
      <trkpt lat="43.5851" lon="6.57043">
        <ele>410.3</ele>
        <time>2023-10-04T14:21:14.000Z</time>
      </trkpt>
      <trkpt lat="43.58515" lon="6.57041">
        <ele>410.5</ele>
        <time>2023-10-04T14:21:18.000Z</time>
      </trkpt>
      <trkpt lat="43.5852" lon="6.57038">
        <ele>410.6</ele>
        <time>2023-10-04T14:21:22.000Z</time>
      </trkpt>
      <trkpt lat="43.58525" lon="6.57037">
        <ele>410.8</ele>
        <time>2023-10-04T14:21:26.000Z</time>
      </trkpt>
      <trkpt lat="43.5853" lon="6.57034">
        <ele>410.9</ele>
        <time>2023-10-04T14:21:30.000Z</time>
      </trkpt>
      <trkpt lat="43.58535" lon="6.57032">
        <ele>411</ele>
        <time>2023-10-04T14:21:34.000Z</time>
      </trkpt>
      <trkpt lat="43.5854" lon="6.5703">
        <ele>411</ele>
        <time>2023-10-04T14:21:38.000Z</time>
      </trkpt>
      <trkpt lat="43.58544" lon="6.57028">
        <ele>411.1</ele>
        <time>2023-10-04T14:21:42.000Z</time>
      </trkpt>
      <trkpt lat="43.58548" lon="6.57026">
        <ele>411.2</ele>
        <time>2023-10-04T14:21:46.000Z</time>
      </trkpt>
      <trkpt lat="43.58553" lon="6.57025">
        <ele>411.3</ele>
        <time>2023-10-04T14:21:50.000Z</time>
      </trkpt>
      <trkpt lat="43.58557" lon="6.57025">
        <ele>411.4</ele>
        <time>2023-10-04T14:21:54.000Z</time>
      </trkpt>
      <trkpt lat="43.58562" lon="6.57024">
        <ele>411.4</ele>
        <time>2023-10-04T14:21:58.000Z</time>
      </trkpt>
      <trkpt lat="43.58568" lon="6.57023">
        <ele>411.6</ele>
        <time>2023-10-04T14:22:02.000Z</time>
      </trkpt>
      <trkpt lat="43.58573" lon="6.57021">
        <ele>411.9</ele>
        <time>2023-10-04T14:22:07.000Z</time>
      </trkpt>
      <trkpt lat="43.58577" lon="6.5702">
        <ele>412.1</ele>
        <time>2023-10-04T14:22:11.000Z</time>
      </trkpt>
      <trkpt lat="43.58582" lon="6.57018">
        <ele>412.2</ele>
        <time>2023-10-04T14:22:15.000Z</time>
      </trkpt>
      <trkpt lat="43.58587" lon="6.57016">
        <ele>412.4</ele>
        <time>2023-10-04T14:22:20.000Z</time>
      </trkpt>
      <trkpt lat="43.58591" lon="6.57013">
        <ele>412.7</ele>
        <time>2023-10-04T14:22:25.000Z</time>
      </trkpt>
      <trkpt lat="43.58595" lon="6.57009">
        <ele>412.9</ele>
        <time>2023-10-04T14:22:29.000Z</time>
      </trkpt>
      <trkpt lat="43.58599" lon="6.57004">
        <ele>413.2</ele>
        <time>2023-10-04T14:22:33.000Z</time>
      </trkpt>
      <trkpt lat="43.58602" lon="6.56999">
        <ele>413.5</ele>
        <time>2023-10-04T14:22:37.000Z</time>
      </trkpt>
      <trkpt lat="43.58606" lon="6.56994">
        <ele>413.9</ele>
        <time>2023-10-04T14:22:42.000Z</time>
      </trkpt>
      <trkpt lat="43.58608" lon="6.56988">
        <ele>414.4</ele>
        <time>2023-10-04T14:22:47.000Z</time>
      </trkpt>
      <trkpt lat="43.58612" lon="6.56983">
        <ele>414.9</ele>
        <time>2023-10-04T14:22:52.000Z</time>
      </trkpt>
      <trkpt lat="43.58616" lon="6.56979">
        <ele>415.5</ele>
        <time>2023-10-04T14:22:57.000Z</time>
      </trkpt>
      <trkpt lat="43.58619" lon="6.56974">
        <ele>416.1</ele>
        <time>2023-10-04T14:23:02.000Z</time>
      </trkpt>
      <trkpt lat="43.58622" lon="6.56968">
        <ele>416.5</ele>
        <time>2023-10-04T14:23:06.000Z</time>
      </trkpt>
      <trkpt lat="43.58625" lon="6.56963">
        <ele>416.9</ele>
        <time>2023-10-04T14:23:11.000Z</time>
      </trkpt>
      <trkpt lat="43.58628" lon="6.56957">
        <ele>417.3</ele>
        <time>2023-10-04T14:23:16.000Z</time>
      </trkpt>
      <trkpt lat="43.58632" lon="6.56953">
        <ele>417.7</ele>
        <time>2023-10-04T14:23:20.000Z</time>
      </trkpt>
      <trkpt lat="43.58636" lon="6.56948">
        <ele>418.1</ele>
        <time>2023-10-04T14:23:24.000Z</time>
      </trkpt>
      <trkpt lat="43.5864" lon="6.56944">
        <ele>418.5</ele>
        <time>2023-10-04T14:23:28.000Z</time>
      </trkpt>
      <trkpt lat="43.58645" lon="6.5694">
        <ele>419</ele>
        <time>2023-10-04T14:23:33.000Z</time>
      </trkpt>
      <trkpt lat="43.58649" lon="6.56937">
        <ele>419.4</ele>
        <time>2023-10-04T14:23:38.000Z</time>
      </trkpt>
      <trkpt lat="43.58652" lon="6.56932">
        <ele>419.8</ele>
        <time>2023-10-04T14:23:43.000Z</time>
      </trkpt>
      <trkpt lat="43.58656" lon="6.56928">
        <ele>420.2</ele>
        <time>2023-10-04T14:23:48.000Z</time>
      </trkpt>
      <trkpt lat="43.5866" lon="6.56924">
        <ele>420.8</ele>
        <time>2023-10-04T14:23:53.000Z</time>
      </trkpt>
      <trkpt lat="43.58664" lon="6.56921">
        <ele>421.3</ele>
        <time>2023-10-04T14:23:57.000Z</time>
      </trkpt>
      <trkpt lat="43.58669" lon="6.56917">
        <ele>421.9</ele>
        <time>2023-10-04T14:24:02.000Z</time>
      </trkpt>
      <trkpt lat="43.58673" lon="6.56914">
        <ele>422.3</ele>
        <time>2023-10-04T14:24:06.000Z</time>
      </trkpt>
      <trkpt lat="43.58678" lon="6.5691">
        <ele>422.8</ele>
        <time>2023-10-04T14:24:11.000Z</time>
      </trkpt>
      <trkpt lat="43.58682" lon="6.56906">
        <ele>423.2</ele>
        <time>2023-10-04T14:24:16.000Z</time>
      </trkpt>
      <trkpt lat="43.58687" lon="6.56902">
        <ele>423.6</ele>
        <time>2023-10-04T14:24:21.000Z</time>
      </trkpt>
      <trkpt lat="43.58691" lon="6.56897">
        <ele>424.2</ele>
        <time>2023-10-04T14:24:27.000Z</time>
      </trkpt>
      <trkpt lat="43.58695" lon="6.56893">
        <ele>424.6</ele>
        <time>2023-10-04T14:24:32.000Z</time>
      </trkpt>
      <trkpt lat="43.58699" lon="6.56889">
        <ele>425.1</ele>
        <time>2023-10-04T14:24:38.000Z</time>
      </trkpt>
      <trkpt lat="43.58703" lon="6.56886">
        <ele>425.4</ele>
        <time>2023-10-04T14:24:43.000Z</time>
      </trkpt>
      <trkpt lat="43.58708" lon="6.56883">
        <ele>425.7</ele>
        <time>2023-10-04T14:24:58.000Z</time>
      </trkpt>
      <trkpt lat="43.58705" lon="6.56889">
        <ele>425.7</ele>
        <time>2023-10-04T14:26:17.000Z</time>
      </trkpt>
      <trkpt lat="43.58707" lon="6.56883">
        <ele>424.9</ele>
        <time>2023-10-04T14:27:33.000Z</time>
      </trkpt>
      <trkpt lat="43.58705" lon="6.56889">
        <ele>423.8</ele>
        <time>2023-10-04T14:28:41.000Z</time>
      </trkpt>
      <trkpt lat="43.58707" lon="6.56883">
        <ele>422.7</ele>
        <time>2023-10-04T14:29:58.000Z</time>
      </trkpt>
      <trkpt lat="43.5871" lon="6.56877">
        <ele>423.3</ele>
        <time>2023-10-04T14:32:57.000Z</time>
      </trkpt>
      <trkpt lat="43.58713" lon="6.56873">
        <ele>423.4</ele>
        <time>2023-10-04T14:33:03.000Z</time>
      </trkpt>
      <trkpt lat="43.58716" lon="6.56867">
        <ele>423.4</ele>
        <time>2023-10-04T14:33:09.000Z</time>
      </trkpt>
      <trkpt lat="43.58718" lon="6.56862">
        <ele>423.5</ele>
        <time>2023-10-04T14:33:15.000Z</time>
      </trkpt>
      <trkpt lat="43.5872" lon="6.56856">
        <ele>423.5</ele>
        <time>2023-10-04T14:33:20.000Z</time>
      </trkpt>
      <trkpt lat="43.58722" lon="6.5685">
        <ele>423.5</ele>
        <time>2023-10-04T14:33:24.000Z</time>
      </trkpt>
      <trkpt lat="43.58724" lon="6.56844">
        <ele>423.6</ele>
        <time>2023-10-04T14:33:28.000Z</time>
      </trkpt>
      <trkpt lat="43.58726" lon="6.56836">
        <ele>423.6</ele>
        <time>2023-10-04T14:33:32.000Z</time>
      </trkpt>
      <trkpt lat="43.58727" lon="6.5683">
        <ele>423.6</ele>
        <time>2023-10-04T14:33:36.000Z</time>
      </trkpt>
      <trkpt lat="43.58728" lon="6.56824">
        <ele>423.6</ele>
        <time>2023-10-04T14:33:40.000Z</time>
      </trkpt>
      <trkpt lat="43.58729" lon="6.56818">
        <ele>423.6</ele>
        <time>2023-10-04T14:33:44.000Z</time>
      </trkpt>
      <trkpt lat="43.5873" lon="6.56811">
        <ele>423.6</ele>
        <time>2023-10-04T14:33:48.000Z</time>
      </trkpt>
      <trkpt lat="43.58732" lon="6.56805">
        <ele>423.5</ele>
        <time>2023-10-04T14:33:52.000Z</time>
      </trkpt>
      <trkpt lat="43.58733" lon="6.56798">
        <ele>423.4</ele>
        <time>2023-10-04T14:33:56.000Z</time>
      </trkpt>
      <trkpt lat="43.58733" lon="6.56791">
        <ele>423.3</ele>
        <time>2023-10-04T14:34:00.000Z</time>
      </trkpt>
      <trkpt lat="43.58733" lon="6.56784">
        <ele>423.2</ele>
        <time>2023-10-04T14:34:05.000Z</time>
      </trkpt>
      <trkpt lat="43.58735" lon="6.56776">
        <ele>423.2</ele>
        <time>2023-10-04T14:34:09.000Z</time>
      </trkpt>
      <trkpt lat="43.58736" lon="6.56769">
        <ele>423.2</ele>
        <time>2023-10-04T14:34:14.000Z</time>
      </trkpt>
      <trkpt lat="43.58737" lon="6.56762">
        <ele>423.3</ele>
        <time>2023-10-04T14:34:18.000Z</time>
      </trkpt>
      <trkpt lat="43.58738" lon="6.56755">
        <ele>423.3</ele>
        <time>2023-10-04T14:34:22.000Z</time>
      </trkpt>
      <trkpt lat="43.58738" lon="6.56747">
        <ele>423.4</ele>
        <time>2023-10-04T14:34:26.000Z</time>
      </trkpt>
      <trkpt lat="43.58738" lon="6.56741">
        <ele>423.4</ele>
        <time>2023-10-04T14:34:30.000Z</time>
      </trkpt>
      <trkpt lat="43.58738" lon="6.56735">
        <ele>423.5</ele>
        <time>2023-10-04T14:34:34.000Z</time>
      </trkpt>
      <trkpt lat="43.58737" lon="6.56727">
        <ele>423.6</ele>
        <time>2023-10-04T14:34:39.000Z</time>
      </trkpt>
      <trkpt lat="43.58737" lon="6.56719">
        <ele>423.7</ele>
        <time>2023-10-04T14:34:45.000Z</time>
      </trkpt>
      <trkpt lat="43.58737" lon="6.56713">
        <ele>423.7</ele>
        <time>2023-10-04T14:34:48.000Z</time>
      </trkpt>
      <trkpt lat="43.58737" lon="6.56706">
        <ele>423.7</ele>
        <time>2023-10-04T14:34:51.000Z</time>
      </trkpt>
      <trkpt lat="43.58738" lon="6.56699">
        <ele>423.7</ele>
        <time>2023-10-04T14:34:55.000Z</time>
      </trkpt>
      <trkpt lat="43.58738" lon="6.56692">
        <ele>423.7</ele>
        <time>2023-10-04T14:34:59.000Z</time>
      </trkpt>
      <trkpt lat="43.58739" lon="6.56686">
        <ele>423.7</ele>
        <time>2023-10-04T14:35:03.000Z</time>
      </trkpt>
      <trkpt lat="43.5874" lon="6.5668">
        <ele>423.6</ele>
        <time>2023-10-04T14:35:07.000Z</time>
      </trkpt>
      <trkpt lat="43.5874" lon="6.56673">
        <ele>423.6</ele>
        <time>2023-10-04T14:35:11.000Z</time>
      </trkpt>
      <trkpt lat="43.58739" lon="6.56667">
        <ele>423.6</ele>
        <time>2023-10-04T14:35:16.000Z</time>
      </trkpt>
      <trkpt lat="43.5874" lon="6.56659">
        <ele>423.6</ele>
        <time>2023-10-04T14:35:22.000Z</time>
      </trkpt>
      <trkpt lat="43.5874" lon="6.56653">
        <ele>423.6</ele>
        <time>2023-10-04T14:35:27.000Z</time>
      </trkpt>
      <trkpt lat="43.58741" lon="6.56647">
        <ele>423.7</ele>
        <time>2023-10-04T14:35:31.000Z</time>
      </trkpt>
      <trkpt lat="43.58742" lon="6.5664">
        <ele>423.8</ele>
        <time>2023-10-04T14:35:36.000Z</time>
      </trkpt>
      <trkpt lat="43.58742" lon="6.56633">
        <ele>423.9</ele>
        <time>2023-10-04T14:35:41.000Z</time>
      </trkpt>
      <trkpt lat="43.58743" lon="6.56626">
        <ele>424</ele>
        <time>2023-10-04T14:35:46.000Z</time>
      </trkpt>
      <trkpt lat="43.58744" lon="6.56619">
        <ele>424.2</ele>
        <time>2023-10-04T14:35:51.000Z</time>
      </trkpt>
      <trkpt lat="43.58745" lon="6.56612">
        <ele>424.4</ele>
        <time>2023-10-04T14:35:56.000Z</time>
      </trkpt>
      <trkpt lat="43.58746" lon="6.56605">
        <ele>424.7</ele>
        <time>2023-10-04T14:36:01.000Z</time>
      </trkpt>
      <trkpt lat="43.58747" lon="6.56598">
        <ele>424.8</ele>
        <time>2023-10-04T14:36:06.000Z</time>
      </trkpt>
      <trkpt lat="43.58748" lon="6.56592">
        <ele>425</ele>
        <time>2023-10-04T14:36:10.000Z</time>
      </trkpt>
      <trkpt lat="43.58748" lon="6.56585">
        <ele>425.3</ele>
        <time>2023-10-04T14:36:14.000Z</time>
      </trkpt>
      <trkpt lat="43.58749" lon="6.56578">
        <ele>425.6</ele>
        <time>2023-10-04T14:36:19.000Z</time>
      </trkpt>
      <trkpt lat="43.5875" lon="6.56571">
        <ele>425.9</ele>
        <time>2023-10-04T14:36:24.000Z</time>
      </trkpt>
      <trkpt lat="43.58751" lon="6.56564">
        <ele>426.1</ele>
        <time>2023-10-04T14:36:29.000Z</time>
      </trkpt>
      <trkpt lat="43.58752" lon="6.56557">
        <ele>426.4</ele>
        <time>2023-10-04T14:36:34.000Z</time>
      </trkpt>
      <trkpt lat="43.58753" lon="6.5655">
        <ele>426.7</ele>
        <time>2023-10-04T14:36:39.000Z</time>
      </trkpt>
      <trkpt lat="43.58754" lon="6.56544">
        <ele>427</ele>
        <time>2023-10-04T14:36:45.000Z</time>
      </trkpt>
      <trkpt lat="43.58754" lon="6.56537">
        <ele>427.3</ele>
        <time>2023-10-04T14:36:50.000Z</time>
      </trkpt>
      <trkpt lat="43.58755" lon="6.5653">
        <ele>427.5</ele>
        <time>2023-10-04T14:36:54.000Z</time>
      </trkpt>
      <trkpt lat="43.58755" lon="6.56523">
        <ele>427.7</ele>
        <time>2023-10-04T14:36:59.000Z</time>
      </trkpt>
      <trkpt lat="43.58756" lon="6.56516">
        <ele>427.9</ele>
        <time>2023-10-04T14:37:04.000Z</time>
      </trkpt>
      <trkpt lat="43.58756" lon="6.56509">
        <ele>428</ele>
        <time>2023-10-04T14:37:09.000Z</time>
      </trkpt>
      <trkpt lat="43.58756" lon="6.56502">
        <ele>428.2</ele>
        <time>2023-10-04T14:37:14.000Z</time>
      </trkpt>
      <trkpt lat="43.58756" lon="6.56495">
        <ele>428.2</ele>
        <time>2023-10-04T14:37:18.000Z</time>
      </trkpt>
      <trkpt lat="43.58758" lon="6.56489">
        <ele>428.3</ele>
        <time>2023-10-04T14:37:22.000Z</time>
      </trkpt>
      <trkpt lat="43.58759" lon="6.56481">
        <ele>428.4</ele>
        <time>2023-10-04T14:37:26.000Z</time>
      </trkpt>
      <trkpt lat="43.58761" lon="6.56474">
        <ele>428.5</ele>
        <time>2023-10-04T14:37:30.000Z</time>
      </trkpt>
      <trkpt lat="43.58761" lon="6.56468">
        <ele>428.6</ele>
        <time>2023-10-04T14:37:34.000Z</time>
      </trkpt>
      <trkpt lat="43.58761" lon="6.56461">
        <ele>428.6</ele>
        <time>2023-10-04T14:37:38.000Z</time>
      </trkpt>
      <trkpt lat="43.58763" lon="6.56454">
        <ele>428.7</ele>
        <time>2023-10-04T14:37:43.000Z</time>
      </trkpt>
      <trkpt lat="43.58763" lon="6.56448">
        <ele>428.7</ele>
        <time>2023-10-04T14:37:47.000Z</time>
      </trkpt>
      <trkpt lat="43.58765" lon="6.56441">
        <ele>428.8</ele>
        <time>2023-10-04T14:37:52.000Z</time>
      </trkpt>
      <trkpt lat="43.58766" lon="6.56434">
        <ele>428.8</ele>
        <time>2023-10-04T14:37:58.000Z</time>
      </trkpt>
      <trkpt lat="43.58768" lon="6.56427">
        <ele>428.8</ele>
        <time>2023-10-04T14:38:03.000Z</time>
      </trkpt>
      <trkpt lat="43.58769" lon="6.5642">
        <ele>428.7</ele>
        <time>2023-10-04T14:38:09.000Z</time>
      </trkpt>
      <trkpt lat="43.5877" lon="6.56413">
        <ele>428.6</ele>
        <time>2023-10-04T14:38:14.000Z</time>
      </trkpt>
      <trkpt lat="43.58771" lon="6.56407">
        <ele>428.5</ele>
        <time>2023-10-04T14:38:23.000Z</time>
      </trkpt>
      <trkpt lat="43.58772" lon="6.564">
        <ele>428.5</ele>
        <time>2023-10-04T14:38:28.000Z</time>
      </trkpt>
      <trkpt lat="43.58773" lon="6.56393">
        <ele>428.4</ele>
        <time>2023-10-04T14:38:33.000Z</time>
      </trkpt>
      <trkpt lat="43.58773" lon="6.56386">
        <ele>428.3</ele>
        <time>2023-10-04T14:38:38.000Z</time>
      </trkpt>
      <trkpt lat="43.58774" lon="6.56379">
        <ele>428.2</ele>
        <time>2023-10-04T14:38:43.000Z</time>
      </trkpt>
      <trkpt lat="43.58775" lon="6.56373">
        <ele>428.1</ele>
        <time>2023-10-04T14:38:48.000Z</time>
      </trkpt>
      <trkpt lat="43.58776" lon="6.56365">
        <ele>427.8</ele>
        <time>2023-10-04T14:38:53.000Z</time>
      </trkpt>
      <trkpt lat="43.58778" lon="6.56358">
        <ele>427.4</ele>
        <time>2023-10-04T14:38:58.000Z</time>
      </trkpt>
      <trkpt lat="43.58779" lon="6.5635">
        <ele>427</ele>
        <time>2023-10-04T14:39:03.000Z</time>
      </trkpt>
      <trkpt lat="43.58781" lon="6.56344">
        <ele>426.7</ele>
        <time>2023-10-04T14:39:08.000Z</time>
      </trkpt>
      <trkpt lat="43.58783" lon="6.56336">
        <ele>426.5</ele>
        <time>2023-10-04T14:39:13.000Z</time>
      </trkpt>
      <trkpt lat="43.58784" lon="6.5633">
        <ele>426.4</ele>
        <time>2023-10-04T14:39:17.000Z</time>
      </trkpt>
      <trkpt lat="43.58785" lon="6.56323">
        <ele>426.2</ele>
        <time>2023-10-04T14:39:22.000Z</time>
      </trkpt>
      <trkpt lat="43.58786" lon="6.56316">
        <ele>426</ele>
        <time>2023-10-04T14:39:27.000Z</time>
      </trkpt>
      <trkpt lat="43.58786" lon="6.5631">
        <ele>425.8</ele>
        <time>2023-10-04T14:39:32.000Z</time>
      </trkpt>
      <trkpt lat="43.58786" lon="6.56303">
        <ele>425.6</ele>
        <time>2023-10-04T14:39:36.000Z</time>
      </trkpt>
      <trkpt lat="43.58786" lon="6.56296">
        <ele>425.2</ele>
        <time>2023-10-04T14:39:41.000Z</time>
      </trkpt>
      <trkpt lat="43.58786" lon="6.56288">
        <ele>424.7</ele>
        <time>2023-10-04T14:39:46.000Z</time>
      </trkpt>
      <trkpt lat="43.58786" lon="6.56282">
        <ele>424.5</ele>
        <time>2023-10-04T14:39:50.000Z</time>
      </trkpt>
      <trkpt lat="43.58785" lon="6.56275">
        <ele>424.3</ele>
        <time>2023-10-04T14:39:54.000Z</time>
      </trkpt>
      <trkpt lat="43.58784" lon="6.56269">
        <ele>424</ele>
        <time>2023-10-04T14:39:58.000Z</time>
      </trkpt>
      <trkpt lat="43.58783" lon="6.56263">
        <ele>423.8</ele>
        <time>2023-10-04T14:40:02.000Z</time>
      </trkpt>
      <trkpt lat="43.58781" lon="6.56257">
        <ele>423.5</ele>
        <time>2023-10-04T14:40:06.000Z</time>
      </trkpt>
      <trkpt lat="43.5878" lon="6.5625">
        <ele>423.1</ele>
        <time>2023-10-04T14:40:10.000Z</time>
      </trkpt>
      <trkpt lat="43.58779" lon="6.56243">
        <ele>422.8</ele>
        <time>2023-10-04T14:40:14.000Z</time>
      </trkpt>
      <trkpt lat="43.58777" lon="6.56237">
        <ele>422.5</ele>
        <time>2023-10-04T14:40:18.000Z</time>
      </trkpt>
      <trkpt lat="43.58776" lon="6.5623">
        <ele>422.3</ele>
        <time>2023-10-04T14:40:22.000Z</time>
      </trkpt>
      <trkpt lat="43.58774" lon="6.56223">
        <ele>422</ele>
        <time>2023-10-04T14:40:27.000Z</time>
      </trkpt>
      <trkpt lat="43.58771" lon="6.56217">
        <ele>421.7</ele>
        <time>2023-10-04T14:40:32.000Z</time>
      </trkpt>
      <trkpt lat="43.58769" lon="6.5621">
        <ele>421.4</ele>
        <time>2023-10-04T14:40:36.000Z</time>
      </trkpt>
      <trkpt lat="43.58767" lon="6.56204">
        <ele>421.2</ele>
        <time>2023-10-04T14:40:40.000Z</time>
      </trkpt>
      <trkpt lat="43.58766" lon="6.56198">
        <ele>421</ele>
        <time>2023-10-04T14:40:44.000Z</time>
      </trkpt>
      <trkpt lat="43.58764" lon="6.5619">
        <ele>420.8</ele>
        <time>2023-10-04T14:40:49.000Z</time>
      </trkpt>
      <trkpt lat="43.58763" lon="6.56183">
        <ele>420.7</ele>
        <time>2023-10-04T14:40:53.000Z</time>
      </trkpt>
      <trkpt lat="43.58761" lon="6.56177">
        <ele>420.5</ele>
        <time>2023-10-04T14:40:57.000Z</time>
      </trkpt>
      <trkpt lat="43.5876" lon="6.5617">
        <ele>420.2</ele>
        <time>2023-10-04T14:41:01.000Z</time>
      </trkpt>
      <trkpt lat="43.58761" lon="6.56163">
        <ele>420.1</ele>
        <time>2023-10-04T14:41:06.000Z</time>
      </trkpt>
      <trkpt lat="43.58762" lon="6.56157">
        <ele>419.9</ele>
        <time>2023-10-04T14:41:10.000Z</time>
      </trkpt>
      <trkpt lat="43.58765" lon="6.56151">
        <ele>419.8</ele>
        <time>2023-10-04T14:41:14.000Z</time>
      </trkpt>
      <trkpt lat="43.58767" lon="6.56144">
        <ele>419.8</ele>
        <time>2023-10-04T14:41:19.000Z</time>
      </trkpt>
      <trkpt lat="43.58771" lon="6.56138">
        <ele>419.7</ele>
        <time>2023-10-04T14:41:24.000Z</time>
      </trkpt>
      <trkpt lat="43.58774" lon="6.56133">
        <ele>419.7</ele>
        <time>2023-10-04T14:41:28.000Z</time>
      </trkpt>
      <trkpt lat="43.58777" lon="6.56127">
        <ele>419.6</ele>
        <time>2023-10-04T14:41:33.000Z</time>
      </trkpt>
      <trkpt lat="43.5878" lon="6.56123">
        <ele>419.6</ele>
        <time>2023-10-04T14:41:37.000Z</time>
      </trkpt>
      <trkpt lat="43.58783" lon="6.56118">
        <ele>419.6</ele>
        <time>2023-10-04T14:41:41.000Z</time>
      </trkpt>
      <trkpt lat="43.58787" lon="6.56113">
        <ele>419.6</ele>
        <time>2023-10-04T14:41:46.000Z</time>
      </trkpt>
      <trkpt lat="43.5879" lon="6.56107">
        <ele>419.5</ele>
        <time>2023-10-04T14:41:51.000Z</time>
      </trkpt>
      <trkpt lat="43.58794" lon="6.56102">
        <ele>419.5</ele>
        <time>2023-10-04T14:41:56.000Z</time>
      </trkpt>
      <trkpt lat="43.58797" lon="6.56096">
        <ele>419.6</ele>
        <time>2023-10-04T14:42:01.000Z</time>
      </trkpt>
      <trkpt lat="43.588" lon="6.5609">
        <ele>419.7</ele>
        <time>2023-10-04T14:42:06.000Z</time>
      </trkpt>
      <trkpt lat="43.58803" lon="6.56083">
        <ele>419.6</ele>
        <time>2023-10-04T14:42:11.000Z</time>
      </trkpt>
      <trkpt lat="43.58805" lon="6.56077">
        <ele>419.5</ele>
        <time>2023-10-04T14:42:16.000Z</time>
      </trkpt>
      <trkpt lat="43.58807" lon="6.56071">
        <ele>419.3</ele>
        <time>2023-10-04T14:42:20.000Z</time>
      </trkpt>
      <trkpt lat="43.58809" lon="6.56065">
        <ele>419.1</ele>
        <time>2023-10-04T14:42:24.000Z</time>
      </trkpt>
      <trkpt lat="43.58811" lon="6.56059">
        <ele>418.9</ele>
        <time>2023-10-04T14:42:28.000Z</time>
      </trkpt>
      <trkpt lat="43.58813" lon="6.56053">
        <ele>418.8</ele>
        <time>2023-10-04T14:42:32.000Z</time>
      </trkpt>
      <trkpt lat="43.58815" lon="6.56047">
        <ele>418.6</ele>
        <time>2023-10-04T14:42:36.000Z</time>
      </trkpt>
      <trkpt lat="43.58817" lon="6.56041">
        <ele>418.3</ele>
        <time>2023-10-04T14:42:40.000Z</time>
      </trkpt>
      <trkpt lat="43.58818" lon="6.56034">
        <ele>418</ele>
        <time>2023-10-04T14:42:45.000Z</time>
      </trkpt>
      <trkpt lat="43.58819" lon="6.56027">
        <ele>417.6</ele>
        <time>2023-10-04T14:42:50.000Z</time>
      </trkpt>
      <trkpt lat="43.58821" lon="6.5602">
        <ele>417.3</ele>
        <time>2023-10-04T14:42:55.000Z</time>
      </trkpt>
      <trkpt lat="43.58822" lon="6.56013">
        <ele>417.1</ele>
        <time>2023-10-04T14:43:00.000Z</time>
      </trkpt>
      <trkpt lat="43.58823" lon="6.56006">
        <ele>416.9</ele>
        <time>2023-10-04T14:43:04.000Z</time>
      </trkpt>
      <trkpt lat="43.58825" lon="6.55999">
        <ele>416.6</ele>
        <time>2023-10-04T14:43:09.000Z</time>
      </trkpt>
      <trkpt lat="43.58826" lon="6.55993">
        <ele>416.4</ele>
        <time>2023-10-04T14:43:13.000Z</time>
      </trkpt>
      <trkpt lat="43.58827" lon="6.55986">
        <ele>416.2</ele>
        <time>2023-10-04T14:43:17.000Z</time>
      </trkpt>
      <trkpt lat="43.58828" lon="6.55979">
        <ele>415.9</ele>
        <time>2023-10-04T14:43:22.000Z</time>
      </trkpt>
      <trkpt lat="43.58829" lon="6.55973">
        <ele>415.8</ele>
        <time>2023-10-04T14:43:26.000Z</time>
      </trkpt>
      <trkpt lat="43.58829" lon="6.55966">
        <ele>415.7</ele>
        <time>2023-10-04T14:43:30.000Z</time>
      </trkpt>
      <trkpt lat="43.5883" lon="6.5596">
        <ele>415.5</ele>
        <time>2023-10-04T14:43:34.000Z</time>
      </trkpt>
      <trkpt lat="43.5883" lon="6.55953">
        <ele>415.1</ele>
        <time>2023-10-04T14:43:38.000Z</time>
      </trkpt>
      <trkpt lat="43.58831" lon="6.55945">
        <ele>414.7</ele>
        <time>2023-10-04T14:43:43.000Z</time>
      </trkpt>
      <trkpt lat="43.58831" lon="6.55939">
        <ele>414.2</ele>
        <time>2023-10-04T14:43:49.000Z</time>
      </trkpt>
      <trkpt lat="43.58833" lon="6.55931">
        <ele>413.8</ele>
        <time>2023-10-04T14:43:54.000Z</time>
      </trkpt>
      <trkpt lat="43.58834" lon="6.55925">
        <ele>413.5</ele>
        <time>2023-10-04T14:43:58.000Z</time>
      </trkpt>
      <trkpt lat="43.58834" lon="6.55917">
        <ele>413.3</ele>
        <time>2023-10-04T14:44:02.000Z</time>
      </trkpt>
      <trkpt lat="43.58836" lon="6.55909">
        <ele>413.1</ele>
        <time>2023-10-04T14:44:06.000Z</time>
      </trkpt>
      <trkpt lat="43.58838" lon="6.55903">
        <ele>412.9</ele>
        <time>2023-10-04T14:44:09.000Z</time>
      </trkpt>
      <trkpt lat="43.58839" lon="6.55897">
        <ele>412.7</ele>
        <time>2023-10-04T14:44:13.000Z</time>
      </trkpt>
      <trkpt lat="43.58841" lon="6.55891">
        <ele>412.6</ele>
        <time>2023-10-04T14:44:17.000Z</time>
      </trkpt>
      <trkpt lat="43.58842" lon="6.55884">
        <ele>412.5</ele>
        <time>2023-10-04T14:44:21.000Z</time>
      </trkpt>
      <trkpt lat="43.58843" lon="6.55878">
        <ele>412.3</ele>
        <time>2023-10-04T14:44:26.000Z</time>
      </trkpt>
      <trkpt lat="43.58844" lon="6.55871">
        <ele>412</ele>
        <time>2023-10-04T14:44:31.000Z</time>
      </trkpt>
      <trkpt lat="43.58846" lon="6.55865">
        <ele>411.8</ele>
        <time>2023-10-04T14:44:35.000Z</time>
      </trkpt>
      <trkpt lat="43.58848" lon="6.55859">
        <ele>411.7</ele>
        <time>2023-10-04T14:44:39.000Z</time>
      </trkpt>
      <trkpt lat="43.58851" lon="6.55852">
        <ele>411.5</ele>
        <time>2023-10-04T14:44:44.000Z</time>
      </trkpt>
      <trkpt lat="43.58854" lon="6.55845">
        <ele>411.1</ele>
        <time>2023-10-04T14:44:49.000Z</time>
      </trkpt>
      <trkpt lat="43.58856" lon="6.5584">
        <ele>410.8</ele>
        <time>2023-10-04T14:44:53.000Z</time>
      </trkpt>
      <trkpt lat="43.58859" lon="6.55834">
        <ele>410.5</ele>
        <time>2023-10-04T14:44:58.000Z</time>
      </trkpt>
      <trkpt lat="43.58862" lon="6.55828">
        <ele>410.3</ele>
        <time>2023-10-04T14:45:02.000Z</time>
      </trkpt>
      <trkpt lat="43.58864" lon="6.55823">
        <ele>410.1</ele>
        <time>2023-10-04T14:45:06.000Z</time>
      </trkpt>
      <trkpt lat="43.58866" lon="6.55817">
        <ele>410</ele>
        <time>2023-10-04T14:45:11.000Z</time>
      </trkpt>
      <trkpt lat="43.58867" lon="6.55811">
        <ele>410</ele>
        <time>2023-10-04T14:45:33.000Z</time>
      </trkpt>
      <trkpt lat="43.58871" lon="6.55813">
        <ele>409.8</ele>
        <time>2023-10-04T14:46:54.000Z</time>
      </trkpt>
      <trkpt lat="43.58868" lon="6.55807">
        <ele>409.8</ele>
        <time>2023-10-04T14:47:13.000Z</time>
      </trkpt>
      <trkpt lat="43.58868" lon="6.558">
        <ele>409.8</ele>
        <time>2023-10-04T14:47:18.000Z</time>
      </trkpt>
      <trkpt lat="43.58867" lon="6.55792">
        <ele>409.8</ele>
        <time>2023-10-04T14:47:23.000Z</time>
      </trkpt>
      <trkpt lat="43.58867" lon="6.55785">
        <ele>409.8</ele>
        <time>2023-10-04T14:47:28.000Z</time>
      </trkpt>
      <trkpt lat="43.58867" lon="6.55778">
        <ele>409.7</ele>
        <time>2023-10-04T14:47:34.000Z</time>
      </trkpt>
      <trkpt lat="43.58867" lon="6.55771">
        <ele>409.6</ele>
        <time>2023-10-04T14:47:39.000Z</time>
      </trkpt>
      <trkpt lat="43.58866" lon="6.55764">
        <ele>409.5</ele>
        <time>2023-10-04T14:47:43.000Z</time>
      </trkpt>
      <trkpt lat="43.58865" lon="6.55758">
        <ele>409.3</ele>
        <time>2023-10-04T14:47:47.000Z</time>
      </trkpt>
      <trkpt lat="43.58866" lon="6.5575">
        <ele>409</ele>
        <time>2023-10-04T14:47:52.000Z</time>
      </trkpt>
      <trkpt lat="43.58867" lon="6.55743">
        <ele>408.6</ele>
        <time>2023-10-04T14:47:57.000Z</time>
      </trkpt>
      <trkpt lat="43.58868" lon="6.55736">
        <ele>408</ele>
        <time>2023-10-04T14:48:03.000Z</time>
      </trkpt>
      <trkpt lat="43.58868" lon="6.55729">
        <ele>407.5</ele>
        <time>2023-10-04T14:48:07.000Z</time>
      </trkpt>
      <trkpt lat="43.58868" lon="6.55722">
        <ele>406.9</ele>
        <time>2023-10-04T14:48:12.000Z</time>
      </trkpt>
      <trkpt lat="43.58869" lon="6.55716">
        <ele>406.3</ele>
        <time>2023-10-04T14:48:16.000Z</time>
      </trkpt>
      <trkpt lat="43.58869" lon="6.55709">
        <ele>405.8</ele>
        <time>2023-10-04T14:48:20.000Z</time>
      </trkpt>
      <trkpt lat="43.5887" lon="6.55701">
        <ele>405.3</ele>
        <time>2023-10-04T14:48:26.000Z</time>
      </trkpt>
      <trkpt lat="43.58869" lon="6.55695">
        <ele>405.1</ele>
        <time>2023-10-04T14:48:30.000Z</time>
      </trkpt>
      <trkpt lat="43.58867" lon="6.55688">
        <ele>404.8</ele>
        <time>2023-10-04T14:48:34.000Z</time>
      </trkpt>
      <trkpt lat="43.58867" lon="6.5568">
        <ele>404.5</ele>
        <time>2023-10-04T14:48:38.000Z</time>
      </trkpt>
      <trkpt lat="43.58867" lon="6.55674">
        <ele>404.1</ele>
        <time>2023-10-04T14:48:42.000Z</time>
      </trkpt>
      <trkpt lat="43.58868" lon="6.55666">
        <ele>403.8</ele>
        <time>2023-10-04T14:48:46.000Z</time>
      </trkpt>
      <trkpt lat="43.58868" lon="6.55659">
        <ele>403.4</ele>
        <time>2023-10-04T14:48:50.000Z</time>
      </trkpt>
      <trkpt lat="43.58868" lon="6.55652">
        <ele>402.9</ele>
        <time>2023-10-04T14:48:54.000Z</time>
      </trkpt>
      <trkpt lat="43.58869" lon="6.55645">
        <ele>402.1</ele>
        <time>2023-10-04T14:48:59.000Z</time>
      </trkpt>
      <trkpt lat="43.58871" lon="6.55638">
        <ele>401.6</ele>
        <time>2023-10-04T14:49:04.000Z</time>
      </trkpt>
      <trkpt lat="43.58872" lon="6.55631">
        <ele>401</ele>
        <time>2023-10-04T14:49:09.000Z</time>
      </trkpt>
      <trkpt lat="43.58874" lon="6.55624">
        <ele>400.2</ele>
        <time>2023-10-04T14:49:15.000Z</time>
      </trkpt>
      <trkpt lat="43.58873" lon="6.55618">
        <ele>399.5</ele>
        <time>2023-10-04T14:49:20.000Z</time>
      </trkpt>
      <trkpt lat="43.58875" lon="6.55611">
        <ele>399.1</ele>
        <time>2023-10-04T14:49:24.000Z</time>
      </trkpt>
      <trkpt lat="43.58877" lon="6.55604">
        <ele>398.7</ele>
        <time>2023-10-04T14:49:28.000Z</time>
      </trkpt>
      <trkpt lat="43.58879" lon="6.55597">
        <ele>398.1</ele>
        <time>2023-10-04T14:49:32.000Z</time>
      </trkpt>
      <trkpt lat="43.5888" lon="6.55591">
        <ele>397.7</ele>
        <time>2023-10-04T14:49:36.000Z</time>
      </trkpt>
      <trkpt lat="43.58881" lon="6.55584">
        <ele>397.2</ele>
        <time>2023-10-04T14:49:41.000Z</time>
      </trkpt>
      <trkpt lat="43.58882" lon="6.55577">
        <ele>396.9</ele>
        <time>2023-10-04T14:49:45.000Z</time>
      </trkpt>
      <trkpt lat="43.58884" lon="6.55569">
        <ele>396.3</ele>
        <time>2023-10-04T14:49:50.000Z</time>
      </trkpt>
      <trkpt lat="43.58887" lon="6.55564">
        <ele>396</ele>
        <time>2023-10-04T14:49:53.000Z</time>
      </trkpt>
      <trkpt lat="43.5889" lon="6.55557">
        <ele>395.8</ele>
        <time>2023-10-04T14:49:57.000Z</time>
      </trkpt>
      <trkpt lat="43.58893" lon="6.55552">
        <ele>395.6</ele>
        <time>2023-10-04T14:50:00.000Z</time>
      </trkpt>
      <trkpt lat="43.58896" lon="6.55546">
        <ele>395.3</ele>
        <time>2023-10-04T14:50:04.000Z</time>
      </trkpt>
      <trkpt lat="43.58897" lon="6.5554">
        <ele>394.8</ele>
        <time>2023-10-04T14:50:09.000Z</time>
      </trkpt>
      <trkpt lat="43.589" lon="6.55533">
        <ele>394.5</ele>
        <time>2023-10-04T14:50:14.000Z</time>
      </trkpt>
      <trkpt lat="43.58902" lon="6.55527">
        <ele>394.1</ele>
        <time>2023-10-04T14:50:19.000Z</time>
      </trkpt>
      <trkpt lat="43.58904" lon="6.5552">
        <ele>393.7</ele>
        <time>2023-10-04T14:50:24.000Z</time>
      </trkpt>
      <trkpt lat="43.58907" lon="6.55514">
        <ele>393.4</ele>
        <time>2023-10-04T14:50:28.000Z</time>
      </trkpt>
      <trkpt lat="43.58907" lon="6.55507">
        <ele>393.1</ele>
        <time>2023-10-04T14:50:32.000Z</time>
      </trkpt>
      <trkpt lat="43.58908" lon="6.55499">
        <ele>392.5</ele>
        <time>2023-10-04T14:50:36.000Z</time>
      </trkpt>
      <trkpt lat="43.58908" lon="6.55493">
        <ele>392</ele>
        <time>2023-10-04T14:50:40.000Z</time>
      </trkpt>
      <trkpt lat="43.5891" lon="6.55485">
        <ele>391.6</ele>
        <time>2023-10-04T14:50:44.000Z</time>
      </trkpt>
      <trkpt lat="43.5891" lon="6.55479">
        <ele>391.2</ele>
        <time>2023-10-04T14:50:48.000Z</time>
      </trkpt>
      <trkpt lat="43.58912" lon="6.55472">
        <ele>390.5</ele>
        <time>2023-10-04T14:50:53.000Z</time>
      </trkpt>
      <trkpt lat="43.58914" lon="6.55464">
        <ele>389.6</ele>
        <time>2023-10-04T14:50:59.000Z</time>
      </trkpt>
      <trkpt lat="43.58915" lon="6.55458">
        <ele>389.1</ele>
        <time>2023-10-04T14:51:02.000Z</time>
      </trkpt>
      <trkpt lat="43.58916" lon="6.55451">
        <ele>388.3</ele>
        <time>2023-10-04T14:51:07.000Z</time>
      </trkpt>
      <trkpt lat="43.58918" lon="6.55444">
        <ele>387.8</ele>
        <time>2023-10-04T14:51:11.000Z</time>
      </trkpt>
      <trkpt lat="43.58921" lon="6.55438">
        <ele>387.3</ele>
        <time>2023-10-04T14:51:15.000Z</time>
      </trkpt>
      <trkpt lat="43.58923" lon="6.55431">
        <ele>386.7</ele>
        <time>2023-10-04T14:51:19.000Z</time>
      </trkpt>
      <trkpt lat="43.58924" lon="6.55424">
        <ele>385.8</ele>
        <time>2023-10-04T14:51:24.000Z</time>
      </trkpt>
      <trkpt lat="43.58924" lon="6.55416">
        <ele>385.1</ele>
        <time>2023-10-04T14:51:28.000Z</time>
      </trkpt>
      <trkpt lat="43.58924" lon="6.55409">
        <ele>384.2</ele>
        <time>2023-10-04T14:51:33.000Z</time>
      </trkpt>
      <trkpt lat="43.58927" lon="6.55402">
        <ele>383</ele>
        <time>2023-10-04T14:51:38.000Z</time>
      </trkpt>
      <trkpt lat="43.58928" lon="6.55396">
        <ele>382.2</ele>
        <time>2023-10-04T14:51:42.000Z</time>
      </trkpt>
      <trkpt lat="43.5893" lon="6.55388">
        <ele>381.5</ele>
        <time>2023-10-04T14:51:46.000Z</time>
      </trkpt>
      <trkpt lat="43.58929" lon="6.55381">
        <ele>380.9</ele>
        <time>2023-10-04T14:51:50.000Z</time>
      </trkpt>
      <trkpt lat="43.5893" lon="6.55374">
        <ele>380.1</ele>
        <time>2023-10-04T14:51:54.000Z</time>
      </trkpt>
      <trkpt lat="43.5893" lon="6.55366">
        <ele>379.4</ele>
        <time>2023-10-04T14:51:59.000Z</time>
      </trkpt>
      <trkpt lat="43.5893" lon="6.55358">
        <ele>378.7</ele>
        <time>2023-10-04T14:52:04.000Z</time>
      </trkpt>
      <trkpt lat="43.58929" lon="6.5535">
        <ele>378.1</ele>
        <time>2023-10-04T14:52:08.000Z</time>
      </trkpt>
      <trkpt lat="43.5893" lon="6.55344">
        <ele>377.6</ele>
        <time>2023-10-04T14:52:11.000Z</time>
      </trkpt>
      <trkpt lat="43.58929" lon="6.55336">
        <ele>377.2</ele>
        <time>2023-10-04T14:52:15.000Z</time>
      </trkpt>
      <trkpt lat="43.58931" lon="6.5533">
        <ele>376.7</ele>
        <time>2023-10-04T14:52:18.000Z</time>
      </trkpt>
      <trkpt lat="43.58932" lon="6.55323">
        <ele>376</ele>
        <time>2023-10-04T14:52:22.000Z</time>
      </trkpt>
      <trkpt lat="43.58932" lon="6.55315">
        <ele>375.4</ele>
        <time>2023-10-04T14:52:26.000Z</time>
      </trkpt>
      <trkpt lat="43.58931" lon="6.55309">
        <ele>374.9</ele>
        <time>2023-10-04T14:52:30.000Z</time>
      </trkpt>
      <trkpt lat="43.58932" lon="6.55301">
        <ele>374.5</ele>
        <time>2023-10-04T14:52:34.000Z</time>
      </trkpt>
      <trkpt lat="43.5893" lon="6.55296">
        <ele>374.2</ele>
        <time>2023-10-04T14:52:37.000Z</time>
      </trkpt>
      <trkpt lat="43.58928" lon="6.5529">
        <ele>373.9</ele>
        <time>2023-10-04T14:52:40.000Z</time>
      </trkpt>
      <trkpt lat="43.58927" lon="6.55282">
        <ele>373.5</ele>
        <time>2023-10-04T14:52:45.000Z</time>
      </trkpt>
      <trkpt lat="43.58925" lon="6.55274">
        <ele>373.1</ele>
        <time>2023-10-04T14:52:49.000Z</time>
      </trkpt>
      <trkpt lat="43.58925" lon="6.55267">
        <ele>372.6</ele>
        <time>2023-10-04T14:52:53.000Z</time>
      </trkpt>
      <trkpt lat="43.58925" lon="6.55261">
        <ele>372.3</ele>
        <time>2023-10-04T14:52:56.000Z</time>
      </trkpt>
      <trkpt lat="43.58923" lon="6.55255">
        <ele>371.9</ele>
        <time>2023-10-04T14:53:00.000Z</time>
      </trkpt>
      <trkpt lat="43.58921" lon="6.55248">
        <ele>371.4</ele>
        <time>2023-10-04T14:53:05.000Z</time>
      </trkpt>
      <trkpt lat="43.58919" lon="6.55241">
        <ele>370.9</ele>
        <time>2023-10-04T14:53:09.000Z</time>
      </trkpt>
      <trkpt lat="43.58919" lon="6.55234">
        <ele>370.5</ele>
        <time>2023-10-04T14:53:13.000Z</time>
      </trkpt>
      <trkpt lat="43.58918" lon="6.55227">
        <ele>370.2</ele>
        <time>2023-10-04T14:53:17.000Z</time>
      </trkpt>
      <trkpt lat="43.58917" lon="6.55221">
        <ele>369.9</ele>
        <time>2023-10-04T14:53:21.000Z</time>
      </trkpt>
      <trkpt lat="43.58914" lon="6.55214">
        <ele>369.7</ele>
        <time>2023-10-04T14:53:25.000Z</time>
      </trkpt>
      <trkpt lat="43.58912" lon="6.55208">
        <ele>369.5</ele>
        <time>2023-10-04T14:53:28.000Z</time>
      </trkpt>
      <trkpt lat="43.5891" lon="6.55202">
        <ele>369.3</ele>
        <time>2023-10-04T14:53:32.000Z</time>
      </trkpt>
      <trkpt lat="43.58909" lon="6.55194">
        <ele>368.8</ele>
        <time>2023-10-04T14:53:37.000Z</time>
      </trkpt>
      <trkpt lat="43.58908" lon="6.55188">
        <ele>368.4</ele>
        <time>2023-10-04T14:53:41.000Z</time>
      </trkpt>
      <trkpt lat="43.58907" lon="6.5518">
        <ele>368</ele>
        <time>2023-10-04T14:53:45.000Z</time>
      </trkpt>
      <trkpt lat="43.58905" lon="6.55174">
        <ele>367.6</ele>
        <time>2023-10-04T14:53:48.000Z</time>
      </trkpt>
      <trkpt lat="43.58905" lon="6.55167">
        <ele>367.1</ele>
        <time>2023-10-04T14:53:53.000Z</time>
      </trkpt>
      <trkpt lat="43.58908" lon="6.55161">
        <ele>366.7</ele>
        <time>2023-10-04T14:53:58.000Z</time>
      </trkpt>
      <trkpt lat="43.58911" lon="6.55156">
        <ele>366.3</ele>
        <time>2023-10-04T14:54:05.000Z</time>
      </trkpt>
      <trkpt lat="43.58916" lon="6.55151">
        <ele>366.2</ele>
        <time>2023-10-04T14:54:09.000Z</time>
      </trkpt>
      <trkpt lat="43.58919" lon="6.55148">
        <ele>366.1</ele>
        <time>2023-10-04T14:54:12.000Z</time>
      </trkpt>
      <trkpt lat="43.58924" lon="6.55144">
        <ele>366.3</ele>
        <time>2023-10-04T14:54:17.000Z</time>
      </trkpt>
      <trkpt lat="43.58929" lon="6.55141">
        <ele>366.5</ele>
        <time>2023-10-04T14:54:21.000Z</time>
      </trkpt>
      <trkpt lat="43.58934" lon="6.55137">
        <ele>366.7</ele>
        <time>2023-10-04T14:54:25.000Z</time>
      </trkpt>
      <trkpt lat="43.58938" lon="6.55132">
        <ele>367.1</ele>
        <time>2023-10-04T14:54:29.000Z</time>
      </trkpt>
      <trkpt lat="43.58942" lon="6.55127">
        <ele>367.7</ele>
        <time>2023-10-04T14:54:34.000Z</time>
      </trkpt>
      <trkpt lat="43.58945" lon="6.55121">
        <ele>368.3</ele>
        <time>2023-10-04T14:54:39.000Z</time>
      </trkpt>
      <trkpt lat="43.58947" lon="6.55115">
        <ele>368.7</ele>
        <time>2023-10-04T14:54:43.000Z</time>
      </trkpt>
      <trkpt lat="43.5895" lon="6.5511">
        <ele>369</ele>
        <time>2023-10-04T14:54:47.000Z</time>
      </trkpt>
      <trkpt lat="43.58952" lon="6.55104">
        <ele>369.4</ele>
        <time>2023-10-04T14:54:52.000Z</time>
      </trkpt>
      <trkpt lat="43.58955" lon="6.55098">
        <ele>369.9</ele>
        <time>2023-10-04T14:54:58.000Z</time>
      </trkpt>
      <trkpt lat="43.58959" lon="6.55092">
        <ele>370.6</ele>
        <time>2023-10-04T14:55:03.000Z</time>
      </trkpt>
      <trkpt lat="43.58962" lon="6.55087">
        <ele>371.1</ele>
        <time>2023-10-04T14:55:07.000Z</time>
      </trkpt>
      <trkpt lat="43.58965" lon="6.55082">
        <ele>371.7</ele>
        <time>2023-10-04T14:55:12.000Z</time>
      </trkpt>
      <trkpt lat="43.58969" lon="6.55078">
        <ele>372.4</ele>
        <time>2023-10-04T14:55:17.000Z</time>
      </trkpt>
      <trkpt lat="43.58972" lon="6.55073">
        <ele>373.1</ele>
        <time>2023-10-04T14:55:22.000Z</time>
      </trkpt>
      <trkpt lat="43.58975" lon="6.55067">
        <ele>374</ele>
        <time>2023-10-04T14:55:27.000Z</time>
      </trkpt>
      <trkpt lat="43.58979" lon="6.55062">
        <ele>374.6</ele>
        <time>2023-10-04T14:55:31.000Z</time>
      </trkpt>
      <trkpt lat="43.58982" lon="6.55056">
        <ele>375.1</ele>
        <time>2023-10-04T14:55:35.000Z</time>
      </trkpt>
      <trkpt lat="43.58984" lon="6.55049">
        <ele>375.5</ele>
        <time>2023-10-04T14:55:39.000Z</time>
      </trkpt>
      <trkpt lat="43.58986" lon="6.55043">
        <ele>375.9</ele>
        <time>2023-10-04T14:55:42.000Z</time>
      </trkpt>
      <trkpt lat="43.58987" lon="6.55037">
        <ele>376.3</ele>
        <time>2023-10-04T14:55:46.000Z</time>
      </trkpt>
      <trkpt lat="43.58988" lon="6.5503">
        <ele>376.7</ele>
        <time>2023-10-04T14:55:50.000Z</time>
      </trkpt>
      <trkpt lat="43.58988" lon="6.55023">
        <ele>377</ele>
        <time>2023-10-04T14:55:54.000Z</time>
      </trkpt>
      <trkpt lat="43.58988" lon="6.55015">
        <ele>377.3</ele>
        <time>2023-10-04T14:55:58.000Z</time>
      </trkpt>
      <trkpt lat="43.58988" lon="6.55008">
        <ele>377.5</ele>
        <time>2023-10-04T14:56:02.000Z</time>
      </trkpt>
      <trkpt lat="43.58988" lon="6.55">
        <ele>377.7</ele>
        <time>2023-10-04T14:56:06.000Z</time>
      </trkpt>
      <trkpt lat="43.58988" lon="6.54993">
        <ele>378</ele>
        <time>2023-10-04T14:56:10.000Z</time>
      </trkpt>
      <trkpt lat="43.58988" lon="6.54985">
        <ele>378.3</ele>
        <time>2023-10-04T14:56:14.000Z</time>
      </trkpt>
      <trkpt lat="43.58988" lon="6.54978">
        <ele>378.5</ele>
        <time>2023-10-04T14:56:18.000Z</time>
      </trkpt>
      <trkpt lat="43.58988" lon="6.5497">
        <ele>378.6</ele>
        <time>2023-10-04T14:56:22.000Z</time>
      </trkpt>
      <trkpt lat="43.58988" lon="6.54963">
        <ele>378.8</ele>
        <time>2023-10-04T14:56:26.000Z</time>
      </trkpt>
      <trkpt lat="43.58989" lon="6.54955">
        <ele>378.9</ele>
        <time>2023-10-04T14:56:30.000Z</time>
      </trkpt>
      <trkpt lat="43.58989" lon="6.54948">
        <ele>379</ele>
        <time>2023-10-04T14:56:34.000Z</time>
      </trkpt>
      <trkpt lat="43.58989" lon="6.54941">
        <ele>379.1</ele>
        <time>2023-10-04T14:56:38.000Z</time>
      </trkpt>
      <trkpt lat="43.58991" lon="6.54935">
        <ele>378.8</ele>
        <time>2023-10-04T14:56:43.000Z</time>
      </trkpt>
      <trkpt lat="43.58994" lon="6.54931">
        <ele>378.5</ele>
        <time>2023-10-04T14:56:47.000Z</time>
      </trkpt>
      <trkpt lat="43.58999" lon="6.54927">
        <ele>378.2</ele>
        <time>2023-10-04T14:56:51.000Z</time>
      </trkpt>
      <trkpt lat="43.59002" lon="6.54923">
        <ele>377.9</ele>
        <time>2023-10-04T14:56:55.000Z</time>
      </trkpt>
      <trkpt lat="43.59005" lon="6.54918">
        <ele>377.6</ele>
        <time>2023-10-04T14:56:59.000Z</time>
      </trkpt>
      <trkpt lat="43.59009" lon="6.54913">
        <ele>377.2</ele>
        <time>2023-10-04T14:57:03.000Z</time>
      </trkpt>
      <trkpt lat="43.59011" lon="6.54907">
        <ele>376.8</ele>
        <time>2023-10-04T14:57:07.000Z</time>
      </trkpt>
      <trkpt lat="43.59013" lon="6.549">
        <ele>376.3</ele>
        <time>2023-10-04T14:57:11.000Z</time>
      </trkpt>
      <trkpt lat="43.59014" lon="6.54893">
        <ele>375.7</ele>
        <time>2023-10-04T14:57:16.000Z</time>
      </trkpt>
      <trkpt lat="43.59016" lon="6.54886">
        <ele>375.3</ele>
        <time>2023-10-04T14:57:21.000Z</time>
      </trkpt>
      <trkpt lat="43.59019" lon="6.54879">
        <ele>374.9</ele>
        <time>2023-10-04T14:57:26.000Z</time>
      </trkpt>
      <trkpt lat="43.59021" lon="6.54874">
        <ele>374.5</ele>
        <time>2023-10-04T14:57:30.000Z</time>
      </trkpt>
      <trkpt lat="43.59023" lon="6.54867">
        <ele>374.2</ele>
        <time>2023-10-04T14:57:34.000Z</time>
      </trkpt>
      <trkpt lat="43.59026" lon="6.54861">
        <ele>374</ele>
        <time>2023-10-04T14:57:38.000Z</time>
      </trkpt>
      <trkpt lat="43.59027" lon="6.54855">
        <ele>373.6</ele>
        <time>2023-10-04T14:57:42.000Z</time>
      </trkpt>
      <trkpt lat="43.5903" lon="6.54849">
        <ele>373.3</ele>
        <time>2023-10-04T14:57:46.000Z</time>
      </trkpt>
      <trkpt lat="43.59032" lon="6.54843">
        <ele>372.8</ele>
        <time>2023-10-04T14:57:50.000Z</time>
      </trkpt>
      <trkpt lat="43.59035" lon="6.54838">
        <ele>372.5</ele>
        <time>2023-10-04T14:57:54.000Z</time>
      </trkpt>
      <trkpt lat="43.59037" lon="6.54832">
        <ele>371.8</ele>
        <time>2023-10-04T14:57:58.000Z</time>
      </trkpt>
      <trkpt lat="43.5904" lon="6.54825">
        <ele>371.3</ele>
        <time>2023-10-04T14:58:02.000Z</time>
      </trkpt>
      <trkpt lat="43.59041" lon="6.54818">
        <ele>371</ele>
        <time>2023-10-04T14:58:06.000Z</time>
      </trkpt>
      <trkpt lat="43.59042" lon="6.54812">
        <ele>370.7</ele>
        <time>2023-10-04T14:58:10.000Z</time>
      </trkpt>
      <trkpt lat="43.59044" lon="6.54805">
        <ele>370.5</ele>
        <time>2023-10-04T14:58:14.000Z</time>
      </trkpt>
      <trkpt lat="43.59045" lon="6.54797">
        <ele>370.2</ele>
        <time>2023-10-04T14:58:18.000Z</time>
      </trkpt>
      <trkpt lat="43.59046" lon="6.5479">
        <ele>370</ele>
        <time>2023-10-04T14:58:22.000Z</time>
      </trkpt>
      <trkpt lat="43.59048" lon="6.54784">
        <ele>369.7</ele>
        <time>2023-10-04T14:58:26.000Z</time>
      </trkpt>
      <trkpt lat="43.59049" lon="6.54776">
        <ele>369.5</ele>
        <time>2023-10-04T14:58:30.000Z</time>
      </trkpt>
      <trkpt lat="43.5905" lon="6.54769">
        <ele>369.2</ele>
        <time>2023-10-04T14:58:34.000Z</time>
      </trkpt>
      <trkpt lat="43.59051" lon="6.54762">
        <ele>368.7</ele>
        <time>2023-10-04T14:58:38.000Z</time>
      </trkpt>
      <trkpt lat="43.59051" lon="6.54754">
        <ele>368.4</ele>
        <time>2023-10-04T14:58:42.000Z</time>
      </trkpt>
      <trkpt lat="43.59051" lon="6.54747">
        <ele>368</ele>
        <time>2023-10-04T14:58:46.000Z</time>
      </trkpt>
      <trkpt lat="43.5905" lon="6.5474">
        <ele>367.8</ele>
        <time>2023-10-04T14:58:50.000Z</time>
      </trkpt>
      <trkpt lat="43.59048" lon="6.54734">
        <ele>367.6</ele>
        <time>2023-10-04T14:58:54.000Z</time>
      </trkpt>
      <trkpt lat="43.59046" lon="6.54728">
        <ele>367.5</ele>
        <time>2023-10-04T14:58:58.000Z</time>
      </trkpt>
      <trkpt lat="43.59045" lon="6.54721">
        <ele>367.2</ele>
        <time>2023-10-04T14:59:02.000Z</time>
      </trkpt>
      <trkpt lat="43.59044" lon="6.54715">
        <ele>367</ele>
        <time>2023-10-04T14:59:06.000Z</time>
      </trkpt>
      <trkpt lat="43.59043" lon="6.54709">
        <ele>366.7</ele>
        <time>2023-10-04T14:59:10.000Z</time>
      </trkpt>
      <trkpt lat="43.59042" lon="6.54701">
        <ele>366.5</ele>
        <time>2023-10-04T14:59:14.000Z</time>
      </trkpt>
      <trkpt lat="43.5904" lon="6.54694">
        <ele>366.3</ele>
        <time>2023-10-04T14:59:18.000Z</time>
      </trkpt>
      <trkpt lat="43.5904" lon="6.54687">
        <ele>366</ele>
        <time>2023-10-04T14:59:22.000Z</time>
      </trkpt>
      <trkpt lat="43.5904" lon="6.54681">
        <ele>365.8</ele>
        <time>2023-10-04T14:59:26.000Z</time>
      </trkpt>
      <trkpt lat="43.59041" lon="6.54674">
        <ele>365.7</ele>
        <time>2023-10-04T14:59:30.000Z</time>
      </trkpt>
      <trkpt lat="43.59043" lon="6.54667">
        <ele>365.3</ele>
        <time>2023-10-04T14:59:34.000Z</time>
      </trkpt>
      <trkpt lat="43.59044" lon="6.54659">
        <ele>364.8</ele>
        <time>2023-10-04T14:59:38.000Z</time>
      </trkpt>
      <trkpt lat="43.59045" lon="6.54653">
        <ele>364.4</ele>
        <time>2023-10-04T14:59:42.000Z</time>
      </trkpt>
      <trkpt lat="43.59047" lon="6.54646">
        <ele>363.9</ele>
        <time>2023-10-04T14:59:46.000Z</time>
      </trkpt>
      <trkpt lat="43.59049" lon="6.54639">
        <ele>363.5</ele>
        <time>2023-10-04T14:59:50.000Z</time>
      </trkpt>
      <trkpt lat="43.5905" lon="6.54632">
        <ele>363.2</ele>
        <time>2023-10-04T14:59:54.000Z</time>
      </trkpt>
      <trkpt lat="43.59052" lon="6.54626">
        <ele>362.9</ele>
        <time>2023-10-04T14:59:58.000Z</time>
      </trkpt>
      <trkpt lat="43.59053" lon="6.5462">
        <ele>362.7</ele>
        <time>2023-10-04T15:00:02.000Z</time>
      </trkpt>
      <trkpt lat="43.59053" lon="6.54613">
        <ele>362.6</ele>
        <time>2023-10-04T15:00:06.000Z</time>
      </trkpt>
      <trkpt lat="43.59053" lon="6.54606">
        <ele>362.4</ele>
        <time>2023-10-04T15:00:10.000Z</time>
      </trkpt>
      <trkpt lat="43.59053" lon="6.54599">
        <ele>362.1</ele>
        <time>2023-10-04T15:00:14.000Z</time>
      </trkpt>
      <trkpt lat="43.59051" lon="6.54592">
        <ele>361.9</ele>
        <time>2023-10-04T15:00:18.000Z</time>
      </trkpt>
      <trkpt lat="43.5905" lon="6.54585">
        <ele>361.8</ele>
        <time>2023-10-04T15:00:22.000Z</time>
      </trkpt>
      <trkpt lat="43.59049" lon="6.54578">
        <ele>361.5</ele>
        <time>2023-10-04T15:00:26.000Z</time>
      </trkpt>
      <trkpt lat="43.5905" lon="6.54572">
        <ele>361.4</ele>
        <time>2023-10-04T15:00:30.000Z</time>
      </trkpt>
      <trkpt lat="43.59052" lon="6.54566">
        <ele>361.4</ele>
        <time>2023-10-04T15:00:35.000Z</time>
      </trkpt>
      <trkpt lat="43.59055" lon="6.5456">
        <ele>361.5</ele>
        <time>2023-10-04T15:00:39.000Z</time>
      </trkpt>
      <trkpt lat="43.59057" lon="6.54554">
        <ele>361.8</ele>
        <time>2023-10-04T15:00:44.000Z</time>
      </trkpt>
      <trkpt lat="43.5906" lon="6.54549">
        <ele>362.1</ele>
        <time>2023-10-04T15:00:48.000Z</time>
      </trkpt>
      <trkpt lat="43.59062" lon="6.54543">
        <ele>362.4</ele>
        <time>2023-10-04T15:00:53.000Z</time>
      </trkpt>
      <trkpt lat="43.59064" lon="6.54537">
        <ele>363.7</ele>
        <time>2023-10-04T15:01:26.000Z</time>
      </trkpt>
      <trkpt lat="43.59067" lon="6.54531">
        <ele>363.6</ele>
        <time>2023-10-04T15:04:19.000Z</time>
      </trkpt>
      <trkpt lat="43.59071" lon="6.54529">
        <ele>363.6</ele>
        <time>2023-10-04T15:04:24.000Z</time>
      </trkpt>
      <trkpt lat="43.59076" lon="6.54528">
        <ele>363.9</ele>
        <time>2023-10-04T15:04:29.000Z</time>
      </trkpt>
      <trkpt lat="43.59081" lon="6.54524">
        <ele>364.1</ele>
        <time>2023-10-04T15:04:34.000Z</time>
      </trkpt>
      <trkpt lat="43.59086" lon="6.5452">
        <ele>364.4</ele>
        <time>2023-10-04T15:04:39.000Z</time>
      </trkpt>
      <trkpt lat="43.5909" lon="6.54516">
        <ele>364.7</ele>
        <time>2023-10-04T15:04:44.000Z</time>
      </trkpt>
      <trkpt lat="43.59093" lon="6.54512">
        <ele>365</ele>
        <time>2023-10-04T15:04:48.000Z</time>
      </trkpt>
      <trkpt lat="43.59097" lon="6.54508">
        <ele>365.3</ele>
        <time>2023-10-04T15:04:52.000Z</time>
      </trkpt>
      <trkpt lat="43.59101" lon="6.54504">
        <ele>365.7</ele>
        <time>2023-10-04T15:04:57.000Z</time>
      </trkpt>
      <trkpt lat="43.59105" lon="6.54498">
        <ele>366.1</ele>
        <time>2023-10-04T15:05:02.000Z</time>
      </trkpt>
      <trkpt lat="43.59108" lon="6.54493">
        <ele>366.3</ele>
        <time>2023-10-04T15:05:06.000Z</time>
      </trkpt>
      <trkpt lat="43.5911" lon="6.54487">
        <ele>366.4</ele>
        <time>2023-10-04T15:05:10.000Z</time>
      </trkpt>
      <trkpt lat="43.59112" lon="6.54482">
        <ele>366.5</ele>
        <time>2023-10-04T15:05:14.000Z</time>
      </trkpt>
      <trkpt lat="43.59116" lon="6.54477">
        <ele>366.4</ele>
        <time>2023-10-04T15:05:19.000Z</time>
      </trkpt>
      <trkpt lat="43.59119" lon="6.54472">
        <ele>366.1</ele>
        <time>2023-10-04T15:05:24.000Z</time>
      </trkpt>
      <trkpt lat="43.59121" lon="6.54466">
        <ele>365.7</ele>
        <time>2023-10-04T15:05:28.000Z</time>
      </trkpt>
      <trkpt lat="43.59124" lon="6.54461">
        <ele>365.2</ele>
        <time>2023-10-04T15:05:33.000Z</time>
      </trkpt>
      <trkpt lat="43.59127" lon="6.54455">
        <ele>364.8</ele>
        <time>2023-10-04T15:05:37.000Z</time>
      </trkpt>
      <trkpt lat="43.5913" lon="6.5445">
        <ele>364.3</ele>
        <time>2023-10-04T15:05:41.000Z</time>
      </trkpt>
      <trkpt lat="43.59133" lon="6.54444">
        <ele>363.9</ele>
        <time>2023-10-04T15:05:45.000Z</time>
      </trkpt>
      <trkpt lat="43.59137" lon="6.54438">
        <ele>363.2</ele>
        <time>2023-10-04T15:05:50.000Z</time>
      </trkpt>
      <trkpt lat="43.5914" lon="6.54433">
        <ele>362.6</ele>
        <time>2023-10-04T15:05:55.000Z</time>
      </trkpt>
      <trkpt lat="43.59143" lon="6.54427">
        <ele>362.4</ele>
        <time>2023-10-04T15:05:59.000Z</time>
      </trkpt>
      <trkpt lat="43.59146" lon="6.54422">
        <ele>362.1</ele>
        <time>2023-10-04T15:06:03.000Z</time>
      </trkpt>
      <trkpt lat="43.59149" lon="6.54416">
        <ele>361.7</ele>
        <time>2023-10-04T15:06:07.000Z</time>
      </trkpt>
      <trkpt lat="43.59152" lon="6.54411">
        <ele>361.3</ele>
        <time>2023-10-04T15:06:11.000Z</time>
      </trkpt>
      <trkpt lat="43.59153" lon="6.54404">
        <ele>360.8</ele>
        <time>2023-10-04T15:06:15.000Z</time>
      </trkpt>
      <trkpt lat="43.59155" lon="6.54397">
        <ele>360.5</ele>
        <time>2023-10-04T15:06:19.000Z</time>
      </trkpt>
      <trkpt lat="43.59158" lon="6.5439">
        <ele>360</ele>
        <time>2023-10-04T15:06:23.000Z</time>
      </trkpt>
      <trkpt lat="43.59161" lon="6.54385">
        <ele>359.6</ele>
        <time>2023-10-04T15:06:27.000Z</time>
      </trkpt>
      <trkpt lat="43.59163" lon="6.54379">
        <ele>359.3</ele>
        <time>2023-10-04T15:06:31.000Z</time>
      </trkpt>
      <trkpt lat="43.59166" lon="6.54372">
        <ele>359.1</ele>
        <time>2023-10-04T15:06:35.000Z</time>
      </trkpt>
      <trkpt lat="43.59169" lon="6.54366">
        <ele>358.9</ele>
        <time>2023-10-04T15:06:39.000Z</time>
      </trkpt>
      <trkpt lat="43.59171" lon="6.54359">
        <ele>358.6</ele>
        <time>2023-10-04T15:06:43.000Z</time>
      </trkpt>
      <trkpt lat="43.59173" lon="6.54352">
        <ele>358.4</ele>
        <time>2023-10-04T15:06:47.000Z</time>
      </trkpt>
      <trkpt lat="43.59175" lon="6.54346">
        <ele>358.2</ele>
        <time>2023-10-04T15:06:51.000Z</time>
      </trkpt>
      <trkpt lat="43.59178" lon="6.5434">
        <ele>357.9</ele>
        <time>2023-10-04T15:06:55.000Z</time>
      </trkpt>
      <trkpt lat="43.59181" lon="6.54334">
        <ele>357.7</ele>
        <time>2023-10-04T15:06:59.000Z</time>
      </trkpt>
      <trkpt lat="43.59184" lon="6.54327">
        <ele>357.6</ele>
        <time>2023-10-04T15:07:04.000Z</time>
      </trkpt>
      <trkpt lat="43.59188" lon="6.54321">
        <ele>357.4</ele>
        <time>2023-10-04T15:07:08.000Z</time>
      </trkpt>
      <trkpt lat="43.59191" lon="6.54315">
        <ele>357.3</ele>
        <time>2023-10-04T15:07:12.000Z</time>
      </trkpt>
      <trkpt lat="43.59194" lon="6.54308">
        <ele>357.3</ele>
        <time>2023-10-04T15:07:16.000Z</time>
      </trkpt>
      <trkpt lat="43.59197" lon="6.54302">
        <ele>357.2</ele>
        <time>2023-10-04T15:07:20.000Z</time>
      </trkpt>
      <trkpt lat="43.592" lon="6.54296">
        <ele>357.2</ele>
        <time>2023-10-04T15:07:24.000Z</time>
      </trkpt>
      <trkpt lat="43.59202" lon="6.5429">
        <ele>357.1</ele>
        <time>2023-10-04T15:07:28.000Z</time>
      </trkpt>
      <trkpt lat="43.59205" lon="6.54284">
        <ele>356.9</ele>
        <time>2023-10-04T15:07:32.000Z</time>
      </trkpt>
      <trkpt lat="43.59208" lon="6.54278">
        <ele>356.9</ele>
        <time>2023-10-04T15:07:36.000Z</time>
      </trkpt>
      <trkpt lat="43.59213" lon="6.54274">
        <ele>356.9</ele>
        <time>2023-10-04T15:07:40.000Z</time>
      </trkpt>
      <trkpt lat="43.59216" lon="6.54268">
        <ele>356.8</ele>
        <time>2023-10-04T15:07:44.000Z</time>
      </trkpt>
      <trkpt lat="43.59219" lon="6.54261">
        <ele>356.7</ele>
        <time>2023-10-04T15:07:48.000Z</time>
      </trkpt>
      <trkpt lat="43.59221" lon="6.54254">
        <ele>356.6</ele>
        <time>2023-10-04T15:07:53.000Z</time>
      </trkpt>
      <trkpt lat="43.59223" lon="6.54248">
        <ele>356.5</ele>
        <time>2023-10-04T15:07:57.000Z</time>
      </trkpt>
      <trkpt lat="43.59225" lon="6.54241">
        <ele>356.3</ele>
        <time>2023-10-04T15:08:01.000Z</time>
      </trkpt>
      <trkpt lat="43.59227" lon="6.54234">
        <ele>356.2</ele>
        <time>2023-10-04T15:08:05.000Z</time>
      </trkpt>
      <trkpt lat="43.59229" lon="6.54227">
        <ele>356.1</ele>
        <time>2023-10-04T15:08:09.000Z</time>
      </trkpt>
      <trkpt lat="43.59231" lon="6.54221">
        <ele>356</ele>
        <time>2023-10-04T15:08:13.000Z</time>
      </trkpt>
      <trkpt lat="43.59233" lon="6.54215">
        <ele>356</ele>
        <time>2023-10-04T15:08:17.000Z</time>
      </trkpt>
      <trkpt lat="43.59236" lon="6.54209">
        <ele>355.9</ele>
        <time>2023-10-04T15:08:22.000Z</time>
      </trkpt>
      <trkpt lat="43.5924" lon="6.54205">
        <ele>356</ele>
        <time>2023-10-04T15:08:26.000Z</time>
      </trkpt>
      <trkpt lat="43.59244" lon="6.542">
        <ele>356.1</ele>
        <time>2023-10-04T15:08:30.000Z</time>
      </trkpt>
      <trkpt lat="43.59248" lon="6.54196">
        <ele>356.1</ele>
        <time>2023-10-04T15:08:34.000Z</time>
      </trkpt>
      <trkpt lat="43.59253" lon="6.54193">
        <ele>356.1</ele>
        <time>2023-10-04T15:08:38.000Z</time>
      </trkpt>
      <trkpt lat="43.59258" lon="6.54191">
        <ele>356.1</ele>
        <time>2023-10-04T15:08:42.000Z</time>
      </trkpt>
      <trkpt lat="43.59262" lon="6.5419">
        <ele>356.1</ele>
        <time>2023-10-04T15:08:46.000Z</time>
      </trkpt>
      <trkpt lat="43.59268" lon="6.54188">
        <ele>356.1</ele>
        <time>2023-10-04T15:08:51.000Z</time>
      </trkpt>
      <trkpt lat="43.59272" lon="6.54186">
        <ele>356.1</ele>
        <time>2023-10-04T15:08:54.000Z</time>
      </trkpt>
      <trkpt lat="43.59277" lon="6.54185">
        <ele>356.1</ele>
        <time>2023-10-04T15:08:58.000Z</time>
      </trkpt>
      <trkpt lat="43.59281" lon="6.54186">
        <ele>356.1</ele>
        <time>2023-10-04T15:09:01.000Z</time>
      </trkpt>
      <trkpt lat="43.59287" lon="6.54186">
        <ele>356.1</ele>
        <time>2023-10-04T15:09:06.000Z</time>
      </trkpt>
      <trkpt lat="43.59291" lon="6.54187">
        <ele>356.1</ele>
        <time>2023-10-04T15:09:09.000Z</time>
      </trkpt>
      <trkpt lat="43.59297" lon="6.54187">
        <ele>356.1</ele>
        <time>2023-10-04T15:09:13.000Z</time>
      </trkpt>
      <trkpt lat="43.59301" lon="6.54187">
        <ele>356.1</ele>
        <time>2023-10-04T15:09:17.000Z</time>
      </trkpt>
      <trkpt lat="43.59307" lon="6.54186">
        <ele>356.2</ele>
        <time>2023-10-04T15:09:22.000Z</time>
      </trkpt>
      <trkpt lat="43.59311" lon="6.54184">
        <ele>356.2</ele>
        <time>2023-10-04T15:09:27.000Z</time>
      </trkpt>
      <trkpt lat="43.59316" lon="6.54183">
        <ele>356.3</ele>
        <time>2023-10-04T15:09:32.000Z</time>
      </trkpt>
      <trkpt lat="43.59319" lon="6.54177">
        <ele>356.5</ele>
        <time>2023-10-04T15:09:39.000Z</time>
      </trkpt>
      <trkpt lat="43.59319" lon="6.54171">
        <ele>356.7</ele>
        <time>2023-10-04T15:09:45.000Z</time>
      </trkpt>
      <trkpt lat="43.59315" lon="6.54169">
        <ele>357.2</ele>
        <time>2023-10-04T15:09:51.000Z</time>
      </trkpt>
      <trkpt lat="43.59311" lon="6.54164">
        <ele>357.6</ele>
        <time>2023-10-04T15:09:56.000Z</time>
      </trkpt>
      <trkpt lat="43.59309" lon="6.54159">
        <ele>358.2</ele>
        <time>2023-10-04T15:10:02.000Z</time>
      </trkpt>
      <trkpt lat="43.59308" lon="6.54152">
        <ele>358.8</ele>
        <time>2023-10-04T15:10:07.000Z</time>
      </trkpt>
      <trkpt lat="43.59306" lon="6.54146">
        <ele>359.3</ele>
        <time>2023-10-04T15:10:11.000Z</time>
      </trkpt>
      <trkpt lat="43.59304" lon="6.54139">
        <ele>360</ele>
        <time>2023-10-04T15:10:16.000Z</time>
      </trkpt>
      <trkpt lat="43.59303" lon="6.54132">
        <ele>360.5</ele>
        <time>2023-10-04T15:10:21.000Z</time>
      </trkpt>
      <trkpt lat="43.59303" lon="6.54124">
        <ele>361</ele>
        <time>2023-10-04T15:10:26.000Z</time>
      </trkpt>
      <trkpt lat="43.59303" lon="6.54117">
        <ele>361.6</ele>
        <time>2023-10-04T15:10:31.000Z</time>
      </trkpt>
      <trkpt lat="43.59303" lon="6.5411">
        <ele>362</ele>
        <time>2023-10-04T15:10:36.000Z</time>
      </trkpt>
      <trkpt lat="43.59305" lon="6.54103">
        <ele>362.5</ele>
        <time>2023-10-04T15:10:41.000Z</time>
      </trkpt>
      <trkpt lat="43.59306" lon="6.54097">
        <ele>362.8</ele>
        <time>2023-10-04T15:10:45.000Z</time>
      </trkpt>
      <trkpt lat="43.59305" lon="6.54091">
        <ele>363.3</ele>
        <time>2023-10-04T15:10:50.000Z</time>
      </trkpt>
      <trkpt lat="43.59304" lon="6.54084">
        <ele>363.7</ele>
        <time>2023-10-04T15:10:55.000Z</time>
      </trkpt>
      <trkpt lat="43.59303" lon="6.54078">
        <ele>364</ele>
        <time>2023-10-04T15:11:01.000Z</time>
      </trkpt>
      <trkpt lat="43.59302" lon="6.5407">
        <ele>364.3</ele>
        <time>2023-10-04T15:11:06.000Z</time>
      </trkpt>
      <trkpt lat="43.593" lon="6.54064">
        <ele>364.5</ele>
        <time>2023-10-04T15:11:10.000Z</time>
      </trkpt>
      <trkpt lat="43.59299" lon="6.54056">
        <ele>364.7</ele>
        <time>2023-10-04T15:11:15.000Z</time>
      </trkpt>
      <trkpt lat="43.59298" lon="6.54048">
        <ele>364.8</ele>
        <time>2023-10-04T15:11:19.000Z</time>
      </trkpt>
      <trkpt lat="43.593" lon="6.54041">
        <ele>364.9</ele>
        <time>2023-10-04T15:11:23.000Z</time>
      </trkpt>
      <trkpt lat="43.59303" lon="6.54034">
        <ele>365.1</ele>
        <time>2023-10-04T15:11:27.000Z</time>
      </trkpt>
      <trkpt lat="43.59304" lon="6.54028">
        <ele>365.3</ele>
        <time>2023-10-04T15:11:30.000Z</time>
      </trkpt>
      <trkpt lat="43.59303" lon="6.54022">
        <ele>365.4</ele>
        <time>2023-10-04T15:11:34.000Z</time>
      </trkpt>
      <trkpt lat="43.593" lon="6.54018">
        <ele>365.6</ele>
        <time>2023-10-04T15:11:39.000Z</time>
      </trkpt>
      <trkpt lat="43.59296" lon="6.54013">
        <ele>366.1</ele>
        <time>2023-10-04T15:11:43.000Z</time>
      </trkpt>
      <trkpt lat="43.59294" lon="6.54007">
        <ele>366.6</ele>
        <time>2023-10-04T15:11:48.000Z</time>
      </trkpt>
      <trkpt lat="43.59291" lon="6.54001">
        <ele>367.2</ele>
        <time>2023-10-04T15:11:54.000Z</time>
      </trkpt>
      <trkpt lat="43.59287" lon="6.53996">
        <ele>367.6</ele>
        <time>2023-10-04T15:11:59.000Z</time>
      </trkpt>
      <trkpt lat="43.59284" lon="6.53991">
        <ele>368.3</ele>
        <time>2023-10-04T15:12:04.000Z</time>
      </trkpt>
      <trkpt lat="43.59281" lon="6.53986">
        <ele>369.2</ele>
        <time>2023-10-04T15:12:10.000Z</time>
      </trkpt>
      <trkpt lat="43.59276" lon="6.53982">
        <ele>370.4</ele>
        <time>2023-10-04T15:12:16.000Z</time>
      </trkpt>
      <trkpt lat="43.59272" lon="6.53979">
        <ele>373.1</ele>
        <time>2023-10-04T15:12:39.000Z</time>
      </trkpt>
      <trkpt lat="43.59268" lon="6.53981">
        <ele>374.4</ele>
        <time>2023-10-04T15:12:59.000Z</time>
      </trkpt>
      <trkpt lat="43.59273" lon="6.53977">
        <ele>374.6</ele>
        <time>2023-10-04T15:13:06.000Z</time>
      </trkpt>
      <trkpt lat="43.59278" lon="6.53977">
        <ele>374.7</ele>
        <time>2023-10-04T15:13:11.000Z</time>
      </trkpt>
      <trkpt lat="43.59283" lon="6.53978">
        <ele>374.8</ele>
        <time>2023-10-04T15:13:17.000Z</time>
      </trkpt>
      <trkpt lat="43.59287" lon="6.53981">
        <ele>374.9</ele>
        <time>2023-10-04T15:13:22.000Z</time>
      </trkpt>
      <trkpt lat="43.59293" lon="6.53981">
        <ele>375.1</ele>
        <time>2023-10-04T15:13:27.000Z</time>
      </trkpt>
      <trkpt lat="43.59298" lon="6.53981">
        <ele>375.4</ele>
        <time>2023-10-04T15:13:32.000Z</time>
      </trkpt>
      <trkpt lat="43.59303" lon="6.53981">
        <ele>375.7</ele>
        <time>2023-10-04T15:13:38.000Z</time>
      </trkpt>
      <trkpt lat="43.59309" lon="6.5398">
        <ele>376.1</ele>
        <time>2023-10-04T15:13:43.000Z</time>
      </trkpt>
      <trkpt lat="43.59314" lon="6.53982">
        <ele>376.4</ele>
        <time>2023-10-04T15:13:49.000Z</time>
      </trkpt>
      <trkpt lat="43.59319" lon="6.53985">
        <ele>376.7</ele>
        <time>2023-10-04T15:13:55.000Z</time>
      </trkpt>
      <trkpt lat="43.59324" lon="6.53987">
        <ele>376.9</ele>
        <time>2023-10-04T15:14:01.000Z</time>
      </trkpt>
      <trkpt lat="43.59329" lon="6.53985">
        <ele>377.1</ele>
        <time>2023-10-04T15:14:07.000Z</time>
      </trkpt>
      <trkpt lat="43.59334" lon="6.53983">
        <ele>377.2</ele>
        <time>2023-10-04T15:14:12.000Z</time>
      </trkpt>
    </trkseg>
  </trk>
</gpx>